<?xml version="1.0" encoding="UTF-8" standalone="no" ?>
<gpx xmlns="http://www.topografix.com/GPX/1/1" xmlns:xsi="http://www.w3.org/2001/XMLSchema-instance" xsi:schemaLocation="http://www.topografix.com/GPX/1/1 http://www.topografix.com/GPX/1/1/gpx.xsd" version="1.1" creator="VisuGPX - https://www.visugpx.com">
  <metadata>
    <name>Cognin Malleval la Lunette</name>
    <desc><![CDATA[Rando LCV. Agréable. La lunette pas facile à trouver.]]></desc>
  </metadata>
  <trk>
    <name><![CDATA[F38 LT LCV Cognin Malleval la Lunette N2 ANIM]]></name>
    <desc><![CDATA[6h:22m:00s | 19.9 km]]></desc>
    <trkseg>
      <trkpt lat="45.17041" lon="5.41217">
        <ele>273.64</ele>
        <time>2014-10-30T08:05:16Z</time>
      </trkpt>
      <trkpt lat="45.17035" lon="5.41204">
        <ele>272.61</ele>
        <time>2014-10-30T08:05:26Z</time>
      </trkpt>
      <trkpt lat="45.17027" lon="5.41196">
        <ele>272.15</ele>
        <time>2014-10-30T08:05:36Z</time>
      </trkpt>
      <trkpt lat="45.17017" lon="5.41201">
        <ele>270.27</ele>
        <time>2014-10-30T08:05:46Z</time>
      </trkpt>
      <trkpt lat="45.17008" lon="5.41207">
        <ele>269.21</ele>
        <time>2014-10-30T08:05:56Z</time>
      </trkpt>
      <trkpt lat="45.16996" lon="5.41216">
        <ele>268.7</ele>
        <time>2014-10-30T08:06:06Z</time>
      </trkpt>
      <trkpt lat="45.16986" lon="5.41228">
        <ele>269.04</ele>
        <time>2014-10-30T08:06:16Z</time>
      </trkpt>
      <trkpt lat="45.16982" lon="5.41242">
        <ele>269.67</ele>
        <time>2014-10-30T08:06:26Z</time>
      </trkpt>
      <trkpt lat="45.16974" lon="5.41249">
        <ele>270.17</ele>
        <time>2014-10-30T08:06:36Z</time>
      </trkpt>
      <trkpt lat="45.1696" lon="5.41257">
        <ele>270.89</ele>
        <time>2014-10-30T08:06:46Z</time>
      </trkpt>
      <trkpt lat="45.16956" lon="5.41276">
        <ele>270.81</ele>
        <time>2014-10-30T08:06:56Z</time>
      </trkpt>
      <trkpt lat="45.16943" lon="5.41278">
        <ele>270.8</ele>
        <time>2014-10-30T08:07:06Z</time>
      </trkpt>
      <trkpt lat="45.16942" lon="5.41294">
        <ele>271.87</ele>
        <time>2014-10-30T08:07:16Z</time>
      </trkpt>
      <trkpt lat="45.1694" lon="5.41309">
        <ele>273.13</ele>
        <time>2014-10-30T08:07:26Z</time>
      </trkpt>
      <trkpt lat="45.16939" lon="5.41321">
        <ele>274.93</ele>
        <time>2014-10-30T08:07:36Z</time>
      </trkpt>
      <trkpt lat="45.16931" lon="5.41337">
        <ele>277.1</ele>
        <time>2014-10-30T08:07:46Z</time>
      </trkpt>
      <trkpt lat="45.1693" lon="5.41367">
        <ele>278.09</ele>
        <time>2014-10-30T08:07:56Z</time>
      </trkpt>
      <trkpt lat="45.1693" lon="5.4138">
        <ele>279.63</ele>
        <time>2014-10-30T08:08:06Z</time>
      </trkpt>
      <trkpt lat="45.16929" lon="5.41394">
        <ele>281.83</ele>
        <time>2014-10-30T08:08:16Z</time>
      </trkpt>
      <trkpt lat="45.16927" lon="5.41407">
        <ele>284.13</ele>
        <time>2014-10-30T08:08:26Z</time>
      </trkpt>
      <trkpt lat="45.16914" lon="5.41418">
        <ele>286.75</ele>
        <time>2014-10-30T08:08:36Z</time>
      </trkpt>
      <trkpt lat="45.16902" lon="5.41417">
        <ele>287.6</ele>
        <time>2014-10-30T08:08:46Z</time>
      </trkpt>
      <trkpt lat="45.16901" lon="5.41417">
        <ele>287.7</ele>
        <time>2014-10-30T08:08:56Z</time>
      </trkpt>
      <trkpt lat="45.1689" lon="5.4142">
        <ele>288.06</ele>
        <time>2014-10-30T08:09:06Z</time>
      </trkpt>
      <trkpt lat="45.16882" lon="5.41419">
        <ele>288.3</ele>
        <time>2014-10-30T08:09:16Z</time>
      </trkpt>
      <trkpt lat="45.16881" lon="5.41411">
        <ele>288.6</ele>
        <time>2014-10-30T08:09:26Z</time>
      </trkpt>
      <trkpt lat="45.16868" lon="5.41411">
        <ele>288.95</ele>
        <time>2014-10-30T08:09:36Z</time>
      </trkpt>
      <trkpt lat="45.16866" lon="5.41431">
        <ele>288.41</ele>
        <time>2014-10-30T08:09:46Z</time>
      </trkpt>
      <trkpt lat="45.16864" lon="5.41439">
        <ele>288.42</ele>
        <time>2014-10-30T08:09:56Z</time>
      </trkpt>
      <trkpt lat="45.1686" lon="5.41452">
        <ele>288.39</ele>
        <time>2014-10-30T08:10:06Z</time>
      </trkpt>
      <trkpt lat="45.16858" lon="5.4146">
        <ele>288.77</ele>
        <time>2014-10-30T08:10:16Z</time>
      </trkpt>
      <trkpt lat="45.16849" lon="5.41473">
        <ele>289.29</ele>
        <time>2014-10-30T08:10:26Z</time>
      </trkpt>
      <trkpt lat="45.1684" lon="5.41484">
        <ele>289.97</ele>
        <time>2014-10-30T08:10:36Z</time>
      </trkpt>
      <trkpt lat="45.16829" lon="5.41493">
        <ele>291.17</ele>
        <time>2014-10-30T08:10:46Z</time>
      </trkpt>
      <trkpt lat="45.16823" lon="5.41506">
        <ele>291.87</ele>
        <time>2014-10-30T08:10:56Z</time>
      </trkpt>
      <trkpt lat="45.16819" lon="5.41511">
        <ele>293.07</ele>
        <time>2014-10-30T08:11:06Z</time>
      </trkpt>
      <trkpt lat="45.16815" lon="5.41529">
        <ele>294.15</ele>
        <time>2014-10-30T08:11:16Z</time>
      </trkpt>
      <trkpt lat="45.16812" lon="5.41539">
        <ele>295.37</ele>
        <time>2014-10-30T08:11:26Z</time>
      </trkpt>
      <trkpt lat="45.16802" lon="5.41553">
        <ele>295.79</ele>
        <time>2014-10-30T08:11:36Z</time>
      </trkpt>
      <trkpt lat="45.16796" lon="5.41569">
        <ele>297.04</ele>
        <time>2014-10-30T08:11:46Z</time>
      </trkpt>
      <trkpt lat="45.16796" lon="5.4158">
        <ele>298.86</ele>
        <time>2014-10-30T08:11:56Z</time>
      </trkpt>
      <trkpt lat="45.1679" lon="5.41594">
        <ele>300.34</ele>
        <time>2014-10-30T08:12:06Z</time>
      </trkpt>
      <trkpt lat="45.16783" lon="5.41607">
        <ele>302.3</ele>
        <time>2014-10-30T08:12:16Z</time>
      </trkpt>
      <trkpt lat="45.16768" lon="5.41617">
        <ele>304.61</ele>
        <time>2014-10-30T08:12:26Z</time>
      </trkpt>
      <trkpt lat="45.16777" lon="5.41619">
        <ele>306.1</ele>
        <time>2014-10-30T08:12:36Z</time>
      </trkpt>
      <trkpt lat="45.16782" lon="5.41632">
        <ele>306.2</ele>
        <time>2014-10-30T08:12:46Z</time>
      </trkpt>
      <trkpt lat="45.1678" lon="5.41646">
        <ele>306.27</ele>
        <time>2014-10-30T08:12:56Z</time>
      </trkpt>
      <trkpt lat="45.1678" lon="5.41658">
        <ele>306.37</ele>
        <time>2014-10-30T08:13:06Z</time>
      </trkpt>
      <trkpt lat="45.16776" lon="5.4167">
        <ele>306.97</ele>
        <time>2014-10-30T08:13:16Z</time>
      </trkpt>
      <trkpt lat="45.16766" lon="5.41683">
        <ele>307.27</ele>
        <time>2014-10-30T08:13:26Z</time>
      </trkpt>
      <trkpt lat="45.1676" lon="5.41682">
        <ele>307.4</ele>
        <time>2014-10-30T08:13:36Z</time>
      </trkpt>
      <trkpt lat="45.16751" lon="5.41676">
        <ele>306.93</ele>
        <time>2014-10-30T08:13:46Z</time>
      </trkpt>
      <trkpt lat="45.1675" lon="5.41664">
        <ele>306.43</ele>
        <time>2014-10-30T08:13:56Z</time>
      </trkpt>
      <trkpt lat="45.16753" lon="5.41656">
        <ele>306.03</ele>
        <time>2014-10-30T08:14:06Z</time>
      </trkpt>
      <trkpt lat="45.16762" lon="5.41657">
        <ele>306.27</ele>
        <time>2014-10-30T08:14:16Z</time>
      </trkpt>
      <trkpt lat="45.16773" lon="5.41651">
        <ele>306.97</ele>
        <time>2014-10-30T08:14:26Z</time>
      </trkpt>
      <trkpt lat="45.16779" lon="5.41648">
        <ele>308.34</ele>
        <time>2014-10-30T08:14:36Z</time>
      </trkpt>
      <trkpt lat="45.16783" lon="5.4164">
        <ele>310.03</ele>
        <time>2014-10-30T08:14:46Z</time>
      </trkpt>
      <trkpt lat="45.16791" lon="5.41637">
        <ele>311.91</ele>
        <time>2014-10-30T08:14:56Z</time>
      </trkpt>
      <trkpt lat="45.16782" lon="5.4162">
        <ele>314.63</ele>
        <time>2014-10-30T08:15:06Z</time>
      </trkpt>
      <trkpt lat="45.16777" lon="5.41602">
        <ele>316.79</ele>
        <time>2014-10-30T08:15:16Z</time>
      </trkpt>
      <trkpt lat="45.16776" lon="5.4158">
        <ele>320.1</ele>
        <time>2014-10-30T08:15:26Z</time>
      </trkpt>
      <trkpt lat="45.16773" lon="5.41563">
        <ele>321.77</ele>
        <time>2014-10-30T08:15:36Z</time>
      </trkpt>
      <trkpt lat="45.16784" lon="5.41559">
        <ele>322.41</ele>
        <time>2014-10-30T08:15:46Z</time>
      </trkpt>
      <trkpt lat="45.16797" lon="5.41561">
        <ele>322</ele>
        <time>2014-10-30T08:15:56Z</time>
      </trkpt>
      <trkpt lat="45.16808" lon="5.4156">
        <ele>321.9</ele>
        <time>2014-10-30T08:16:06Z</time>
      </trkpt>
      <trkpt lat="45.16801" lon="5.41543">
        <ele>321.41</ele>
        <time>2014-10-30T08:16:16Z</time>
      </trkpt>
      <trkpt lat="45.16801" lon="5.41531">
        <ele>321.64</ele>
        <time>2014-10-30T08:16:26Z</time>
      </trkpt>
      <trkpt lat="45.16793" lon="5.41518">
        <ele>321.8</ele>
        <time>2014-10-30T08:16:36Z</time>
      </trkpt>
      <trkpt lat="45.1679" lon="5.41515">
        <ele>322.27</ele>
        <time>2014-10-30T08:16:46Z</time>
      </trkpt>
      <trkpt lat="45.16797" lon="5.41513">
        <ele>322.67</ele>
        <time>2014-10-30T08:16:56Z</time>
      </trkpt>
      <trkpt lat="45.16794" lon="5.41499">
        <ele>323.34</ele>
        <time>2014-10-30T08:17:06Z</time>
      </trkpt>
      <trkpt lat="45.16798" lon="5.41493">
        <ele>324.6</ele>
        <time>2014-10-30T08:17:16Z</time>
      </trkpt>
      <trkpt lat="45.16797" lon="5.4149">
        <ele>324.3</ele>
        <time>2014-10-30T08:17:26Z</time>
      </trkpt>
      <trkpt lat="45.16792" lon="5.41486">
        <ele>327.45</ele>
        <time>2014-10-30T08:17:36Z</time>
      </trkpt>
      <trkpt lat="45.16794" lon="5.41485">
        <ele>326.8</ele>
        <time>2014-10-30T08:17:46Z</time>
      </trkpt>
      <trkpt lat="45.16795" lon="5.41476">
        <ele>326.58</ele>
        <time>2014-10-30T08:17:56Z</time>
      </trkpt>
      <trkpt lat="45.1679" lon="5.41464">
        <ele>326.5</ele>
        <time>2014-10-30T08:18:06Z</time>
      </trkpt>
      <trkpt lat="45.16779" lon="5.4145">
        <ele>330.62</ele>
        <time>2014-10-30T08:18:16Z</time>
      </trkpt>
      <trkpt lat="45.16771" lon="5.41443">
        <ele>332.43</ele>
        <time>2014-10-30T08:18:26Z</time>
      </trkpt>
      <trkpt lat="45.16763" lon="5.41435">
        <ele>333.09</ele>
        <time>2014-10-30T08:18:36Z</time>
      </trkpt>
      <trkpt lat="45.16755" lon="5.41427">
        <ele>332.83</ele>
        <time>2014-10-30T08:18:46Z</time>
      </trkpt>
      <trkpt lat="45.16741" lon="5.4142">
        <ele>333</ele>
        <time>2014-10-30T08:18:56Z</time>
      </trkpt>
      <trkpt lat="45.16733" lon="5.41411">
        <ele>332.8</ele>
        <time>2014-10-30T08:19:06Z</time>
      </trkpt>
      <trkpt lat="45.1673" lon="5.41408">
        <ele>333.1</ele>
        <time>2014-10-30T08:19:16Z</time>
      </trkpt>
      <trkpt lat="45.16726" lon="5.414">
        <ele>334.08</ele>
        <time>2014-10-30T08:19:26Z</time>
      </trkpt>
      <trkpt lat="45.16723" lon="5.41392">
        <ele>334.3</ele>
        <time>2014-10-30T08:19:36Z</time>
      </trkpt>
      <trkpt lat="45.16715" lon="5.41389">
        <ele>334.94</ele>
        <time>2014-10-30T08:19:46Z</time>
      </trkpt>
      <trkpt lat="45.16705" lon="5.41381">
        <ele>336.12</ele>
        <time>2014-10-30T08:19:56Z</time>
      </trkpt>
      <trkpt lat="45.16701" lon="5.41373">
        <ele>336.3</ele>
        <time>2014-10-30T08:20:06Z</time>
      </trkpt>
      <trkpt lat="45.16696" lon="5.41365">
        <ele>337.2</ele>
        <time>2014-10-30T08:20:16Z</time>
      </trkpt>
      <trkpt lat="45.16695" lon="5.4136">
        <ele>337.89</ele>
        <time>2014-10-30T08:20:26Z</time>
      </trkpt>
      <trkpt lat="45.16692" lon="5.41357">
        <ele>337.9</ele>
        <time>2014-10-30T08:20:36Z</time>
      </trkpt>
      <trkpt lat="45.16706" lon="5.41363">
        <ele>338</ele>
        <time>2014-10-30T08:20:46Z</time>
      </trkpt>
      <trkpt lat="45.16699" lon="5.41364">
        <ele>337.81</ele>
        <time>2014-10-30T08:20:56Z</time>
      </trkpt>
      <trkpt lat="45.16688" lon="5.41363">
        <ele>337.43</ele>
        <time>2014-10-30T08:21:06Z</time>
      </trkpt>
      <trkpt lat="45.16685" lon="5.41361">
        <ele>337.3</ele>
        <time>2014-10-30T08:21:16Z</time>
      </trkpt>
      <trkpt lat="45.16682" lon="5.41359">
        <ele>335.71</ele>
        <time>2014-10-30T08:21:26Z</time>
      </trkpt>
      <trkpt lat="45.167" lon="5.41367">
        <ele>335.62</ele>
        <time>2014-10-30T08:21:36Z</time>
      </trkpt>
      <trkpt lat="45.167" lon="5.41368">
        <ele>336</ele>
        <time>2014-10-30T08:21:46Z</time>
      </trkpt>
      <trkpt lat="45.16691" lon="5.41365">
        <ele>336.3</ele>
        <time>2014-10-30T08:21:56Z</time>
      </trkpt>
      <trkpt lat="45.16679" lon="5.41363">
        <ele>338.06</ele>
        <time>2014-10-30T08:22:06Z</time>
      </trkpt>
      <trkpt lat="45.16664" lon="5.41352">
        <ele>338.47</ele>
        <time>2014-10-30T08:22:16Z</time>
      </trkpt>
      <trkpt lat="45.16667" lon="5.41352">
        <ele>337.12</ele>
        <time>2014-10-30T08:22:26Z</time>
      </trkpt>
      <trkpt lat="45.16673" lon="5.41349">
        <ele>336.41</ele>
        <time>2014-10-30T08:22:36Z</time>
      </trkpt>
      <trkpt lat="45.16683" lon="5.41359">
        <ele>336.1</ele>
        <time>2014-10-30T08:22:46Z</time>
      </trkpt>
      <trkpt lat="45.16682" lon="5.41357">
        <ele>336.27</ele>
        <time>2014-10-30T08:22:56Z</time>
      </trkpt>
      <trkpt lat="45.16681" lon="5.4135">
        <ele>337.73</ele>
        <time>2014-10-30T08:23:06Z</time>
      </trkpt>
      <trkpt lat="45.16679" lon="5.41339">
        <ele>338.79</ele>
        <time>2014-10-30T08:23:16Z</time>
      </trkpt>
      <trkpt lat="45.1667" lon="5.41338">
        <ele>339.47</ele>
        <time>2014-10-30T08:23:26Z</time>
      </trkpt>
      <trkpt lat="45.16667" lon="5.41331">
        <ele>340.29</ele>
        <time>2014-10-30T08:23:36Z</time>
      </trkpt>
      <trkpt lat="45.16654" lon="5.41326">
        <ele>341.37</ele>
        <time>2014-10-30T08:23:46Z</time>
      </trkpt>
      <trkpt lat="45.1665" lon="5.41319">
        <ele>342.32</ele>
        <time>2014-10-30T08:23:56Z</time>
      </trkpt>
      <trkpt lat="45.1665" lon="5.41315">
        <ele>343.55</ele>
        <time>2014-10-30T08:24:06Z</time>
      </trkpt>
      <trkpt lat="45.16645" lon="5.41305">
        <ele>344.07</ele>
        <time>2014-10-30T08:24:18Z</time>
      </trkpt>
      <trkpt lat="45.1663" lon="5.41304">
        <ele>346.21</ele>
        <time>2014-10-30T08:24:28Z</time>
      </trkpt>
      <trkpt lat="45.16624" lon="5.41306">
        <ele>347.59</ele>
        <time>2014-10-30T08:24:38Z</time>
      </trkpt>
      <trkpt lat="45.16614" lon="5.41302">
        <ele>348.76</ele>
        <time>2014-10-30T08:24:48Z</time>
      </trkpt>
      <trkpt lat="45.16604" lon="5.41292">
        <ele>349.97</ele>
        <time>2014-10-30T08:24:58Z</time>
      </trkpt>
      <trkpt lat="45.16599" lon="5.41285">
        <ele>351.02</ele>
        <time>2014-10-30T08:25:08Z</time>
      </trkpt>
      <trkpt lat="45.16588" lon="5.41273">
        <ele>352.16</ele>
        <time>2014-10-30T08:25:18Z</time>
      </trkpt>
      <trkpt lat="45.16581" lon="5.41262">
        <ele>353.15</ele>
        <time>2014-10-30T08:25:28Z</time>
      </trkpt>
      <trkpt lat="45.16586" lon="5.41251">
        <ele>356.91</ele>
        <time>2014-10-30T08:25:38Z</time>
      </trkpt>
      <trkpt lat="45.16599" lon="5.41248">
        <ele>358.07</ele>
        <time>2014-10-30T08:25:48Z</time>
      </trkpt>
      <trkpt lat="45.1659" lon="5.41244">
        <ele>359.57</ele>
        <time>2014-10-30T08:25:58Z</time>
      </trkpt>
      <trkpt lat="45.16587" lon="5.41237">
        <ele>361.37</ele>
        <time>2014-10-30T08:26:08Z</time>
      </trkpt>
      <trkpt lat="45.16579" lon="5.41233">
        <ele>363.12</ele>
        <time>2014-10-30T08:26:23Z</time>
      </trkpt>
      <trkpt lat="45.16581" lon="5.41232">
        <ele>366.07</ele>
        <time>2014-10-30T08:26:33Z</time>
      </trkpt>
      <trkpt lat="45.16576" lon="5.41231">
        <ele>367.41</ele>
        <time>2014-10-30T08:26:43Z</time>
      </trkpt>
      <trkpt lat="45.16573" lon="5.4123">
        <ele>367.89</ele>
        <time>2014-10-30T08:26:53Z</time>
      </trkpt>
      <trkpt lat="45.16576" lon="5.41236">
        <ele>368.9</ele>
        <time>2014-10-30T08:27:03Z</time>
      </trkpt>
      <trkpt lat="45.16578" lon="5.41229">
        <ele>369.99</ele>
        <time>2014-10-30T08:27:13Z</time>
      </trkpt>
      <trkpt lat="45.16571" lon="5.41224">
        <ele>370.77</ele>
        <time>2014-10-30T08:27:23Z</time>
      </trkpt>
      <trkpt lat="45.1657" lon="5.41224">
        <ele>372.95</ele>
        <time>2014-10-30T08:27:33Z</time>
      </trkpt>
      <trkpt lat="45.16569" lon="5.41227">
        <ele>374.55</ele>
        <time>2014-10-30T08:27:43Z</time>
      </trkpt>
      <trkpt lat="45.16567" lon="5.41228">
        <ele>375.14</ele>
        <time>2014-10-30T08:28:00Z</time>
      </trkpt>
      <trkpt lat="45.16575" lon="5.41224">
        <ele>375.59</ele>
        <time>2014-10-30T08:28:10Z</time>
      </trkpt>
      <trkpt lat="45.16578" lon="5.41222">
        <ele>376.56</ele>
        <time>2014-10-30T08:28:20Z</time>
      </trkpt>
      <trkpt lat="45.1657" lon="5.41215">
        <ele>378.16</ele>
        <time>2014-10-30T08:28:30Z</time>
      </trkpt>
      <trkpt lat="45.16554" lon="5.41203">
        <ele>379.89</ele>
        <time>2014-10-30T08:28:40Z</time>
      </trkpt>
      <trkpt lat="45.16552" lon="5.41196">
        <ele>382.52</ele>
        <time>2014-10-30T08:28:50Z</time>
      </trkpt>
      <trkpt lat="45.16551" lon="5.41185">
        <ele>385.68</ele>
        <time>2014-10-30T08:29:00Z</time>
      </trkpt>
      <trkpt lat="45.16553" lon="5.41183">
        <ele>388.18</ele>
        <time>2014-10-30T08:29:10Z</time>
      </trkpt>
      <trkpt lat="45.16555" lon="5.41181">
        <ele>391.19</ele>
        <time>2014-10-30T08:29:20Z</time>
      </trkpt>
      <trkpt lat="45.1656" lon="5.41178">
        <ele>393.06</ele>
        <time>2014-10-30T08:29:30Z</time>
      </trkpt>
      <trkpt lat="45.16556" lon="5.41175">
        <ele>394.44</ele>
        <time>2014-10-30T08:29:40Z</time>
      </trkpt>
      <trkpt lat="45.16551" lon="5.41171">
        <ele>396.55</ele>
        <time>2014-10-30T08:29:50Z</time>
      </trkpt>
      <trkpt lat="45.16551" lon="5.41166">
        <ele>398.14</ele>
        <time>2014-10-30T08:30:00Z</time>
      </trkpt>
      <trkpt lat="45.16541" lon="5.41155">
        <ele>400.46</ele>
        <time>2014-10-30T08:30:10Z</time>
      </trkpt>
      <trkpt lat="45.16537" lon="5.41149">
        <ele>403.48</ele>
        <time>2014-10-30T08:30:20Z</time>
      </trkpt>
      <trkpt lat="45.16532" lon="5.41145">
        <ele>406.03</ele>
        <time>2014-10-30T08:30:30Z</time>
      </trkpt>
      <trkpt lat="45.16534" lon="5.41138">
        <ele>408.71</ele>
        <time>2014-10-30T08:30:40Z</time>
      </trkpt>
      <trkpt lat="45.16527" lon="5.41131">
        <ele>410.53</ele>
        <time>2014-10-30T08:30:50Z</time>
      </trkpt>
      <trkpt lat="45.16532" lon="5.41131">
        <ele>412.26</ele>
        <time>2014-10-30T08:31:00Z</time>
      </trkpt>
      <trkpt lat="45.16532" lon="5.41126">
        <ele>413.25</ele>
        <time>2014-10-30T08:31:10Z</time>
      </trkpt>
      <trkpt lat="45.16514" lon="5.41115">
        <ele>413.79</ele>
        <time>2014-10-30T08:31:20Z</time>
      </trkpt>
      <trkpt lat="45.16509" lon="5.41117">
        <ele>415.25</ele>
        <time>2014-10-30T08:31:30Z</time>
      </trkpt>
      <trkpt lat="45.16498" lon="5.41114">
        <ele>416.19</ele>
        <time>2014-10-30T08:31:40Z</time>
      </trkpt>
      <trkpt lat="45.16494" lon="5.41128">
        <ele>417.51</ele>
        <time>2014-10-30T08:31:50Z</time>
      </trkpt>
      <trkpt lat="45.16495" lon="5.41139">
        <ele>418.97</ele>
        <time>2014-10-30T08:32:00Z</time>
      </trkpt>
      <trkpt lat="45.16503" lon="5.41151">
        <ele>419.67</ele>
        <time>2014-10-30T08:32:10Z</time>
      </trkpt>
      <trkpt lat="45.16505" lon="5.41158">
        <ele>420.54</ele>
        <time>2014-10-30T08:32:20Z</time>
      </trkpt>
      <trkpt lat="45.16501" lon="5.4116">
        <ele>422.26</ele>
        <time>2014-10-30T08:32:30Z</time>
      </trkpt>
      <trkpt lat="45.16503" lon="5.41165">
        <ele>423.52</ele>
        <time>2014-10-30T08:32:40Z</time>
      </trkpt>
      <trkpt lat="45.16515" lon="5.41175">
        <ele>425.99</ele>
        <time>2014-10-30T08:32:50Z</time>
      </trkpt>
      <trkpt lat="45.16509" lon="5.41181">
        <ele>426.89</ele>
        <time>2014-10-30T08:33:00Z</time>
      </trkpt>
      <trkpt lat="45.16505" lon="5.41186">
        <ele>427.45</ele>
        <time>2014-10-30T08:33:10Z</time>
      </trkpt>
      <trkpt lat="45.16507" lon="5.41188">
        <ele>430.18</ele>
        <time>2014-10-30T08:33:20Z</time>
      </trkpt>
      <trkpt lat="45.16506" lon="5.41187">
        <ele>431.1</ele>
        <time>2014-10-30T08:33:30Z</time>
      </trkpt>
      <trkpt lat="45.16503" lon="5.41181">
        <ele>432.24</ele>
        <time>2014-10-30T08:33:40Z</time>
      </trkpt>
      <trkpt lat="45.16493" lon="5.41176">
        <ele>433.97</ele>
        <time>2014-10-30T08:33:50Z</time>
      </trkpt>
      <trkpt lat="45.16482" lon="5.4117">
        <ele>434.5</ele>
        <time>2014-10-30T08:34:00Z</time>
      </trkpt>
      <trkpt lat="45.16482" lon="5.41172">
        <ele>435.22</ele>
        <time>2014-10-30T08:34:10Z</time>
      </trkpt>
      <trkpt lat="45.16474" lon="5.4117">
        <ele>435.33</ele>
        <time>2014-10-30T08:34:20Z</time>
      </trkpt>
      <trkpt lat="45.16462" lon="5.41163">
        <ele>435.07</ele>
        <time>2014-10-30T08:34:30Z</time>
      </trkpt>
      <trkpt lat="45.16467" lon="5.4116">
        <ele>435.37</ele>
        <time>2014-10-30T08:34:40Z</time>
      </trkpt>
      <trkpt lat="45.16458" lon="5.41157">
        <ele>435.67</ele>
        <time>2014-10-30T08:34:50Z</time>
      </trkpt>
      <trkpt lat="45.16457" lon="5.41156">
        <ele>435.9</ele>
        <time>2014-10-30T08:35:00Z</time>
      </trkpt>
      <trkpt lat="45.16459" lon="5.41159">
        <ele>437.65</ele>
        <time>2014-10-30T08:35:10Z</time>
      </trkpt>
      <trkpt lat="45.16458" lon="5.41154">
        <ele>439.79</ele>
        <time>2014-10-30T08:35:20Z</time>
      </trkpt>
      <trkpt lat="45.16464" lon="5.41157">
        <ele>441.8</ele>
        <time>2014-10-30T08:35:30Z</time>
      </trkpt>
      <trkpt lat="45.16458" lon="5.41155">
        <ele>442.3</ele>
        <time>2014-10-30T08:35:40Z</time>
      </trkpt>
      <trkpt lat="45.16461" lon="5.41155">
        <ele>442.6</ele>
        <time>2014-10-30T08:35:53Z</time>
      </trkpt>
      <trkpt lat="45.1647" lon="5.4116">
        <ele>443.17</ele>
        <time>2014-10-30T08:36:03Z</time>
      </trkpt>
      <trkpt lat="45.16454" lon="5.41158">
        <ele>443.84</ele>
        <time>2014-10-30T08:36:13Z</time>
      </trkpt>
      <trkpt lat="45.16428" lon="5.41156">
        <ele>444.79</ele>
        <time>2014-10-30T08:36:25Z</time>
      </trkpt>
      <trkpt lat="45.16445" lon="5.41158">
        <ele>445.46</ele>
        <time>2014-10-30T08:36:35Z</time>
      </trkpt>
      <trkpt lat="45.16454" lon="5.41156">
        <ele>446.6</ele>
        <time>2014-10-30T08:36:45Z</time>
      </trkpt>
      <trkpt lat="45.16466" lon="5.41154">
        <ele>449.37</ele>
        <time>2014-10-30T08:36:55Z</time>
      </trkpt>
      <trkpt lat="45.16439" lon="5.41146">
        <ele>451.51</ele>
        <time>2014-10-30T08:37:05Z</time>
      </trkpt>
      <trkpt lat="45.16434" lon="5.41142">
        <ele>452</ele>
        <time>2014-10-30T08:37:15Z</time>
      </trkpt>
      <trkpt lat="45.16431" lon="5.41139">
        <ele>452.6</ele>
        <time>2014-10-30T08:37:25Z</time>
      </trkpt>
      <trkpt lat="45.16437" lon="5.41142">
        <ele>453.05</ele>
        <time>2014-10-30T08:37:35Z</time>
      </trkpt>
      <trkpt lat="45.16446" lon="5.41148">
        <ele>453.7</ele>
        <time>2014-10-30T08:37:45Z</time>
      </trkpt>
      <trkpt lat="45.16453" lon="5.41148">
        <ele>454.37</ele>
        <time>2014-10-30T08:37:57Z</time>
      </trkpt>
      <trkpt lat="45.16448" lon="5.41142">
        <ele>454.67</ele>
        <time>2014-10-30T08:38:07Z</time>
      </trkpt>
      <trkpt lat="45.16448" lon="5.41145">
        <ele>454.8</ele>
        <time>2014-10-30T08:38:17Z</time>
      </trkpt>
      <trkpt lat="45.16447" lon="5.41148">
        <ele>455.32</ele>
        <time>2014-10-30T08:38:30Z</time>
      </trkpt>
      <trkpt lat="45.16439" lon="5.41146">
        <ele>456.74</ele>
        <time>2014-10-30T08:38:40Z</time>
      </trkpt>
      <trkpt lat="45.16452" lon="5.41145">
        <ele>458.4</ele>
        <time>2014-10-30T08:38:50Z</time>
      </trkpt>
      <trkpt lat="45.16451" lon="5.41144">
        <ele>459.08</ele>
        <time>2014-10-30T08:39:00Z</time>
      </trkpt>
      <trkpt lat="45.16441" lon="5.41135">
        <ele>458.83</ele>
        <time>2014-10-30T08:39:10Z</time>
      </trkpt>
      <trkpt lat="45.16436" lon="5.41131">
        <ele>457.83</ele>
        <time>2014-10-30T08:39:20Z</time>
      </trkpt>
      <trkpt lat="45.16425" lon="5.41121">
        <ele>456.27</ele>
        <time>2014-10-30T08:39:30Z</time>
      </trkpt>
      <trkpt lat="45.16418" lon="5.41118">
        <ele>454.37</ele>
        <time>2014-10-30T08:39:40Z</time>
      </trkpt>
      <trkpt lat="45.16415" lon="5.41118">
        <ele>453.02</ele>
        <time>2014-10-30T08:39:50Z</time>
      </trkpt>
      <trkpt lat="45.16408" lon="5.4111">
        <ele>451.74</ele>
        <time>2014-10-30T08:40:00Z</time>
      </trkpt>
      <trkpt lat="45.16399" lon="5.41102">
        <ele>452.41</ele>
        <time>2014-10-30T08:40:10Z</time>
      </trkpt>
      <trkpt lat="45.16394" lon="5.41098">
        <ele>452.37</ele>
        <time>2014-10-30T08:40:20Z</time>
      </trkpt>
      <trkpt lat="45.16385" lon="5.41089">
        <ele>453.97</ele>
        <time>2014-10-30T08:40:30Z</time>
      </trkpt>
      <trkpt lat="45.16371" lon="5.41081">
        <ele>455.14</ele>
        <time>2014-10-30T08:40:40Z</time>
      </trkpt>
      <trkpt lat="45.16378" lon="5.41084">
        <ele>457.01</ele>
        <time>2014-10-30T08:40:50Z</time>
      </trkpt>
      <trkpt lat="45.16378" lon="5.41092">
        <ele>458.44</ele>
        <time>2014-10-30T08:41:00Z</time>
      </trkpt>
      <trkpt lat="45.16381" lon="5.41099">
        <ele>459.8</ele>
        <time>2014-10-30T08:41:10Z</time>
      </trkpt>
      <trkpt lat="45.16375" lon="5.41102">
        <ele>461.39</ele>
        <time>2014-10-30T08:41:20Z</time>
      </trkpt>
      <trkpt lat="45.16365" lon="5.41106">
        <ele>462.39</ele>
        <time>2014-10-30T08:41:30Z</time>
      </trkpt>
      <trkpt lat="45.16378" lon="5.41118">
        <ele>463.09</ele>
        <time>2014-10-30T08:41:40Z</time>
      </trkpt>
      <trkpt lat="45.16381" lon="5.41121">
        <ele>464.27</ele>
        <time>2014-10-30T08:41:50Z</time>
      </trkpt>
      <trkpt lat="45.16386" lon="5.41131">
        <ele>465.6</ele>
        <time>2014-10-30T08:42:00Z</time>
      </trkpt>
      <trkpt lat="45.16388" lon="5.41138">
        <ele>467.38</ele>
        <time>2014-10-30T08:42:10Z</time>
      </trkpt>
      <trkpt lat="45.16401" lon="5.41146">
        <ele>468.49</ele>
        <time>2014-10-30T08:42:20Z</time>
      </trkpt>
      <trkpt lat="45.16402" lon="5.4115">
        <ele>469.4</ele>
        <time>2014-10-30T08:42:30Z</time>
      </trkpt>
      <trkpt lat="45.16387" lon="5.41145">
        <ele>470.92</ele>
        <time>2014-10-30T08:42:40Z</time>
      </trkpt>
      <trkpt lat="45.16382" lon="5.41145">
        <ele>472.8</ele>
        <time>2014-10-30T08:42:50Z</time>
      </trkpt>
      <trkpt lat="45.16379" lon="5.41143">
        <ele>474.98</ele>
        <time>2014-10-30T08:43:00Z</time>
      </trkpt>
      <trkpt lat="45.16368" lon="5.41141">
        <ele>476.5</ele>
        <time>2014-10-30T08:43:10Z</time>
      </trkpt>
      <trkpt lat="45.16358" lon="5.41134">
        <ele>478.55</ele>
        <time>2014-10-30T08:43:20Z</time>
      </trkpt>
      <trkpt lat="45.16359" lon="5.41135">
        <ele>479.6</ele>
        <time>2014-10-30T08:43:30Z</time>
      </trkpt>
      <trkpt lat="45.1635" lon="5.41136">
        <ele>481.53</ele>
        <time>2014-10-30T08:43:40Z</time>
      </trkpt>
      <trkpt lat="45.16352" lon="5.41136">
        <ele>482</ele>
        <time>2014-10-30T08:43:50Z</time>
      </trkpt>
      <trkpt lat="45.16358" lon="5.41143">
        <ele>483.2</ele>
        <time>2014-10-30T08:44:03Z</time>
      </trkpt>
      <trkpt lat="45.16357" lon="5.41142">
        <ele>483.8</ele>
        <time>2014-10-30T08:44:13Z</time>
      </trkpt>
      <trkpt lat="45.16358" lon="5.41145">
        <ele>484.55</ele>
        <time>2014-10-30T08:44:23Z</time>
      </trkpt>
      <trkpt lat="45.16362" lon="5.41146">
        <ele>485.32</ele>
        <time>2014-10-30T08:44:33Z</time>
      </trkpt>
      <trkpt lat="45.1637" lon="5.41147">
        <ele>486.76</ele>
        <time>2014-10-30T08:44:43Z</time>
      </trkpt>
      <trkpt lat="45.16359" lon="5.41144">
        <ele>488.17</ele>
        <time>2014-10-30T08:44:53Z</time>
      </trkpt>
      <trkpt lat="45.1636" lon="5.41145">
        <ele>488.3</ele>
        <time>2014-10-30T08:45:03Z</time>
      </trkpt>
      <trkpt lat="45.1636" lon="5.41147">
        <ele>489.1</ele>
        <time>2014-10-30T08:45:13Z</time>
      </trkpt>
      <trkpt lat="45.1636" lon="5.41142">
        <ele>489.41</ele>
        <time>2014-10-30T08:45:23Z</time>
      </trkpt>
      <trkpt lat="45.16363" lon="5.41144">
        <ele>490.95</ele>
        <time>2014-10-30T08:45:40Z</time>
      </trkpt>
      <trkpt lat="45.16357" lon="5.4114">
        <ele>491.6</ele>
        <time>2014-10-30T08:45:50Z</time>
      </trkpt>
      <trkpt lat="45.16357" lon="5.41143">
        <ele>491.6</ele>
        <time>2014-10-30T08:46:00Z</time>
      </trkpt>
      <trkpt lat="45.16365" lon="5.41157">
        <ele>491.87</ele>
        <time>2014-10-30T08:46:10Z</time>
      </trkpt>
      <trkpt lat="45.16363" lon="5.41157">
        <ele>492.1</ele>
        <time>2014-10-30T08:46:20Z</time>
      </trkpt>
      <trkpt lat="45.16365" lon="5.41166">
        <ele>492.2</ele>
        <time>2014-10-30T08:46:30Z</time>
      </trkpt>
      <trkpt lat="45.16366" lon="5.41174">
        <ele>492.2</ele>
        <time>2014-10-30T08:46:40Z</time>
      </trkpt>
      <trkpt lat="45.16361" lon="5.41176">
        <ele>492.2</ele>
        <time>2014-10-30T08:46:50Z</time>
      </trkpt>
      <trkpt lat="45.16368" lon="5.41186">
        <ele>492.09</ele>
        <time>2014-10-30T08:47:00Z</time>
      </trkpt>
      <trkpt lat="45.16374" lon="5.41195">
        <ele>492.5</ele>
        <time>2014-10-30T08:47:10Z</time>
      </trkpt>
      <trkpt lat="45.16379" lon="5.41201">
        <ele>492.13</ele>
        <time>2014-10-30T08:47:20Z</time>
      </trkpt>
      <trkpt lat="45.16384" lon="5.41212">
        <ele>492.69</ele>
        <time>2014-10-30T08:47:30Z</time>
      </trkpt>
      <trkpt lat="45.16375" lon="5.41211">
        <ele>493.66</ele>
        <time>2014-10-30T08:47:40Z</time>
      </trkpt>
      <trkpt lat="45.16374" lon="5.41215">
        <ele>494.2</ele>
        <time>2014-10-30T08:47:50Z</time>
      </trkpt>
      <trkpt lat="45.16377" lon="5.41227">
        <ele>495.81</ele>
        <time>2014-10-30T08:48:00Z</time>
      </trkpt>
      <trkpt lat="45.16381" lon="5.41237">
        <ele>497.16</ele>
        <time>2014-10-30T08:48:10Z</time>
      </trkpt>
      <trkpt lat="45.16389" lon="5.41246">
        <ele>498.16</ele>
        <time>2014-10-30T08:48:20Z</time>
      </trkpt>
      <trkpt lat="45.16386" lon="5.41256">
        <ele>499.93</ele>
        <time>2014-10-30T08:48:30Z</time>
      </trkpt>
      <trkpt lat="45.16378" lon="5.41264">
        <ele>502.41</ele>
        <time>2014-10-30T08:48:40Z</time>
      </trkpt>
      <trkpt lat="45.16358" lon="5.41262">
        <ele>504.14</ele>
        <time>2014-10-30T08:48:50Z</time>
      </trkpt>
      <trkpt lat="45.16346" lon="5.4126">
        <ele>505.17</ele>
        <time>2014-10-30T08:49:00Z</time>
      </trkpt>
      <trkpt lat="45.16343" lon="5.41265">
        <ele>506.36</ele>
        <time>2014-10-30T08:49:10Z</time>
      </trkpt>
      <trkpt lat="45.16337" lon="5.4127">
        <ele>507.16</ele>
        <time>2014-10-30T08:49:20Z</time>
      </trkpt>
      <trkpt lat="45.16332" lon="5.41282">
        <ele>508.56</ele>
        <time>2014-10-30T08:49:30Z</time>
      </trkpt>
      <trkpt lat="45.16338" lon="5.4129">
        <ele>510.23</ele>
        <time>2014-10-30T08:49:40Z</time>
      </trkpt>
      <trkpt lat="45.16335" lon="5.41298">
        <ele>511.86</ele>
        <time>2014-10-30T08:49:50Z</time>
      </trkpt>
      <trkpt lat="45.16313" lon="5.4129">
        <ele>513.86</ele>
        <time>2014-10-30T08:50:00Z</time>
      </trkpt>
      <trkpt lat="45.16302" lon="5.41288">
        <ele>515.85</ele>
        <time>2014-10-30T08:50:10Z</time>
      </trkpt>
      <trkpt lat="45.16306" lon="5.41296">
        <ele>517.59</ele>
        <time>2014-10-30T08:50:20Z</time>
      </trkpt>
      <trkpt lat="45.16311" lon="5.413">
        <ele>518.87</ele>
        <time>2014-10-30T08:50:30Z</time>
      </trkpt>
      <trkpt lat="45.16316" lon="5.41297">
        <ele>519.87</ele>
        <time>2014-10-30T08:50:40Z</time>
      </trkpt>
      <trkpt lat="45.16312" lon="5.41285">
        <ele>520.87</ele>
        <time>2014-10-30T08:50:50Z</time>
      </trkpt>
      <trkpt lat="45.16312" lon="5.41279">
        <ele>521.97</ele>
        <time>2014-10-30T08:51:00Z</time>
      </trkpt>
      <trkpt lat="45.16307" lon="5.41264">
        <ele>523.12</ele>
        <time>2014-10-30T08:51:10Z</time>
      </trkpt>
      <trkpt lat="45.16309" lon="5.41258">
        <ele>523.3</ele>
        <time>2014-10-30T08:51:20Z</time>
      </trkpt>
      <trkpt lat="45.16304" lon="5.41247">
        <ele>523.6</ele>
        <time>2014-10-30T08:51:30Z</time>
      </trkpt>
      <trkpt lat="45.16299" lon="5.41234">
        <ele>524.99</ele>
        <time>2014-10-30T08:51:40Z</time>
      </trkpt>
      <trkpt lat="45.16291" lon="5.41219">
        <ele>525.89</ele>
        <time>2014-10-30T08:51:50Z</time>
      </trkpt>
      <trkpt lat="45.16291" lon="5.4121">
        <ele>526.16</ele>
        <time>2014-10-30T08:52:00Z</time>
      </trkpt>
      <trkpt lat="45.16281" lon="5.4119">
        <ele>527.49</ele>
        <time>2014-10-30T08:52:10Z</time>
      </trkpt>
      <trkpt lat="45.16282" lon="5.41187">
        <ele>528.15</ele>
        <time>2014-10-30T08:52:20Z</time>
      </trkpt>
      <trkpt lat="45.16291" lon="5.41186">
        <ele>529.9</ele>
        <time>2014-10-30T08:52:30Z</time>
      </trkpt>
      <trkpt lat="45.16283" lon="5.41182">
        <ele>532.35</ele>
        <time>2014-10-30T08:52:40Z</time>
      </trkpt>
      <trkpt lat="45.16281" lon="5.41187">
        <ele>533.77</ele>
        <time>2014-10-30T08:52:50Z</time>
      </trkpt>
      <trkpt lat="45.16281" lon="5.41195">
        <ele>534.76</ele>
        <time>2014-10-30T08:53:00Z</time>
      </trkpt>
      <trkpt lat="45.16282" lon="5.41208">
        <ele>535.67</ele>
        <time>2014-10-30T08:53:10Z</time>
      </trkpt>
      <trkpt lat="45.16276" lon="5.41219">
        <ele>536.39</ele>
        <time>2014-10-30T08:53:20Z</time>
      </trkpt>
      <trkpt lat="45.16273" lon="5.41229">
        <ele>536.99</ele>
        <time>2014-10-30T08:53:30Z</time>
      </trkpt>
      <trkpt lat="45.16266" lon="5.4124">
        <ele>538.07</ele>
        <time>2014-10-30T08:53:40Z</time>
      </trkpt>
      <trkpt lat="45.1626" lon="5.41244">
        <ele>538.59</ele>
        <time>2014-10-30T08:53:50Z</time>
      </trkpt>
      <trkpt lat="45.16256" lon="5.41252">
        <ele>539.76</ele>
        <time>2014-10-30T08:54:00Z</time>
      </trkpt>
      <trkpt lat="45.16253" lon="5.41263">
        <ele>540.66</ele>
        <time>2014-10-30T08:54:10Z</time>
      </trkpt>
      <trkpt lat="45.16251" lon="5.41274">
        <ele>542.03</ele>
        <time>2014-10-30T08:54:20Z</time>
      </trkpt>
      <trkpt lat="45.16244" lon="5.41287">
        <ele>544.98</ele>
        <time>2014-10-30T08:54:30Z</time>
      </trkpt>
      <trkpt lat="45.16243" lon="5.41299">
        <ele>547.14</ele>
        <time>2014-10-30T08:54:40Z</time>
      </trkpt>
      <trkpt lat="45.16243" lon="5.4131">
        <ele>548.17</ele>
        <time>2014-10-30T08:54:50Z</time>
      </trkpt>
      <trkpt lat="45.16237" lon="5.41318">
        <ele>549.76</ele>
        <time>2014-10-30T08:55:00Z</time>
      </trkpt>
      <trkpt lat="45.16232" lon="5.41325">
        <ele>550.99</ele>
        <time>2014-10-30T08:55:10Z</time>
      </trkpt>
      <trkpt lat="45.16222" lon="5.41331">
        <ele>552.36</ele>
        <time>2014-10-30T08:55:20Z</time>
      </trkpt>
      <trkpt lat="45.16226" lon="5.41338">
        <ele>553.47</ele>
        <time>2014-10-30T08:55:30Z</time>
      </trkpt>
      <trkpt lat="45.16227" lon="5.41348">
        <ele>554.64</ele>
        <time>2014-10-30T08:55:40Z</time>
      </trkpt>
      <trkpt lat="45.16219" lon="5.4135">
        <ele>556.63</ele>
        <time>2014-10-30T08:55:50Z</time>
      </trkpt>
      <trkpt lat="45.16211" lon="5.41353">
        <ele>558.26</ele>
        <time>2014-10-30T08:56:00Z</time>
      </trkpt>
      <trkpt lat="45.16204" lon="5.41354">
        <ele>559.66</ele>
        <time>2014-10-30T08:56:10Z</time>
      </trkpt>
      <trkpt lat="45.16205" lon="5.41359">
        <ele>560.79</ele>
        <time>2014-10-30T08:56:20Z</time>
      </trkpt>
      <trkpt lat="45.16201" lon="5.41362">
        <ele>561.57</ele>
        <time>2014-10-30T08:56:30Z</time>
      </trkpt>
      <trkpt lat="45.16195" lon="5.41366">
        <ele>563.63</ele>
        <time>2014-10-30T08:56:40Z</time>
      </trkpt>
      <trkpt lat="45.16191" lon="5.41368">
        <ele>566.13</ele>
        <time>2014-10-30T08:56:50Z</time>
      </trkpt>
      <trkpt lat="45.16189" lon="5.41367">
        <ele>567.26</ele>
        <time>2014-10-30T08:57:00Z</time>
      </trkpt>
      <trkpt lat="45.16188" lon="5.41368">
        <ele>567.59</ele>
        <time>2014-10-30T08:57:10Z</time>
      </trkpt>
      <trkpt lat="45.16183" lon="5.41373">
        <ele>568.34</ele>
        <time>2014-10-30T08:57:20Z</time>
      </trkpt>
      <trkpt lat="45.16168" lon="5.41379">
        <ele>569.1</ele>
        <time>2014-10-30T08:57:30Z</time>
      </trkpt>
      <trkpt lat="45.16131" lon="5.41369">
        <ele>570.87</ele>
        <time>2014-10-30T08:57:40Z</time>
      </trkpt>
      <trkpt lat="45.16129" lon="5.41367">
        <ele>571.8</ele>
        <time>2014-10-30T08:57:50Z</time>
      </trkpt>
      <trkpt lat="45.16137" lon="5.41372">
        <ele>572.79</ele>
        <time>2014-10-30T08:58:00Z</time>
      </trkpt>
      <trkpt lat="45.16134" lon="5.41367">
        <ele>573.08</ele>
        <time>2014-10-30T08:58:10Z</time>
      </trkpt>
      <trkpt lat="45.16132" lon="5.41361">
        <ele>572.93</ele>
        <time>2014-10-30T08:58:20Z</time>
      </trkpt>
      <trkpt lat="45.16127" lon="5.4135">
        <ele>573.72</ele>
        <time>2014-10-30T08:58:30Z</time>
      </trkpt>
      <trkpt lat="45.16133" lon="5.4134">
        <ele>574.27</ele>
        <time>2014-10-30T08:58:40Z</time>
      </trkpt>
      <trkpt lat="45.1612" lon="5.41327">
        <ele>574.18</ele>
        <time>2014-10-30T08:58:50Z</time>
      </trkpt>
      <trkpt lat="45.16116" lon="5.41315">
        <ele>575.35</ele>
        <time>2014-10-30T08:59:00Z</time>
      </trkpt>
      <trkpt lat="45.16108" lon="5.41302">
        <ele>576.48</ele>
        <time>2014-10-30T08:59:10Z</time>
      </trkpt>
      <trkpt lat="45.16097" lon="5.41292">
        <ele>577.46</ele>
        <time>2014-10-30T08:59:20Z</time>
      </trkpt>
      <trkpt lat="45.1609" lon="5.41283">
        <ele>578.28</ele>
        <time>2014-10-30T08:59:30Z</time>
      </trkpt>
      <trkpt lat="45.16082" lon="5.41269">
        <ele>579.24</ele>
        <time>2014-10-30T08:59:40Z</time>
      </trkpt>
      <trkpt lat="45.16075" lon="5.41249">
        <ele>580.75</ele>
        <time>2014-10-30T08:59:50Z</time>
      </trkpt>
      <trkpt lat="45.1607" lon="5.41232">
        <ele>581.87</ele>
        <time>2014-10-30T09:00:00Z</time>
      </trkpt>
      <trkpt lat="45.16067" lon="5.41219">
        <ele>582.67</ele>
        <time>2014-10-30T09:00:10Z</time>
      </trkpt>
      <trkpt lat="45.16064" lon="5.41204">
        <ele>582.7</ele>
        <time>2014-10-30T09:00:20Z</time>
      </trkpt>
      <trkpt lat="45.16065" lon="5.41188">
        <ele>581.73</ele>
        <time>2014-10-30T09:00:30Z</time>
      </trkpt>
      <trkpt lat="45.16072" lon="5.41172">
        <ele>581.27</ele>
        <time>2014-10-30T09:00:40Z</time>
      </trkpt>
      <trkpt lat="45.16081" lon="5.4116">
        <ele>581.69</ele>
        <time>2014-10-30T09:00:50Z</time>
      </trkpt>
      <trkpt lat="45.16081" lon="5.41144">
        <ele>582.08</ele>
        <time>2014-10-30T09:01:00Z</time>
      </trkpt>
      <trkpt lat="45.16082" lon="5.41131">
        <ele>582.08</ele>
        <time>2014-10-30T09:01:10Z</time>
      </trkpt>
      <trkpt lat="45.1608" lon="5.41117">
        <ele>582.84</ele>
        <time>2014-10-30T09:01:20Z</time>
      </trkpt>
      <trkpt lat="45.1608" lon="5.41101">
        <ele>583.28</ele>
        <time>2014-10-30T09:01:30Z</time>
      </trkpt>
      <trkpt lat="45.16089" lon="5.41093">
        <ele>583.87</ele>
        <time>2014-10-30T09:01:40Z</time>
      </trkpt>
      <trkpt lat="45.16086" lon="5.41087">
        <ele>584.47</ele>
        <time>2014-10-30T09:01:50Z</time>
      </trkpt>
      <trkpt lat="45.16073" lon="5.41072">
        <ele>585.39</ele>
        <time>2014-10-30T09:02:00Z</time>
      </trkpt>
      <trkpt lat="45.16061" lon="5.41059">
        <ele>587.26</ele>
        <time>2014-10-30T09:02:10Z</time>
      </trkpt>
      <trkpt lat="45.16047" lon="5.41048">
        <ele>588.94</ele>
        <time>2014-10-30T09:02:20Z</time>
      </trkpt>
      <trkpt lat="45.16035" lon="5.41038">
        <ele>589.97</ele>
        <time>2014-10-30T09:02:30Z</time>
      </trkpt>
      <trkpt lat="45.16032" lon="5.41029">
        <ele>590.2</ele>
        <time>2014-10-30T09:02:40Z</time>
      </trkpt>
      <trkpt lat="45.16029" lon="5.41021">
        <ele>589.63</ele>
        <time>2014-10-30T09:02:50Z</time>
      </trkpt>
      <trkpt lat="45.16034" lon="5.41011">
        <ele>589.97</ele>
        <time>2014-10-30T09:03:00Z</time>
      </trkpt>
      <trkpt lat="45.16033" lon="5.41004">
        <ele>591.23</ele>
        <time>2014-10-30T09:03:10Z</time>
      </trkpt>
      <trkpt lat="45.16019" lon="5.40997">
        <ele>593.03</ele>
        <time>2014-10-30T09:03:20Z</time>
      </trkpt>
      <trkpt lat="45.16015" lon="5.40987">
        <ele>594.14</ele>
        <time>2014-10-30T09:03:30Z</time>
      </trkpt>
      <trkpt lat="45.16008" lon="5.40977">
        <ele>596.01</ele>
        <time>2014-10-30T09:03:40Z</time>
      </trkpt>
      <trkpt lat="45.16001" lon="5.40974">
        <ele>597.54</ele>
        <time>2014-10-30T09:03:50Z</time>
      </trkpt>
      <trkpt lat="45.16" lon="5.40973">
        <ele>598.1</ele>
        <time>2014-10-30T09:04:01Z</time>
      </trkpt>
      <trkpt lat="45.15987" lon="5.40972">
        <ele>599.84</ele>
        <time>2014-10-30T09:04:11Z</time>
      </trkpt>
      <trkpt lat="45.15971" lon="5.40964">
        <ele>601.31</ele>
        <time>2014-10-30T09:04:21Z</time>
      </trkpt>
      <trkpt lat="45.15958" lon="5.4096">
        <ele>602.77</ele>
        <time>2014-10-30T09:04:31Z</time>
      </trkpt>
      <trkpt lat="45.1595" lon="5.40957">
        <ele>604.03</ele>
        <time>2014-10-30T09:04:41Z</time>
      </trkpt>
      <trkpt lat="45.15939" lon="5.40952">
        <ele>605.99</ele>
        <time>2014-10-30T09:04:51Z</time>
      </trkpt>
      <trkpt lat="45.15932" lon="5.40948">
        <ele>606.13</ele>
        <time>2014-10-30T09:05:06Z</time>
      </trkpt>
      <trkpt lat="45.1592" lon="5.4095">
        <ele>606.89</ele>
        <time>2014-10-30T09:05:16Z</time>
      </trkpt>
      <trkpt lat="45.15923" lon="5.40959">
        <ele>607.67</ele>
        <time>2014-10-30T09:05:26Z</time>
      </trkpt>
      <trkpt lat="45.15916" lon="5.40953">
        <ele>609.26</ele>
        <time>2014-10-30T09:05:36Z</time>
      </trkpt>
      <trkpt lat="45.15908" lon="5.40949">
        <ele>611.63</ele>
        <time>2014-10-30T09:05:46Z</time>
      </trkpt>
      <trkpt lat="45.15909" lon="5.40956">
        <ele>613.43</ele>
        <time>2014-10-30T09:05:56Z</time>
      </trkpt>
      <trkpt lat="45.15914" lon="5.40956">
        <ele>614.3</ele>
        <time>2014-10-30T09:06:06Z</time>
      </trkpt>
      <trkpt lat="45.1591" lon="5.40944">
        <ele>617.66</ele>
        <time>2014-10-30T09:06:16Z</time>
      </trkpt>
      <trkpt lat="45.1591" lon="5.40937">
        <ele>619.2</ele>
        <time>2014-10-30T09:06:26Z</time>
      </trkpt>
      <trkpt lat="45.15913" lon="5.40929">
        <ele>622.27</ele>
        <time>2014-10-30T09:06:40Z</time>
      </trkpt>
      <trkpt lat="45.15912" lon="5.40943">
        <ele>624.47</ele>
        <time>2014-10-30T09:06:50Z</time>
      </trkpt>
      <trkpt lat="45.15898" lon="5.40942">
        <ele>625.76</ele>
        <time>2014-10-30T09:07:00Z</time>
      </trkpt>
      <trkpt lat="45.1589" lon="5.40938">
        <ele>626.27</ele>
        <time>2014-10-30T09:07:10Z</time>
      </trkpt>
      <trkpt lat="45.15893" lon="5.40928">
        <ele>627</ele>
        <time>2014-10-30T09:07:20Z</time>
      </trkpt>
      <trkpt lat="45.15886" lon="5.4092">
        <ele>627.86</ele>
        <time>2014-10-30T09:07:30Z</time>
      </trkpt>
      <trkpt lat="45.15873" lon="5.40913">
        <ele>628.77</ele>
        <time>2014-10-30T09:07:40Z</time>
      </trkpt>
      <trkpt lat="45.1587" lon="5.40908">
        <ele>629.5</ele>
        <time>2014-10-30T09:07:50Z</time>
      </trkpt>
      <trkpt lat="45.15865" lon="5.40905">
        <ele>631.1</ele>
        <time>2014-10-30T09:08:00Z</time>
      </trkpt>
      <trkpt lat="45.15858" lon="5.40898">
        <ele>632.15</ele>
        <time>2014-10-30T09:08:10Z</time>
      </trkpt>
      <trkpt lat="45.15846" lon="5.40893">
        <ele>633.57</ele>
        <time>2014-10-30T09:08:20Z</time>
      </trkpt>
      <trkpt lat="45.15839" lon="5.40891">
        <ele>634.67</ele>
        <time>2014-10-30T09:08:30Z</time>
      </trkpt>
      <trkpt lat="45.15833" lon="5.40888">
        <ele>635.37</ele>
        <time>2014-10-30T09:08:40Z</time>
      </trkpt>
      <trkpt lat="45.1582" lon="5.40889">
        <ele>636.04</ele>
        <time>2014-10-30T09:08:50Z</time>
      </trkpt>
      <trkpt lat="45.15815" lon="5.40889">
        <ele>637.24</ele>
        <time>2014-10-30T09:09:00Z</time>
      </trkpt>
      <trkpt lat="45.15811" lon="5.40885">
        <ele>638.99</ele>
        <time>2014-10-30T09:09:10Z</time>
      </trkpt>
      <trkpt lat="45.15803" lon="5.40875">
        <ele>639.79</ele>
        <time>2014-10-30T09:09:20Z</time>
      </trkpt>
      <trkpt lat="45.15797" lon="5.40874">
        <ele>640.57</ele>
        <time>2014-10-30T09:09:30Z</time>
      </trkpt>
      <trkpt lat="45.15787" lon="5.40876">
        <ele>642.52</ele>
        <time>2014-10-30T09:09:44Z</time>
      </trkpt>
      <trkpt lat="45.15779" lon="5.40873">
        <ele>643.67</ele>
        <time>2014-10-30T09:09:54Z</time>
      </trkpt>
      <trkpt lat="45.1577" lon="5.40864">
        <ele>644.67</ele>
        <time>2014-10-30T09:10:04Z</time>
      </trkpt>
      <trkpt lat="45.15763" lon="5.40862">
        <ele>645.27</ele>
        <time>2014-10-30T09:10:14Z</time>
      </trkpt>
      <trkpt lat="45.15754" lon="5.40862">
        <ele>645.97</ele>
        <time>2014-10-30T09:10:24Z</time>
      </trkpt>
      <trkpt lat="45.15746" lon="5.40862">
        <ele>646.05</ele>
        <time>2014-10-30T09:10:34Z</time>
      </trkpt>
      <trkpt lat="45.15739" lon="5.40863">
        <ele>646.57</ele>
        <time>2014-10-30T09:10:44Z</time>
      </trkpt>
      <trkpt lat="45.15736" lon="5.40864">
        <ele>647.09</ele>
        <time>2014-10-30T09:10:54Z</time>
      </trkpt>
      <trkpt lat="45.15729" lon="5.40862">
        <ele>648.49</ele>
        <time>2014-10-30T09:11:04Z</time>
      </trkpt>
      <trkpt lat="45.1572" lon="5.40865">
        <ele>649.86</ele>
        <time>2014-10-30T09:11:14Z</time>
      </trkpt>
      <trkpt lat="45.15714" lon="5.40867">
        <ele>650.3</ele>
        <time>2014-10-30T09:11:24Z</time>
      </trkpt>
      <trkpt lat="45.15713" lon="5.40868">
        <ele>650.3</ele>
        <time>2014-10-30T09:11:34Z</time>
      </trkpt>
      <trkpt lat="45.15701" lon="5.40872">
        <ele>650.2</ele>
        <time>2014-10-30T09:11:44Z</time>
      </trkpt>
      <trkpt lat="45.15694" lon="5.4087">
        <ele>650</ele>
        <time>2014-10-30T09:11:54Z</time>
      </trkpt>
      <trkpt lat="45.15681" lon="5.40866">
        <ele>651.43</ele>
        <time>2014-10-30T09:12:04Z</time>
      </trkpt>
      <trkpt lat="45.15678" lon="5.40869">
        <ele>652.57</ele>
        <time>2014-10-30T09:12:14Z</time>
      </trkpt>
      <trkpt lat="45.15677" lon="5.40877">
        <ele>653.03</ele>
        <time>2014-10-30T09:12:24Z</time>
      </trkpt>
      <trkpt lat="45.15666" lon="5.40875">
        <ele>653.04</ele>
        <time>2014-10-30T09:12:34Z</time>
      </trkpt>
      <trkpt lat="45.1566" lon="5.40876">
        <ele>653.8</ele>
        <time>2014-10-30T09:12:44Z</time>
      </trkpt>
      <trkpt lat="45.15656" lon="5.4088">
        <ele>654.2</ele>
        <time>2014-10-30T09:12:54Z</time>
      </trkpt>
      <trkpt lat="45.1564" lon="5.40882">
        <ele>655.38</ele>
        <time>2014-10-30T09:13:04Z</time>
      </trkpt>
      <trkpt lat="45.15636" lon="5.40881">
        <ele>655.02</ele>
        <time>2014-10-30T09:13:14Z</time>
      </trkpt>
      <trkpt lat="45.15629" lon="5.40877">
        <ele>654.81</ele>
        <time>2014-10-30T09:13:24Z</time>
      </trkpt>
      <trkpt lat="45.15626" lon="5.40879">
        <ele>655.39</ele>
        <time>2014-10-30T09:13:34Z</time>
      </trkpt>
      <trkpt lat="45.15621" lon="5.40889">
        <ele>655.39</ele>
        <time>2014-10-30T09:13:44Z</time>
      </trkpt>
      <trkpt lat="45.1562" lon="5.40895">
        <ele>656.27</ele>
        <time>2014-10-30T09:13:54Z</time>
      </trkpt>
      <trkpt lat="45.15618" lon="5.40899">
        <ele>656.4</ele>
        <time>2014-10-30T09:14:04Z</time>
      </trkpt>
      <trkpt lat="45.15609" lon="5.409">
        <ele>656.87</ele>
        <time>2014-10-30T09:14:14Z</time>
      </trkpt>
      <trkpt lat="45.156" lon="5.40893">
        <ele>657.6</ele>
        <time>2014-10-30T09:14:24Z</time>
      </trkpt>
      <trkpt lat="45.15602" lon="5.40886">
        <ele>657.28</ele>
        <time>2014-10-30T09:14:34Z</time>
      </trkpt>
      <trkpt lat="45.15604" lon="5.40878">
        <ele>656.83</ele>
        <time>2014-10-30T09:14:44Z</time>
      </trkpt>
      <trkpt lat="45.15609" lon="5.40866">
        <ele>656.85</ele>
        <time>2014-10-30T09:14:54Z</time>
      </trkpt>
      <trkpt lat="45.15609" lon="5.40863">
        <ele>656.9</ele>
        <time>2014-10-30T09:15:04Z</time>
      </trkpt>
      <trkpt lat="45.1561" lon="5.40853">
        <ele>658.44</ele>
        <time>2014-10-30T09:15:14Z</time>
      </trkpt>
      <trkpt lat="45.15611" lon="5.40843">
        <ele>659.8</ele>
        <time>2014-10-30T09:15:24Z</time>
      </trkpt>
      <trkpt lat="45.15608" lon="5.40832">
        <ele>660.87</ele>
        <time>2014-10-30T09:15:34Z</time>
      </trkpt>
      <trkpt lat="45.15607" lon="5.40822">
        <ele>662.44</ele>
        <time>2014-10-30T09:15:44Z</time>
      </trkpt>
      <trkpt lat="45.15606" lon="5.40818">
        <ele>663.7</ele>
        <time>2014-10-30T09:15:54Z</time>
      </trkpt>
      <trkpt lat="45.15599" lon="5.40818">
        <ele>664</ele>
        <time>2014-10-30T09:16:04Z</time>
      </trkpt>
      <trkpt lat="45.15599" lon="5.40811">
        <ele>664.94</ele>
        <time>2014-10-30T09:16:14Z</time>
      </trkpt>
      <trkpt lat="45.15597" lon="5.4081">
        <ele>666.74</ele>
        <time>2014-10-30T09:16:24Z</time>
      </trkpt>
      <trkpt lat="45.15592" lon="5.40795">
        <ele>665.7</ele>
        <time>2014-10-30T09:16:34Z</time>
      </trkpt>
      <trkpt lat="45.15591" lon="5.40781">
        <ele>666.29</ele>
        <time>2014-10-30T09:16:44Z</time>
      </trkpt>
      <trkpt lat="45.15588" lon="5.40779">
        <ele>667</ele>
        <time>2014-10-30T09:16:54Z</time>
      </trkpt>
      <trkpt lat="45.15586" lon="5.40779">
        <ele>667.4</ele>
        <time>2014-10-30T09:17:04Z</time>
      </trkpt>
      <trkpt lat="45.15589" lon="5.4078">
        <ele>668</ele>
        <time>2014-10-30T09:17:14Z</time>
      </trkpt>
      <trkpt lat="45.15594" lon="5.40779">
        <ele>668.01</ele>
        <time>2014-10-30T09:17:24Z</time>
      </trkpt>
      <trkpt lat="45.15591" lon="5.40783">
        <ele>666.8</ele>
        <time>2014-10-30T09:22:41Z</time>
      </trkpt>
      <trkpt lat="45.15591" lon="5.40791">
        <ele>667.26</ele>
        <time>2014-10-30T09:22:51Z</time>
      </trkpt>
      <trkpt lat="45.1559" lon="5.40798">
        <ele>668.26</ele>
        <time>2014-10-30T09:23:01Z</time>
      </trkpt>
      <trkpt lat="45.15588" lon="5.40807">
        <ele>668.87</ele>
        <time>2014-10-30T09:23:11Z</time>
      </trkpt>
      <trkpt lat="45.15586" lon="5.40816">
        <ele>670.48</ele>
        <time>2014-10-30T09:23:21Z</time>
      </trkpt>
      <trkpt lat="45.15583" lon="5.40819">
        <ele>671.3</ele>
        <time>2014-10-30T09:23:31Z</time>
      </trkpt>
      <trkpt lat="45.15578" lon="5.40812">
        <ele>671.67</ele>
        <time>2014-10-30T09:23:41Z</time>
      </trkpt>
      <trkpt lat="45.15577" lon="5.40813">
        <ele>672.1</ele>
        <time>2014-10-30T09:23:51Z</time>
      </trkpt>
      <trkpt lat="45.15581" lon="5.40815">
        <ele>673.49</ele>
        <time>2014-10-30T09:24:01Z</time>
      </trkpt>
      <trkpt lat="45.15588" lon="5.40823">
        <ele>674.09</ele>
        <time>2014-10-30T09:24:11Z</time>
      </trkpt>
      <trkpt lat="45.15586" lon="5.40837">
        <ele>674.11</ele>
        <time>2014-10-30T09:24:21Z</time>
      </trkpt>
      <trkpt lat="45.15582" lon="5.40846">
        <ele>674.09</ele>
        <time>2014-10-30T09:24:31Z</time>
      </trkpt>
      <trkpt lat="45.15578" lon="5.40856">
        <ele>673.7</ele>
        <time>2014-10-30T09:24:41Z</time>
      </trkpt>
      <trkpt lat="45.15579" lon="5.40858">
        <ele>674.2</ele>
        <time>2014-10-30T09:24:51Z</time>
      </trkpt>
      <trkpt lat="45.15577" lon="5.40863">
        <ele>675.18</ele>
        <time>2014-10-30T09:25:14Z</time>
      </trkpt>
      <trkpt lat="45.15572" lon="5.40878">
        <ele>675.89</ele>
        <time>2014-10-30T09:25:24Z</time>
      </trkpt>
      <trkpt lat="45.15566" lon="5.40891">
        <ele>676.67</ele>
        <time>2014-10-30T09:25:34Z</time>
      </trkpt>
      <trkpt lat="45.15561" lon="5.40903">
        <ele>678.51</ele>
        <time>2014-10-30T09:25:44Z</time>
      </trkpt>
      <trkpt lat="45.15552" lon="5.40911">
        <ele>679.86</ele>
        <time>2014-10-30T09:25:54Z</time>
      </trkpt>
      <trkpt lat="45.15548" lon="5.40928">
        <ele>682.23</ele>
        <time>2014-10-30T09:26:04Z</time>
      </trkpt>
      <trkpt lat="45.15546" lon="5.40942">
        <ele>684.04</ele>
        <time>2014-10-30T09:26:14Z</time>
      </trkpt>
      <trkpt lat="45.15537" lon="5.40953">
        <ele>686.02</ele>
        <time>2014-10-30T09:26:24Z</time>
      </trkpt>
      <trkpt lat="45.15529" lon="5.40967">
        <ele>688.83</ele>
        <time>2014-10-30T09:26:34Z</time>
      </trkpt>
      <trkpt lat="45.15527" lon="5.4098">
        <ele>690.45</ele>
        <time>2014-10-30T09:26:44Z</time>
      </trkpt>
      <trkpt lat="45.15532" lon="5.40984">
        <ele>691.58</ele>
        <time>2014-10-30T09:26:54Z</time>
      </trkpt>
      <trkpt lat="45.15541" lon="5.40981">
        <ele>692.94</ele>
        <time>2014-10-30T09:27:04Z</time>
      </trkpt>
      <trkpt lat="45.1555" lon="5.40982">
        <ele>694.1</ele>
        <time>2014-10-30T09:27:14Z</time>
      </trkpt>
      <trkpt lat="45.15551" lon="5.40983">
        <ele>694.5</ele>
        <time>2014-10-30T09:27:24Z</time>
      </trkpt>
      <trkpt lat="45.15561" lon="5.40986">
        <ele>694.4</ele>
        <time>2014-10-30T09:27:34Z</time>
      </trkpt>
      <trkpt lat="45.15572" lon="5.40991">
        <ele>695.11</ele>
        <time>2014-10-30T09:27:44Z</time>
      </trkpt>
      <trkpt lat="45.15576" lon="5.40998">
        <ele>695.55</ele>
        <time>2014-10-30T09:27:54Z</time>
      </trkpt>
      <trkpt lat="45.1558" lon="5.41007">
        <ele>696.32</ele>
        <time>2014-10-30T09:28:04Z</time>
      </trkpt>
      <trkpt lat="45.1558" lon="5.41008">
        <ele>697.1</ele>
        <time>2014-10-30T09:28:14Z</time>
      </trkpt>
      <trkpt lat="45.15574" lon="5.41017">
        <ele>700.32</ele>
        <time>2014-10-30T09:28:24Z</time>
      </trkpt>
      <trkpt lat="45.15568" lon="5.41021">
        <ele>702.91</ele>
        <time>2014-10-30T09:28:34Z</time>
      </trkpt>
      <trkpt lat="45.1556" lon="5.41024">
        <ele>704.84</ele>
        <time>2014-10-30T09:28:44Z</time>
      </trkpt>
      <trkpt lat="45.15555" lon="5.41027">
        <ele>705.77</ele>
        <time>2014-10-30T09:28:54Z</time>
      </trkpt>
      <trkpt lat="45.15552" lon="5.41032">
        <ele>706.47</ele>
        <time>2014-10-30T09:29:04Z</time>
      </trkpt>
      <trkpt lat="45.15551" lon="5.41032">
        <ele>706.6</ele>
        <time>2014-10-30T09:29:14Z</time>
      </trkpt>
      <trkpt lat="45.15551" lon="5.41045">
        <ele>707.42</ele>
        <time>2014-10-30T09:29:42Z</time>
      </trkpt>
      <trkpt lat="45.15557" lon="5.41047">
        <ele>708.39</ele>
        <time>2014-10-30T09:29:52Z</time>
      </trkpt>
      <trkpt lat="45.15558" lon="5.41053">
        <ele>708.99</ele>
        <time>2014-10-30T09:30:02Z</time>
      </trkpt>
      <trkpt lat="45.1556" lon="5.41067">
        <ele>709.77</ele>
        <time>2014-10-30T09:30:12Z</time>
      </trkpt>
      <trkpt lat="45.15562" lon="5.41078">
        <ele>710.47</ele>
        <time>2014-10-30T09:30:22Z</time>
      </trkpt>
      <trkpt lat="45.15563" lon="5.41088">
        <ele>711.07</ele>
        <time>2014-10-30T09:30:32Z</time>
      </trkpt>
      <trkpt lat="45.15565" lon="5.41099">
        <ele>711.67</ele>
        <time>2014-10-30T09:30:42Z</time>
      </trkpt>
      <trkpt lat="45.15565" lon="5.41107">
        <ele>713.15</ele>
        <time>2014-10-30T09:30:52Z</time>
      </trkpt>
      <trkpt lat="45.15565" lon="5.41118">
        <ele>714.57</ele>
        <time>2014-10-30T09:31:02Z</time>
      </trkpt>
      <trkpt lat="45.15565" lon="5.41127">
        <ele>715.93</ele>
        <time>2014-10-30T09:31:12Z</time>
      </trkpt>
      <trkpt lat="45.1556" lon="5.41137">
        <ele>717.22</ele>
        <time>2014-10-30T09:31:33Z</time>
      </trkpt>
      <trkpt lat="45.15551" lon="5.41146">
        <ele>718.45</ele>
        <time>2014-10-30T09:31:43Z</time>
      </trkpt>
      <trkpt lat="45.15546" lon="5.4116">
        <ele>720.63</ele>
        <time>2014-10-30T09:31:53Z</time>
      </trkpt>
      <trkpt lat="45.15541" lon="5.41167">
        <ele>721.86</ele>
        <time>2014-10-30T09:32:03Z</time>
      </trkpt>
      <trkpt lat="45.15534" lon="5.4117">
        <ele>722.94</ele>
        <time>2014-10-30T09:32:13Z</time>
      </trkpt>
      <trkpt lat="45.15523" lon="5.41174">
        <ele>724.36</ele>
        <time>2014-10-30T09:32:23Z</time>
      </trkpt>
      <trkpt lat="45.15511" lon="5.41178">
        <ele>725.36</ele>
        <time>2014-10-30T09:32:33Z</time>
      </trkpt>
      <trkpt lat="45.15504" lon="5.41182">
        <ele>726.17</ele>
        <time>2014-10-30T09:32:43Z</time>
      </trkpt>
      <trkpt lat="45.15494" lon="5.41188">
        <ele>727.81</ele>
        <time>2014-10-30T09:32:53Z</time>
      </trkpt>
      <trkpt lat="45.15493" lon="5.41196">
        <ele>729.94</ele>
        <time>2014-10-30T09:33:03Z</time>
      </trkpt>
      <trkpt lat="45.15492" lon="5.41198">
        <ele>730.6</ele>
        <time>2014-10-30T09:33:13Z</time>
      </trkpt>
      <trkpt lat="45.15501" lon="5.41217">
        <ele>733.38</ele>
        <time>2014-10-30T09:33:23Z</time>
      </trkpt>
      <trkpt lat="45.15508" lon="5.41227">
        <ele>734.94</ele>
        <time>2014-10-30T09:33:33Z</time>
      </trkpt>
      <trkpt lat="45.15507" lon="5.41235">
        <ele>737.31</ele>
        <time>2014-10-30T09:33:43Z</time>
      </trkpt>
      <trkpt lat="45.15506" lon="5.41238">
        <ele>738.8</ele>
        <time>2014-10-30T09:33:53Z</time>
      </trkpt>
      <trkpt lat="45.15503" lon="5.41247">
        <ele>740.37</ele>
        <time>2014-10-30T09:34:06Z</time>
      </trkpt>
      <trkpt lat="45.15499" lon="5.41253">
        <ele>741.89</ele>
        <time>2014-10-30T09:34:16Z</time>
      </trkpt>
      <trkpt lat="45.15494" lon="5.41259">
        <ele>742.55</ele>
        <time>2014-10-30T09:34:26Z</time>
      </trkpt>
      <trkpt lat="45.15492" lon="5.41266">
        <ele>743.76</ele>
        <time>2014-10-30T09:34:36Z</time>
      </trkpt>
      <trkpt lat="45.15486" lon="5.41273">
        <ele>745.04</ele>
        <time>2014-10-30T09:34:46Z</time>
      </trkpt>
      <trkpt lat="45.15482" lon="5.41277">
        <ele>746.66</ele>
        <time>2014-10-30T09:34:56Z</time>
      </trkpt>
      <trkpt lat="45.15479" lon="5.4128">
        <ele>747.59</ele>
        <time>2014-10-30T09:35:06Z</time>
      </trkpt>
      <trkpt lat="45.15474" lon="5.41283">
        <ele>748.05</ele>
        <time>2014-10-30T09:35:23Z</time>
      </trkpt>
      <trkpt lat="45.15469" lon="5.41286">
        <ele>748.69</ele>
        <time>2014-10-30T09:35:33Z</time>
      </trkpt>
      <trkpt lat="45.15466" lon="5.41293">
        <ele>749.27</ele>
        <time>2014-10-30T09:35:43Z</time>
      </trkpt>
      <trkpt lat="45.15461" lon="5.41299">
        <ele>750.29</ele>
        <time>2014-10-30T09:35:53Z</time>
      </trkpt>
      <trkpt lat="45.15459" lon="5.41306">
        <ele>751.37</ele>
        <time>2014-10-30T09:36:05Z</time>
      </trkpt>
      <trkpt lat="45.15452" lon="5.41309">
        <ele>752.76</ele>
        <time>2014-10-30T09:36:15Z</time>
      </trkpt>
      <trkpt lat="45.15447" lon="5.41316">
        <ele>753.79</ele>
        <time>2014-10-30T09:36:25Z</time>
      </trkpt>
      <trkpt lat="45.15442" lon="5.4133">
        <ele>755.78</ele>
        <time>2014-10-30T09:36:35Z</time>
      </trkpt>
      <trkpt lat="45.15441" lon="5.41345">
        <ele>758.36</ele>
        <time>2014-10-30T09:36:45Z</time>
      </trkpt>
      <trkpt lat="45.15439" lon="5.4135">
        <ele>760.46</ele>
        <time>2014-10-30T09:36:55Z</time>
      </trkpt>
      <trkpt lat="45.15433" lon="5.4135">
        <ele>763.37</ele>
        <time>2014-10-30T09:37:05Z</time>
      </trkpt>
      <trkpt lat="45.15429" lon="5.4135">
        <ele>766.4</ele>
        <time>2014-10-30T09:37:15Z</time>
      </trkpt>
      <trkpt lat="45.15423" lon="5.41345">
        <ele>768.62</ele>
        <time>2014-10-30T09:37:25Z</time>
      </trkpt>
      <trkpt lat="45.15416" lon="5.4134">
        <ele>771.18</ele>
        <time>2014-10-30T09:37:35Z</time>
      </trkpt>
      <trkpt lat="45.15412" lon="5.4134">
        <ele>774.6</ele>
        <time>2014-10-30T09:37:45Z</time>
      </trkpt>
      <trkpt lat="45.15406" lon="5.41342">
        <ele>776.73</ele>
        <time>2014-10-30T09:37:55Z</time>
      </trkpt>
      <trkpt lat="45.154" lon="5.41345">
        <ele>778.37</ele>
        <time>2014-10-30T09:38:05Z</time>
      </trkpt>
      <trkpt lat="45.15397" lon="5.41347">
        <ele>779.64</ele>
        <time>2014-10-30T09:38:15Z</time>
      </trkpt>
      <trkpt lat="45.15392" lon="5.41347">
        <ele>781.29</ele>
        <time>2014-10-30T09:38:25Z</time>
      </trkpt>
      <trkpt lat="45.15391" lon="5.41351">
        <ele>782.42</ele>
        <time>2014-10-30T09:38:49Z</time>
      </trkpt>
      <trkpt lat="45.15383" lon="5.41356">
        <ele>783.63</ele>
        <time>2014-10-30T09:38:59Z</time>
      </trkpt>
      <trkpt lat="45.15378" lon="5.41363">
        <ele>784.47</ele>
        <time>2014-10-30T09:39:09Z</time>
      </trkpt>
      <trkpt lat="45.15375" lon="5.41372">
        <ele>785.04</ele>
        <time>2014-10-30T09:39:19Z</time>
      </trkpt>
      <trkpt lat="45.15369" lon="5.41377">
        <ele>786.24</ele>
        <time>2014-10-30T09:39:29Z</time>
      </trkpt>
      <trkpt lat="45.15362" lon="5.41377">
        <ele>787.07</ele>
        <time>2014-10-30T09:39:39Z</time>
      </trkpt>
      <trkpt lat="45.15356" lon="5.41381">
        <ele>787.97</ele>
        <time>2014-10-30T09:39:49Z</time>
      </trkpt>
      <trkpt lat="45.15349" lon="5.41383">
        <ele>788.87</ele>
        <time>2014-10-30T09:39:59Z</time>
      </trkpt>
      <trkpt lat="45.15343" lon="5.41381">
        <ele>790.04</ele>
        <time>2014-10-30T09:40:09Z</time>
      </trkpt>
      <trkpt lat="45.15333" lon="5.41379">
        <ele>791.65</ele>
        <time>2014-10-30T09:40:19Z</time>
      </trkpt>
      <trkpt lat="45.15332" lon="5.4138">
        <ele>792.3</ele>
        <time>2014-10-30T09:40:29Z</time>
      </trkpt>
      <trkpt lat="45.15325" lon="5.41386">
        <ele>794.71</ele>
        <time>2014-10-30T09:40:39Z</time>
      </trkpt>
      <trkpt lat="45.15317" lon="5.4139">
        <ele>796.81</ele>
        <time>2014-10-30T09:40:49Z</time>
      </trkpt>
      <trkpt lat="45.15309" lon="5.41392">
        <ele>799.32</ele>
        <time>2014-10-30T09:40:59Z</time>
      </trkpt>
      <trkpt lat="45.15305" lon="5.41395">
        <ele>801.36</ele>
        <time>2014-10-30T09:41:09Z</time>
      </trkpt>
      <trkpt lat="45.15301" lon="5.41401">
        <ele>803.43</ele>
        <time>2014-10-30T09:41:19Z</time>
      </trkpt>
      <trkpt lat="45.15298" lon="5.41404">
        <ele>805.63</ele>
        <time>2014-10-30T09:41:29Z</time>
      </trkpt>
      <trkpt lat="45.15292" lon="5.41405">
        <ele>807.24</ele>
        <time>2014-10-30T09:41:39Z</time>
      </trkpt>
      <trkpt lat="45.15285" lon="5.41408">
        <ele>808.96</ele>
        <time>2014-10-30T09:41:49Z</time>
      </trkpt>
      <trkpt lat="45.15281" lon="5.4141">
        <ele>810.76</ele>
        <time>2014-10-30T09:41:59Z</time>
      </trkpt>
      <trkpt lat="45.15275" lon="5.41415">
        <ele>812.34</ele>
        <time>2014-10-30T09:42:09Z</time>
      </trkpt>
      <trkpt lat="45.15276" lon="5.41422">
        <ele>813.76</ele>
        <time>2014-10-30T09:42:19Z</time>
      </trkpt>
      <trkpt lat="45.15274" lon="5.4143">
        <ele>814.7</ele>
        <time>2014-10-30T09:42:37Z</time>
      </trkpt>
      <trkpt lat="45.15273" lon="5.41434">
        <ele>815.4</ele>
        <time>2014-10-30T09:42:47Z</time>
      </trkpt>
      <trkpt lat="45.15269" lon="5.41441">
        <ele>816.64</ele>
        <time>2014-10-30T09:42:57Z</time>
      </trkpt>
      <trkpt lat="45.15262" lon="5.41442">
        <ele>817.57</ele>
        <time>2014-10-30T09:43:07Z</time>
      </trkpt>
      <trkpt lat="45.1526" lon="5.41448">
        <ele>818.37</ele>
        <time>2014-10-30T09:43:17Z</time>
      </trkpt>
      <trkpt lat="45.15254" lon="5.41457">
        <ele>819.72</ele>
        <time>2014-10-30T09:43:27Z</time>
      </trkpt>
      <trkpt lat="45.1525" lon="5.41459">
        <ele>820.69</ele>
        <time>2014-10-30T09:43:37Z</time>
      </trkpt>
      <trkpt lat="45.15247" lon="5.41464">
        <ele>821.7</ele>
        <time>2014-10-30T09:43:47Z</time>
      </trkpt>
      <trkpt lat="45.15246" lon="5.41469">
        <ele>822.5</ele>
        <time>2014-10-30T09:43:57Z</time>
      </trkpt>
      <trkpt lat="45.15242" lon="5.41475">
        <ele>824.79</ele>
        <time>2014-10-30T09:44:07Z</time>
      </trkpt>
      <trkpt lat="45.15238" lon="5.41483">
        <ele>826.52</ele>
        <time>2014-10-30T09:44:25Z</time>
      </trkpt>
      <trkpt lat="45.15238" lon="5.4149">
        <ele>828.46</ele>
        <time>2014-10-30T09:44:35Z</time>
      </trkpt>
      <trkpt lat="45.15238" lon="5.41495">
        <ele>829.07</ele>
        <time>2014-10-30T09:44:45Z</time>
      </trkpt>
      <trkpt lat="45.15234" lon="5.41499">
        <ele>830.24</ele>
        <time>2014-10-30T09:44:55Z</time>
      </trkpt>
      <trkpt lat="45.15234" lon="5.41505">
        <ele>831.5</ele>
        <time>2014-10-30T09:45:05Z</time>
      </trkpt>
      <trkpt lat="45.15235" lon="5.41508">
        <ele>832.9</ele>
        <time>2014-10-30T09:45:15Z</time>
      </trkpt>
      <trkpt lat="45.1523" lon="5.41515">
        <ele>834.32</ele>
        <time>2014-10-30T09:45:25Z</time>
      </trkpt>
      <trkpt lat="45.15225" lon="5.4152">
        <ele>835.87</ele>
        <time>2014-10-30T09:45:35Z</time>
      </trkpt>
      <trkpt lat="45.1522" lon="5.41527">
        <ele>838.02</ele>
        <time>2014-10-30T09:45:45Z</time>
      </trkpt>
      <trkpt lat="45.15222" lon="5.41536">
        <ele>839.98</ele>
        <time>2014-10-30T09:45:55Z</time>
      </trkpt>
      <trkpt lat="45.1522" lon="5.41542">
        <ele>841.99</ele>
        <time>2014-10-30T09:46:05Z</time>
      </trkpt>
      <trkpt lat="45.1522" lon="5.41547">
        <ele>843.1</ele>
        <time>2014-10-30T09:46:15Z</time>
      </trkpt>
      <trkpt lat="45.1522" lon="5.41555">
        <ele>844.96</ele>
        <time>2014-10-30T09:46:25Z</time>
      </trkpt>
      <trkpt lat="45.15223" lon="5.41565">
        <ele>846.64</ele>
        <time>2014-10-30T09:46:35Z</time>
      </trkpt>
      <trkpt lat="45.15221" lon="5.41565">
        <ele>848.8</ele>
        <time>2014-10-30T09:46:45Z</time>
      </trkpt>
      <trkpt lat="45.15218" lon="5.4157">
        <ele>850.9</ele>
        <time>2014-10-30T09:46:55Z</time>
      </trkpt>
      <trkpt lat="45.15223" lon="5.4158">
        <ele>865.98</ele>
        <time>2014-10-30T09:51:04Z</time>
      </trkpt>
      <trkpt lat="45.15226" lon="5.41585">
        <ele>871.1</ele>
        <time>2014-10-30T09:51:14Z</time>
      </trkpt>
      <trkpt lat="45.15229" lon="5.41592">
        <ele>871.2</ele>
        <time>2014-10-30T09:51:24Z</time>
      </trkpt>
      <trkpt lat="45.15232" lon="5.416">
        <ele>871.1</ele>
        <time>2014-10-30T09:51:34Z</time>
      </trkpt>
      <trkpt lat="45.15233" lon="5.41607">
        <ele>871.2</ele>
        <time>2014-10-30T09:51:44Z</time>
      </trkpt>
      <trkpt lat="45.15232" lon="5.41614">
        <ele>871.37</ele>
        <time>2014-10-30T09:51:54Z</time>
      </trkpt>
      <trkpt lat="45.1523" lon="5.41615">
        <ele>871.5</ele>
        <time>2014-10-30T09:52:04Z</time>
      </trkpt>
      <trkpt lat="45.15221" lon="5.41615">
        <ele>872.67</ele>
        <time>2014-10-30T09:52:14Z</time>
      </trkpt>
      <trkpt lat="45.15214" lon="5.41612">
        <ele>873.47</ele>
        <time>2014-10-30T09:52:24Z</time>
      </trkpt>
      <trkpt lat="45.15209" lon="5.41613">
        <ele>874.47</ele>
        <time>2014-10-30T09:52:34Z</time>
      </trkpt>
      <trkpt lat="45.15211" lon="5.4162">
        <ele>875.47</ele>
        <time>2014-10-30T09:52:44Z</time>
      </trkpt>
      <trkpt lat="45.15214" lon="5.41625">
        <ele>876.29</ele>
        <time>2014-10-30T09:52:54Z</time>
      </trkpt>
      <trkpt lat="45.15214" lon="5.41631">
        <ele>877.27</ele>
        <time>2014-10-30T09:53:04Z</time>
      </trkpt>
      <trkpt lat="45.15213" lon="5.4164">
        <ele>878.07</ele>
        <time>2014-10-30T09:53:14Z</time>
      </trkpt>
      <trkpt lat="45.15212" lon="5.41649">
        <ele>879.33</ele>
        <time>2014-10-30T09:53:24Z</time>
      </trkpt>
      <trkpt lat="45.15208" lon="5.41651">
        <ele>880.85</ele>
        <time>2014-10-30T09:53:34Z</time>
      </trkpt>
      <trkpt lat="45.15204" lon="5.41651">
        <ele>881.87</ele>
        <time>2014-10-30T09:53:44Z</time>
      </trkpt>
      <trkpt lat="45.152" lon="5.41648">
        <ele>883.04</ele>
        <time>2014-10-30T09:53:54Z</time>
      </trkpt>
      <trkpt lat="45.15192" lon="5.41644">
        <ele>884.17</ele>
        <time>2014-10-30T09:54:04Z</time>
      </trkpt>
      <trkpt lat="45.15184" lon="5.41643">
        <ele>885.07</ele>
        <time>2014-10-30T09:54:14Z</time>
      </trkpt>
      <trkpt lat="45.15178" lon="5.41646">
        <ele>886.17</ele>
        <time>2014-10-30T09:54:24Z</time>
      </trkpt>
      <trkpt lat="45.15171" lon="5.41645">
        <ele>887.37</ele>
        <time>2014-10-30T09:54:34Z</time>
      </trkpt>
      <trkpt lat="45.15164" lon="5.41644">
        <ele>888.44</ele>
        <time>2014-10-30T09:54:44Z</time>
      </trkpt>
      <trkpt lat="45.15159" lon="5.41643">
        <ele>889.74</ele>
        <time>2014-10-30T09:54:54Z</time>
      </trkpt>
      <trkpt lat="45.15151" lon="5.41643">
        <ele>891.17</ele>
        <time>2014-10-30T09:55:04Z</time>
      </trkpt>
      <trkpt lat="45.15146" lon="5.41643">
        <ele>892.54</ele>
        <time>2014-10-30T09:55:14Z</time>
      </trkpt>
      <trkpt lat="45.15138" lon="5.41638">
        <ele>894.14</ele>
        <time>2014-10-30T09:55:24Z</time>
      </trkpt>
      <trkpt lat="45.15135" lon="5.41637">
        <ele>895.2</ele>
        <time>2014-10-30T09:55:34Z</time>
      </trkpt>
      <trkpt lat="45.15128" lon="5.41641">
        <ele>897.68</ele>
        <time>2014-10-30T09:55:56Z</time>
      </trkpt>
      <trkpt lat="45.15123" lon="5.41645">
        <ele>899.5</ele>
        <time>2014-10-30T09:56:11Z</time>
      </trkpt>
      <trkpt lat="45.15118" lon="5.41648">
        <ele>900.12</ele>
        <time>2014-10-30T09:56:21Z</time>
      </trkpt>
      <trkpt lat="45.15117" lon="5.4165">
        <ele>900.6</ele>
        <time>2014-10-30T09:56:31Z</time>
      </trkpt>
      <trkpt lat="45.15114" lon="5.41655">
        <ele>901</ele>
        <time>2014-10-30T09:56:41Z</time>
      </trkpt>
      <trkpt lat="45.1511" lon="5.41667">
        <ele>902.05</ele>
        <time>2014-10-30T09:56:59Z</time>
      </trkpt>
      <trkpt lat="45.15107" lon="5.41674">
        <ele>903.12</ele>
        <time>2014-10-30T09:57:09Z</time>
      </trkpt>
      <trkpt lat="45.15098" lon="5.41677">
        <ele>904.25</ele>
        <time>2014-10-30T09:57:19Z</time>
      </trkpt>
      <trkpt lat="45.15091" lon="5.41682">
        <ele>906.11</ele>
        <time>2014-10-30T09:57:29Z</time>
      </trkpt>
      <trkpt lat="45.15086" lon="5.41682">
        <ele>908.4</ele>
        <time>2014-10-30T09:57:39Z</time>
      </trkpt>
      <trkpt lat="45.1508" lon="5.4168">
        <ele>910.16</ele>
        <time>2014-10-30T09:57:49Z</time>
      </trkpt>
      <trkpt lat="45.15075" lon="5.41678">
        <ele>911.17</ele>
        <time>2014-10-30T09:57:59Z</time>
      </trkpt>
      <trkpt lat="45.1507" lon="5.41678">
        <ele>912.27</ele>
        <time>2014-10-30T09:58:09Z</time>
      </trkpt>
      <trkpt lat="45.15066" lon="5.41681">
        <ele>913.52</ele>
        <time>2014-10-30T09:58:19Z</time>
      </trkpt>
      <trkpt lat="45.15058" lon="5.41677">
        <ele>918.22</ele>
        <time>2014-10-30T09:59:00Z</time>
      </trkpt>
      <trkpt lat="45.15053" lon="5.41672">
        <ele>921.06</ele>
        <time>2014-10-30T09:59:10Z</time>
      </trkpt>
      <trkpt lat="45.15051" lon="5.41672">
        <ele>921.9</ele>
        <time>2014-10-30T09:59:20Z</time>
      </trkpt>
      <trkpt lat="45.15041" lon="5.4167">
        <ele>923.29</ele>
        <time>2014-10-30T09:59:30Z</time>
      </trkpt>
      <trkpt lat="45.15036" lon="5.4167">
        <ele>923.97</ele>
        <time>2014-10-30T09:59:40Z</time>
      </trkpt>
      <trkpt lat="45.1503" lon="5.41671">
        <ele>924.89</ele>
        <time>2014-10-30T09:59:50Z</time>
      </trkpt>
      <trkpt lat="45.15023" lon="5.41673">
        <ele>926.02</ele>
        <time>2014-10-30T10:00:02Z</time>
      </trkpt>
      <trkpt lat="45.15012" lon="5.41674">
        <ele>927.47</ele>
        <time>2014-10-30T10:00:12Z</time>
      </trkpt>
      <trkpt lat="45.15008" lon="5.41671">
        <ele>928.19</ele>
        <time>2014-10-30T10:00:22Z</time>
      </trkpt>
      <trkpt lat="45.15004" lon="5.4167">
        <ele>929.9</ele>
        <time>2014-10-30T10:00:32Z</time>
      </trkpt>
      <trkpt lat="45.15001" lon="5.41673">
        <ele>932.1</ele>
        <time>2014-10-30T10:00:46Z</time>
      </trkpt>
      <trkpt lat="45.1499" lon="5.41674">
        <ele>935.03</ele>
        <time>2014-10-30T10:00:56Z</time>
      </trkpt>
      <trkpt lat="45.14985" lon="5.41673">
        <ele>936.3</ele>
        <time>2014-10-30T10:01:06Z</time>
      </trkpt>
      <trkpt lat="45.14982" lon="5.41677">
        <ele>938.22</ele>
        <time>2014-10-30T10:01:16Z</time>
      </trkpt>
      <trkpt lat="45.14975" lon="5.41673">
        <ele>938.87</ele>
        <time>2014-10-30T10:01:26Z</time>
      </trkpt>
      <trkpt lat="45.14969" lon="5.41674">
        <ele>939.68</ele>
        <time>2014-10-30T10:01:36Z</time>
      </trkpt>
      <trkpt lat="45.14963" lon="5.4167">
        <ele>940.79</ele>
        <time>2014-10-30T10:01:46Z</time>
      </trkpt>
      <trkpt lat="45.14956" lon="5.41668">
        <ele>942.33</ele>
        <time>2014-10-30T10:01:56Z</time>
      </trkpt>
      <trkpt lat="45.14951" lon="5.41662">
        <ele>943.84</ele>
        <time>2014-10-30T10:02:06Z</time>
      </trkpt>
      <trkpt lat="45.14948" lon="5.41656">
        <ele>945.04</ele>
        <time>2014-10-30T10:02:16Z</time>
      </trkpt>
      <trkpt lat="45.14943" lon="5.4165">
        <ele>946.35</ele>
        <time>2014-10-30T10:02:26Z</time>
      </trkpt>
      <trkpt lat="45.14934" lon="5.41647">
        <ele>947.56</ele>
        <time>2014-10-30T10:02:36Z</time>
      </trkpt>
      <trkpt lat="45.1493" lon="5.41647">
        <ele>948.66</ele>
        <time>2014-10-30T10:02:46Z</time>
      </trkpt>
      <trkpt lat="45.14925" lon="5.41645">
        <ele>950.58</ele>
        <time>2014-10-30T10:02:56Z</time>
      </trkpt>
      <trkpt lat="45.14918" lon="5.41638">
        <ele>951.46</ele>
        <time>2014-10-30T10:03:06Z</time>
      </trkpt>
      <trkpt lat="45.14909" lon="5.41631">
        <ele>952.56</ele>
        <time>2014-10-30T10:03:16Z</time>
      </trkpt>
      <trkpt lat="45.14898" lon="5.41626">
        <ele>953.34</ele>
        <time>2014-10-30T10:03:26Z</time>
      </trkpt>
      <trkpt lat="45.14892" lon="5.41621">
        <ele>954.17</ele>
        <time>2014-10-30T10:03:36Z</time>
      </trkpt>
      <trkpt lat="45.14888" lon="5.41617">
        <ele>955.04</ele>
        <time>2014-10-30T10:03:46Z</time>
      </trkpt>
      <trkpt lat="45.14884" lon="5.41613">
        <ele>955.6</ele>
        <time>2014-10-30T10:03:56Z</time>
      </trkpt>
      <trkpt lat="45.14879" lon="5.41607">
        <ele>956.3</ele>
        <time>2014-10-30T10:04:12Z</time>
      </trkpt>
      <trkpt lat="45.14877" lon="5.41604">
        <ele>957.3</ele>
        <time>2014-10-30T10:04:22Z</time>
      </trkpt>
      <trkpt lat="45.1487" lon="5.41594">
        <ele>959.85</ele>
        <time>2014-10-30T10:04:48Z</time>
      </trkpt>
      <trkpt lat="45.14868" lon="5.41593">
        <ele>961.2</ele>
        <time>2014-10-30T10:04:58Z</time>
      </trkpt>
      <trkpt lat="45.14859" lon="5.41588">
        <ele>962.85</ele>
        <time>2014-10-30T10:05:12Z</time>
      </trkpt>
      <trkpt lat="45.14858" lon="5.41588">
        <ele>963.7</ele>
        <time>2014-10-30T10:05:22Z</time>
      </trkpt>
      <trkpt lat="45.14849" lon="5.41585">
        <ele>965.5</ele>
        <time>2014-10-30T10:05:39Z</time>
      </trkpt>
      <trkpt lat="45.14848" lon="5.41583">
        <ele>966.6</ele>
        <time>2014-10-30T10:05:49Z</time>
      </trkpt>
      <trkpt lat="45.14837" lon="5.41575">
        <ele>969.07</ele>
        <time>2014-10-30T10:05:59Z</time>
      </trkpt>
      <trkpt lat="45.14827" lon="5.41571">
        <ele>970.35</ele>
        <time>2014-10-30T10:06:09Z</time>
      </trkpt>
      <trkpt lat="45.14816" lon="5.41564">
        <ele>972.06</ele>
        <time>2014-10-30T10:06:19Z</time>
      </trkpt>
      <trkpt lat="45.14809" lon="5.41563">
        <ele>973.07</ele>
        <time>2014-10-30T10:06:29Z</time>
      </trkpt>
      <trkpt lat="45.14805" lon="5.41565">
        <ele>974.15</ele>
        <time>2014-10-30T10:06:39Z</time>
      </trkpt>
      <trkpt lat="45.14803" lon="5.41564">
        <ele>974.7</ele>
        <time>2014-10-30T10:06:49Z</time>
      </trkpt>
      <trkpt lat="45.14796" lon="5.41559">
        <ele>976.61</ele>
        <time>2014-10-30T10:06:59Z</time>
      </trkpt>
      <trkpt lat="45.14791" lon="5.41553">
        <ele>978.35</ele>
        <time>2014-10-30T10:07:09Z</time>
      </trkpt>
      <trkpt lat="45.14785" lon="5.41551">
        <ele>979.86</ele>
        <time>2014-10-30T10:07:19Z</time>
      </trkpt>
      <trkpt lat="45.14771" lon="5.41551">
        <ele>981.63</ele>
        <time>2014-10-30T10:07:29Z</time>
      </trkpt>
      <trkpt lat="45.14766" lon="5.41552">
        <ele>983.04</ele>
        <time>2014-10-30T10:07:39Z</time>
      </trkpt>
      <trkpt lat="45.1476" lon="5.41553">
        <ele>984.34</ele>
        <time>2014-10-30T10:07:49Z</time>
      </trkpt>
      <trkpt lat="45.14752" lon="5.41551">
        <ele>986.01</ele>
        <time>2014-10-30T10:07:59Z</time>
      </trkpt>
      <trkpt lat="45.14746" lon="5.41548">
        <ele>988.43</ele>
        <time>2014-10-30T10:08:09Z</time>
      </trkpt>
      <trkpt lat="45.14741" lon="5.41545">
        <ele>989.79</ele>
        <time>2014-10-30T10:08:19Z</time>
      </trkpt>
      <trkpt lat="45.14736" lon="5.41543">
        <ele>991.6</ele>
        <time>2014-10-30T10:08:29Z</time>
      </trkpt>
      <trkpt lat="45.1473" lon="5.41534">
        <ele>993.18</ele>
        <time>2014-10-30T10:08:46Z</time>
      </trkpt>
      <trkpt lat="45.14729" lon="5.41532">
        <ele>994</ele>
        <time>2014-10-30T10:08:56Z</time>
      </trkpt>
      <trkpt lat="45.14728" lon="5.4154">
        <ele>1004.05</ele>
        <time>2014-10-30T10:11:29Z</time>
      </trkpt>
      <trkpt lat="45.14722" lon="5.41541">
        <ele>1007.86</ele>
        <time>2014-10-30T10:11:39Z</time>
      </trkpt>
      <trkpt lat="45.14717" lon="5.41549">
        <ele>1008.81</ele>
        <time>2014-10-30T10:11:49Z</time>
      </trkpt>
      <trkpt lat="45.14715" lon="5.41556">
        <ele>1009.69</ele>
        <time>2014-10-30T10:11:59Z</time>
      </trkpt>
      <trkpt lat="45.14712" lon="5.41564">
        <ele>1010.37</ele>
        <time>2014-10-30T10:12:09Z</time>
      </trkpt>
      <trkpt lat="45.1471" lon="5.41571">
        <ele>1010.9</ele>
        <time>2014-10-30T10:12:19Z</time>
      </trkpt>
      <trkpt lat="45.14711" lon="5.41581">
        <ele>1011.47</ele>
        <time>2014-10-30T10:12:29Z</time>
      </trkpt>
      <trkpt lat="45.14712" lon="5.41583">
        <ele>1011.89</ele>
        <time>2014-10-30T10:12:39Z</time>
      </trkpt>
      <trkpt lat="45.14704" lon="5.41589">
        <ele>1013.1</ele>
        <time>2014-10-30T10:13:09Z</time>
      </trkpt>
      <trkpt lat="45.14695" lon="5.41594">
        <ele>1015.4</ele>
        <time>2014-10-30T10:13:55Z</time>
      </trkpt>
      <trkpt lat="45.14693" lon="5.41593">
        <ele>1016.1</ele>
        <time>2014-10-30T10:14:05Z</time>
      </trkpt>
      <trkpt lat="45.14695" lon="5.416">
        <ele>1018.05</ele>
        <time>2014-10-30T10:14:36Z</time>
      </trkpt>
      <trkpt lat="45.14696" lon="5.41611">
        <ele>1019.36</ele>
        <time>2014-10-30T10:14:46Z</time>
      </trkpt>
      <trkpt lat="45.14695" lon="5.41616">
        <ele>1020.37</ele>
        <time>2014-10-30T10:14:56Z</time>
      </trkpt>
      <trkpt lat="45.14693" lon="5.41622">
        <ele>1020.79</ele>
        <time>2014-10-30T10:15:06Z</time>
      </trkpt>
      <trkpt lat="45.14694" lon="5.41632">
        <ele>1021.07</ele>
        <time>2014-10-30T10:15:16Z</time>
      </trkpt>
      <trkpt lat="45.14695" lon="5.41647">
        <ele>1021.07</ele>
        <time>2014-10-30T10:15:26Z</time>
      </trkpt>
      <trkpt lat="45.14697" lon="5.4166">
        <ele>1022.14</ele>
        <time>2014-10-30T10:15:36Z</time>
      </trkpt>
      <trkpt lat="45.14704" lon="5.41674">
        <ele>1023.39</ele>
        <time>2014-10-30T10:15:46Z</time>
      </trkpt>
      <trkpt lat="45.14707" lon="5.41682">
        <ele>1023.89</ele>
        <time>2014-10-30T10:15:56Z</time>
      </trkpt>
      <trkpt lat="45.14714" lon="5.41684">
        <ele>1024.3</ele>
        <time>2014-10-30T10:16:06Z</time>
      </trkpt>
      <trkpt lat="45.14715" lon="5.41687">
        <ele>1024.7</ele>
        <time>2014-10-30T10:16:16Z</time>
      </trkpt>
      <trkpt lat="45.14717" lon="5.41694">
        <ele>1025.52</ele>
        <time>2014-10-30T10:16:28Z</time>
      </trkpt>
      <trkpt lat="45.14717" lon="5.41707">
        <ele>1026.57</ele>
        <time>2014-10-30T10:16:38Z</time>
      </trkpt>
      <trkpt lat="45.14721" lon="5.41715">
        <ele>1027.67</ele>
        <time>2014-10-30T10:16:48Z</time>
      </trkpt>
      <trkpt lat="45.14724" lon="5.41723">
        <ele>1027.99</ele>
        <time>2014-10-30T10:16:58Z</time>
      </trkpt>
      <trkpt lat="45.14729" lon="5.41736">
        <ele>1028.84</ele>
        <time>2014-10-30T10:17:08Z</time>
      </trkpt>
      <trkpt lat="45.14732" lon="5.41751">
        <ele>1030.77</ele>
        <time>2014-10-30T10:17:18Z</time>
      </trkpt>
      <trkpt lat="45.14738" lon="5.4176">
        <ele>1032.1</ele>
        <time>2014-10-30T10:17:28Z</time>
      </trkpt>
      <trkpt lat="45.14743" lon="5.41779">
        <ele>1034.63</ele>
        <time>2014-10-30T10:17:38Z</time>
      </trkpt>
      <trkpt lat="45.14748" lon="5.41791">
        <ele>1036.04</ele>
        <time>2014-10-30T10:17:48Z</time>
      </trkpt>
      <trkpt lat="45.14752" lon="5.41804">
        <ele>1038.01</ele>
        <time>2014-10-30T10:17:58Z</time>
      </trkpt>
      <trkpt lat="45.14756" lon="5.41813">
        <ele>1039.63</ele>
        <time>2014-10-30T10:18:08Z</time>
      </trkpt>
      <trkpt lat="45.1476" lon="5.41822">
        <ele>1040.95</ele>
        <time>2014-10-30T10:18:18Z</time>
      </trkpt>
      <trkpt lat="45.14762" lon="5.4183">
        <ele>1042.04</ele>
        <time>2014-10-30T10:18:28Z</time>
      </trkpt>
      <trkpt lat="45.14765" lon="5.41838">
        <ele>1043.36</ele>
        <time>2014-10-30T10:18:38Z</time>
      </trkpt>
      <trkpt lat="45.14771" lon="5.41848">
        <ele>1045.41</ele>
        <time>2014-10-30T10:18:48Z</time>
      </trkpt>
      <trkpt lat="45.1478" lon="5.41854">
        <ele>1047.63</ele>
        <time>2014-10-30T10:18:58Z</time>
      </trkpt>
      <trkpt lat="45.14782" lon="5.41864">
        <ele>1049.54</ele>
        <time>2014-10-30T10:19:08Z</time>
      </trkpt>
      <trkpt lat="45.14787" lon="5.41873">
        <ele>1051.23</ele>
        <time>2014-10-30T10:19:18Z</time>
      </trkpt>
      <trkpt lat="45.14791" lon="5.41881">
        <ele>1053.13</ele>
        <time>2014-10-30T10:19:28Z</time>
      </trkpt>
      <trkpt lat="45.14797" lon="5.41893">
        <ele>1054.89</ele>
        <time>2014-10-30T10:19:38Z</time>
      </trkpt>
      <trkpt lat="45.148" lon="5.41904">
        <ele>1056.17</ele>
        <time>2014-10-30T10:19:48Z</time>
      </trkpt>
      <trkpt lat="45.14804" lon="5.41909">
        <ele>1058.03</ele>
        <time>2014-10-30T10:19:58Z</time>
      </trkpt>
      <trkpt lat="45.14804" lon="5.41919">
        <ele>1060.64</ele>
        <time>2014-10-30T10:20:08Z</time>
      </trkpt>
      <trkpt lat="45.14804" lon="5.41926">
        <ele>1062.27</ele>
        <time>2014-10-30T10:20:18Z</time>
      </trkpt>
      <trkpt lat="45.14798" lon="5.41927">
        <ele>1064.12</ele>
        <time>2014-10-30T10:20:31Z</time>
      </trkpt>
      <trkpt lat="45.14794" lon="5.41928">
        <ele>1065.76</ele>
        <time>2014-10-30T10:20:41Z</time>
      </trkpt>
      <trkpt lat="45.14788" lon="5.41926">
        <ele>1067.07</ele>
        <time>2014-10-30T10:20:51Z</time>
      </trkpt>
      <trkpt lat="45.14784" lon="5.41922">
        <ele>1068.66</ele>
        <time>2014-10-30T10:21:01Z</time>
      </trkpt>
      <trkpt lat="45.14775" lon="5.41919">
        <ele>1069.47</ele>
        <time>2014-10-30T10:21:11Z</time>
      </trkpt>
      <trkpt lat="45.14776" lon="5.41918">
        <ele>1070.2</ele>
        <time>2014-10-30T10:21:21Z</time>
      </trkpt>
      <trkpt lat="45.14787" lon="5.41928">
        <ele>1072.6</ele>
        <time>2014-10-30T10:21:31Z</time>
      </trkpt>
      <trkpt lat="45.14782" lon="5.41924">
        <ele>1073.95</ele>
        <time>2014-10-30T10:21:41Z</time>
      </trkpt>
      <trkpt lat="45.14766" lon="5.41924">
        <ele>1075.56</ele>
        <time>2014-10-30T10:21:51Z</time>
      </trkpt>
      <trkpt lat="45.1476" lon="5.41918">
        <ele>1076.87</ele>
        <time>2014-10-30T10:22:01Z</time>
      </trkpt>
      <trkpt lat="45.14758" lon="5.41913">
        <ele>1077.7</ele>
        <time>2014-10-30T10:22:11Z</time>
      </trkpt>
      <trkpt lat="45.1475" lon="5.41904">
        <ele>1079.05</ele>
        <time>2014-10-30T10:22:23Z</time>
      </trkpt>
      <trkpt lat="45.14742" lon="5.41899">
        <ele>1081.07</ele>
        <time>2014-10-30T10:22:33Z</time>
      </trkpt>
      <trkpt lat="45.14735" lon="5.41898">
        <ele>1082.27</ele>
        <time>2014-10-30T10:22:43Z</time>
      </trkpt>
      <trkpt lat="45.14725" lon="5.41898">
        <ele>1083.57</ele>
        <time>2014-10-30T10:22:53Z</time>
      </trkpt>
      <trkpt lat="45.14715" lon="5.41896">
        <ele>1084.66</ele>
        <time>2014-10-30T10:23:03Z</time>
      </trkpt>
      <trkpt lat="45.14708" lon="5.41895">
        <ele>1085.97</ele>
        <time>2014-10-30T10:23:13Z</time>
      </trkpt>
      <trkpt lat="45.14693" lon="5.41896">
        <ele>1087.63</ele>
        <time>2014-10-30T10:23:23Z</time>
      </trkpt>
      <trkpt lat="45.14687" lon="5.41897">
        <ele>1089.34</ele>
        <time>2014-10-30T10:23:33Z</time>
      </trkpt>
      <trkpt lat="45.14681" lon="5.41896">
        <ele>1091.35</ele>
        <time>2014-10-30T10:23:43Z</time>
      </trkpt>
      <trkpt lat="45.14676" lon="5.41897">
        <ele>1093.73</ele>
        <time>2014-10-30T10:23:53Z</time>
      </trkpt>
      <trkpt lat="45.1467" lon="5.41898">
        <ele>1095.27</ele>
        <time>2014-10-30T10:24:03Z</time>
      </trkpt>
      <trkpt lat="45.14665" lon="5.41895">
        <ele>1097.23</ele>
        <time>2014-10-30T10:24:13Z</time>
      </trkpt>
      <trkpt lat="45.14658" lon="5.41893">
        <ele>1098.95</ele>
        <time>2014-10-30T10:24:23Z</time>
      </trkpt>
      <trkpt lat="45.14644" lon="5.41889">
        <ele>1100.76</ele>
        <time>2014-10-30T10:24:33Z</time>
      </trkpt>
      <trkpt lat="45.14633" lon="5.41881">
        <ele>1101.76</ele>
        <time>2014-10-30T10:24:43Z</time>
      </trkpt>
      <trkpt lat="45.14622" lon="5.41877">
        <ele>1103.13</ele>
        <time>2014-10-30T10:24:53Z</time>
      </trkpt>
      <trkpt lat="45.1461" lon="5.41873">
        <ele>1105.36</ele>
        <time>2014-10-30T10:25:03Z</time>
      </trkpt>
      <trkpt lat="45.14603" lon="5.41868">
        <ele>1106.27</ele>
        <time>2014-10-30T10:25:13Z</time>
      </trkpt>
      <trkpt lat="45.14598" lon="5.41865">
        <ele>1107.66</ele>
        <time>2014-10-30T10:25:23Z</time>
      </trkpt>
      <trkpt lat="45.14591" lon="5.41857">
        <ele>1109.04</ele>
        <time>2014-10-30T10:25:33Z</time>
      </trkpt>
      <trkpt lat="45.14582" lon="5.41854">
        <ele>1110.57</ele>
        <time>2014-10-30T10:25:43Z</time>
      </trkpt>
      <trkpt lat="45.14576" lon="5.4185">
        <ele>1112.14</ele>
        <time>2014-10-30T10:25:53Z</time>
      </trkpt>
      <trkpt lat="45.14572" lon="5.4185">
        <ele>1113.7</ele>
        <time>2014-10-30T10:26:03Z</time>
      </trkpt>
      <trkpt lat="45.14566" lon="5.41839">
        <ele>1116.1</ele>
        <time>2014-10-30T10:26:33Z</time>
      </trkpt>
      <trkpt lat="45.14562" lon="5.41835">
        <ele>1117.42</ele>
        <time>2014-10-30T10:26:59Z</time>
      </trkpt>
      <trkpt lat="45.14562" lon="5.41834">
        <ele>1117.6</ele>
        <time>2014-10-30T10:27:09Z</time>
      </trkpt>
      <trkpt lat="45.14557" lon="5.41837">
        <ele>1117.61</ele>
        <time>2014-10-30T10:27:19Z</time>
      </trkpt>
      <trkpt lat="45.14546" lon="5.41832">
        <ele>1117.5</ele>
        <time>2014-10-30T10:27:29Z</time>
      </trkpt>
      <trkpt lat="45.14533" lon="5.41828">
        <ele>1118.42</ele>
        <time>2014-10-30T10:27:39Z</time>
      </trkpt>
      <trkpt lat="45.14523" lon="5.41825">
        <ele>1118.5</ele>
        <time>2014-10-30T10:27:49Z</time>
      </trkpt>
      <trkpt lat="45.14514" lon="5.41818">
        <ele>1119.07</ele>
        <time>2014-10-30T10:27:59Z</time>
      </trkpt>
      <trkpt lat="45.14507" lon="5.41812">
        <ele>1119.6</ele>
        <time>2014-10-30T10:28:09Z</time>
      </trkpt>
      <trkpt lat="45.14493" lon="5.41802">
        <ele>1119.92</ele>
        <time>2014-10-30T10:28:19Z</time>
      </trkpt>
      <trkpt lat="45.14485" lon="5.41798">
        <ele>1119.8</ele>
        <time>2014-10-30T10:28:29Z</time>
      </trkpt>
      <trkpt lat="45.14478" lon="5.41794">
        <ele>1120.2</ele>
        <time>2014-10-30T10:28:39Z</time>
      </trkpt>
      <trkpt lat="45.14468" lon="5.41789">
        <ele>1120.92</ele>
        <time>2014-10-30T10:28:49Z</time>
      </trkpt>
      <trkpt lat="45.14461" lon="5.41786">
        <ele>1121.57</ele>
        <time>2014-10-30T10:28:59Z</time>
      </trkpt>
      <trkpt lat="45.14462" lon="5.41787">
        <ele>1121.9</ele>
        <time>2014-10-30T10:29:09Z</time>
      </trkpt>
      <trkpt lat="45.14455" lon="5.41784">
        <ele>1123.04</ele>
        <time>2014-10-30T10:29:19Z</time>
      </trkpt>
      <trkpt lat="45.14447" lon="5.4178">
        <ele>1123.89</ele>
        <time>2014-10-30T10:29:29Z</time>
      </trkpt>
      <trkpt lat="45.14439" lon="5.41778">
        <ele>1124.37</ele>
        <time>2014-10-30T10:29:39Z</time>
      </trkpt>
      <trkpt lat="45.14436" lon="5.41777">
        <ele>1126.7</ele>
        <time>2014-10-30T10:30:17Z</time>
      </trkpt>
      <trkpt lat="45.14429" lon="5.41781">
        <ele>1127.67</ele>
        <time>2014-10-30T10:30:27Z</time>
      </trkpt>
      <trkpt lat="45.1442" lon="5.41785">
        <ele>1127.9</ele>
        <time>2014-10-30T10:30:37Z</time>
      </trkpt>
      <trkpt lat="45.1441" lon="5.41786">
        <ele>1127.8</ele>
        <time>2014-10-30T10:30:47Z</time>
      </trkpt>
      <trkpt lat="45.14401" lon="5.4179">
        <ele>1127.73</ele>
        <time>2014-10-30T10:30:57Z</time>
      </trkpt>
      <trkpt lat="45.14392" lon="5.41796">
        <ele>1127.8</ele>
        <time>2014-10-30T10:31:07Z</time>
      </trkpt>
      <trkpt lat="45.14381" lon="5.41798">
        <ele>1127.8</ele>
        <time>2014-10-30T10:31:17Z</time>
      </trkpt>
      <trkpt lat="45.14371" lon="5.41801">
        <ele>1127.9</ele>
        <time>2014-10-30T10:31:27Z</time>
      </trkpt>
      <trkpt lat="45.14363" lon="5.41811">
        <ele>1127.8</ele>
        <time>2014-10-30T10:31:37Z</time>
      </trkpt>
      <trkpt lat="45.14357" lon="5.41822">
        <ele>1127.8</ele>
        <time>2014-10-30T10:31:47Z</time>
      </trkpt>
      <trkpt lat="45.14353" lon="5.41829">
        <ele>1127.8</ele>
        <time>2014-10-30T10:31:57Z</time>
      </trkpt>
      <trkpt lat="45.14351" lon="5.41836">
        <ele>1127.9</ele>
        <time>2014-10-30T10:32:07Z</time>
      </trkpt>
      <trkpt lat="45.14349" lon="5.41847">
        <ele>1127.99</ele>
        <time>2014-10-30T10:32:17Z</time>
      </trkpt>
      <trkpt lat="45.14347" lon="5.41857">
        <ele>1128</ele>
        <time>2014-10-30T10:32:27Z</time>
      </trkpt>
      <trkpt lat="45.14342" lon="5.41864">
        <ele>1128</ele>
        <time>2014-10-30T10:32:37Z</time>
      </trkpt>
      <trkpt lat="45.14342" lon="5.41862">
        <ele>1128</ele>
        <time>2014-10-30T10:32:47Z</time>
      </trkpt>
      <trkpt lat="45.14343" lon="5.41866">
        <ele>1128.3</ele>
        <time>2014-10-30T10:32:57Z</time>
      </trkpt>
      <trkpt lat="45.14335" lon="5.41878">
        <ele>1128.7</ele>
        <time>2014-10-30T10:33:07Z</time>
      </trkpt>
      <trkpt lat="45.14332" lon="5.41893">
        <ele>1128.35</ele>
        <time>2014-10-30T10:33:17Z</time>
      </trkpt>
      <trkpt lat="45.1433" lon="5.41903">
        <ele>1128.18</ele>
        <time>2014-10-30T10:33:27Z</time>
      </trkpt>
      <trkpt lat="45.14327" lon="5.41915">
        <ele>1128.3</ele>
        <time>2014-10-30T10:33:37Z</time>
      </trkpt>
      <trkpt lat="45.14319" lon="5.41927">
        <ele>1128.59</ele>
        <time>2014-10-30T10:33:47Z</time>
      </trkpt>
      <trkpt lat="45.14314" lon="5.41937">
        <ele>1128.89</ele>
        <time>2014-10-30T10:33:57Z</time>
      </trkpt>
      <trkpt lat="45.14304" lon="5.41944">
        <ele>1129.17</ele>
        <time>2014-10-30T10:34:07Z</time>
      </trkpt>
      <trkpt lat="45.14293" lon="5.41947">
        <ele>1129.5</ele>
        <time>2014-10-30T10:34:17Z</time>
      </trkpt>
      <trkpt lat="45.14285" lon="5.41955">
        <ele>1129.7</ele>
        <time>2014-10-30T10:34:27Z</time>
      </trkpt>
      <trkpt lat="45.14278" lon="5.41959">
        <ele>1130.56</ele>
        <time>2014-10-30T10:34:37Z</time>
      </trkpt>
      <trkpt lat="45.14274" lon="5.41961">
        <ele>1131.17</ele>
        <time>2014-10-30T10:34:47Z</time>
      </trkpt>
      <trkpt lat="45.14265" lon="5.41968">
        <ele>1133.38</ele>
        <time>2014-10-30T10:34:57Z</time>
      </trkpt>
      <trkpt lat="45.14256" lon="5.4197">
        <ele>1135.04</ele>
        <time>2014-10-30T10:35:07Z</time>
      </trkpt>
      <trkpt lat="45.14246" lon="5.41973">
        <ele>1135.87</ele>
        <time>2014-10-30T10:35:17Z</time>
      </trkpt>
      <trkpt lat="45.14239" lon="5.41975">
        <ele>1137.67</ele>
        <time>2014-10-30T10:35:27Z</time>
      </trkpt>
      <trkpt lat="45.14229" lon="5.4198">
        <ele>1138.37</ele>
        <time>2014-10-30T10:35:37Z</time>
      </trkpt>
      <trkpt lat="45.14222" lon="5.4198">
        <ele>1138.97</ele>
        <time>2014-10-30T10:35:47Z</time>
      </trkpt>
      <trkpt lat="45.14209" lon="5.4198">
        <ele>1140.74</ele>
        <time>2014-10-30T10:35:57Z</time>
      </trkpt>
      <trkpt lat="45.14197" lon="5.4198">
        <ele>1142.23</ele>
        <time>2014-10-30T10:36:07Z</time>
      </trkpt>
      <trkpt lat="45.1419" lon="5.41982">
        <ele>1143.39</ele>
        <time>2014-10-30T10:36:17Z</time>
      </trkpt>
      <trkpt lat="45.14185" lon="5.4198">
        <ele>1145.52</ele>
        <time>2014-10-30T10:40:37Z</time>
      </trkpt>
      <trkpt lat="45.14176" lon="5.41978">
        <ele>1146.59</ele>
        <time>2014-10-30T10:40:47Z</time>
      </trkpt>
      <trkpt lat="45.14175" lon="5.41963">
        <ele>1146.97</ele>
        <time>2014-10-30T10:40:57Z</time>
      </trkpt>
      <trkpt lat="45.14173" lon="5.41946">
        <ele>1147.27</ele>
        <time>2014-10-30T10:41:07Z</time>
      </trkpt>
      <trkpt lat="45.14174" lon="5.41944">
        <ele>1147.9</ele>
        <time>2014-10-30T10:41:17Z</time>
      </trkpt>
      <trkpt lat="45.14169" lon="5.41932">
        <ele>1148.67</ele>
        <time>2014-10-30T10:41:27Z</time>
      </trkpt>
      <trkpt lat="45.14159" lon="5.41928">
        <ele>1149.94</ele>
        <time>2014-10-30T10:41:37Z</time>
      </trkpt>
      <trkpt lat="45.1415" lon="5.41923">
        <ele>1151.43</ele>
        <time>2014-10-30T10:41:47Z</time>
      </trkpt>
      <trkpt lat="45.14139" lon="5.41918">
        <ele>1152.57</ele>
        <time>2014-10-30T10:41:57Z</time>
      </trkpt>
      <trkpt lat="45.14133" lon="5.41912">
        <ele>1154.56</ele>
        <time>2014-10-30T10:42:07Z</time>
      </trkpt>
      <trkpt lat="45.14123" lon="5.41907">
        <ele>1156.91</ele>
        <time>2014-10-30T10:42:17Z</time>
      </trkpt>
      <trkpt lat="45.14114" lon="5.41902">
        <ele>1158.17</ele>
        <time>2014-10-30T10:42:27Z</time>
      </trkpt>
      <trkpt lat="45.14102" lon="5.41897">
        <ele>1160.12</ele>
        <time>2014-10-30T10:42:37Z</time>
      </trkpt>
      <trkpt lat="45.14092" lon="5.41889">
        <ele>1161.24</ele>
        <time>2014-10-30T10:42:47Z</time>
      </trkpt>
      <trkpt lat="45.1409" lon="5.41884">
        <ele>1162.09</ele>
        <time>2014-10-30T10:42:57Z</time>
      </trkpt>
      <trkpt lat="45.14084" lon="5.41873">
        <ele>1162.29</ele>
        <time>2014-10-30T10:43:07Z</time>
      </trkpt>
      <trkpt lat="45.1408" lon="5.41861">
        <ele>1162.89</ele>
        <time>2014-10-30T10:43:17Z</time>
      </trkpt>
      <trkpt lat="45.14073" lon="5.41844">
        <ele>1164.16</ele>
        <time>2014-10-30T10:43:27Z</time>
      </trkpt>
      <trkpt lat="45.14068" lon="5.41826">
        <ele>1165.56</ele>
        <time>2014-10-30T10:43:37Z</time>
      </trkpt>
      <trkpt lat="45.14067" lon="5.41811">
        <ele>1166.66</ele>
        <time>2014-10-30T10:43:47Z</time>
      </trkpt>
      <trkpt lat="45.14063" lon="5.41794">
        <ele>1167.77</ele>
        <time>2014-10-30T10:43:57Z</time>
      </trkpt>
      <trkpt lat="45.14058" lon="5.41782">
        <ele>1168.29</ele>
        <time>2014-10-30T10:44:07Z</time>
      </trkpt>
      <trkpt lat="45.14056" lon="5.41768">
        <ele>1168.79</ele>
        <time>2014-10-30T10:44:17Z</time>
      </trkpt>
      <trkpt lat="45.14048" lon="5.41751">
        <ele>1168.93</ele>
        <time>2014-10-30T10:44:27Z</time>
      </trkpt>
      <trkpt lat="45.14039" lon="5.4173">
        <ele>1168.31</ele>
        <time>2014-10-30T10:44:37Z</time>
      </trkpt>
      <trkpt lat="45.14026" lon="5.41725">
        <ele>1167.9</ele>
        <time>2014-10-30T10:44:47Z</time>
      </trkpt>
      <trkpt lat="45.14016" lon="5.41729">
        <ele>1168.1</ele>
        <time>2014-10-30T10:44:57Z</time>
      </trkpt>
      <trkpt lat="45.14006" lon="5.41737">
        <ele>1168.77</ele>
        <time>2014-10-30T10:45:07Z</time>
      </trkpt>
      <trkpt lat="45.13996" lon="5.41748">
        <ele>1169.37</ele>
        <time>2014-10-30T10:45:17Z</time>
      </trkpt>
      <trkpt lat="45.13987" lon="5.41758">
        <ele>1169.5</ele>
        <time>2014-10-30T10:45:27Z</time>
      </trkpt>
      <trkpt lat="45.13979" lon="5.41766">
        <ele>1170.17</ele>
        <time>2014-10-30T10:45:37Z</time>
      </trkpt>
      <trkpt lat="45.13969" lon="5.4177">
        <ele>1171.73</ele>
        <time>2014-10-30T10:45:47Z</time>
      </trkpt>
      <trkpt lat="45.13959" lon="5.41761">
        <ele>1172.97</ele>
        <time>2014-10-30T10:45:57Z</time>
      </trkpt>
      <trkpt lat="45.13951" lon="5.41751">
        <ele>1173.5</ele>
        <time>2014-10-30T10:46:07Z</time>
      </trkpt>
      <trkpt lat="45.13942" lon="5.41736">
        <ele>1173.9</ele>
        <time>2014-10-30T10:46:17Z</time>
      </trkpt>
      <trkpt lat="45.13933" lon="5.41722">
        <ele>1172.84</ele>
        <time>2014-10-30T10:46:27Z</time>
      </trkpt>
      <trkpt lat="45.13919" lon="5.41716">
        <ele>1172.8</ele>
        <time>2014-10-30T10:46:37Z</time>
      </trkpt>
      <trkpt lat="45.13911" lon="5.41711">
        <ele>1173.07</ele>
        <time>2014-10-30T10:46:47Z</time>
      </trkpt>
      <trkpt lat="45.13899" lon="5.41715">
        <ele>1173.3</ele>
        <time>2014-10-30T10:46:57Z</time>
      </trkpt>
      <trkpt lat="45.13891" lon="5.41722">
        <ele>1173.5</ele>
        <time>2014-10-30T10:47:07Z</time>
      </trkpt>
      <trkpt lat="45.13882" lon="5.41715">
        <ele>1173.79</ele>
        <time>2014-10-30T10:47:17Z</time>
      </trkpt>
      <trkpt lat="45.13872" lon="5.41708">
        <ele>1174.59</ele>
        <time>2014-10-30T10:47:27Z</time>
      </trkpt>
      <trkpt lat="45.13862" lon="5.41705">
        <ele>1175.77</ele>
        <time>2014-10-30T10:47:37Z</time>
      </trkpt>
      <trkpt lat="45.13851" lon="5.41708">
        <ele>1176.54</ele>
        <time>2014-10-30T10:47:47Z</time>
      </trkpt>
      <trkpt lat="45.13841" lon="5.41703">
        <ele>1177.17</ele>
        <time>2014-10-30T10:47:57Z</time>
      </trkpt>
      <trkpt lat="45.1383" lon="5.41701">
        <ele>1178.13</ele>
        <time>2014-10-30T10:48:07Z</time>
      </trkpt>
      <trkpt lat="45.1382" lon="5.41699">
        <ele>1179.35</ele>
        <time>2014-10-30T10:48:17Z</time>
      </trkpt>
      <trkpt lat="45.13812" lon="5.41691">
        <ele>1180.96</ele>
        <time>2014-10-30T10:48:27Z</time>
      </trkpt>
      <trkpt lat="45.13804" lon="5.41687">
        <ele>1181.79</ele>
        <time>2014-10-30T10:48:37Z</time>
      </trkpt>
      <trkpt lat="45.13794" lon="5.41683">
        <ele>1183.14</ele>
        <time>2014-10-30T10:48:47Z</time>
      </trkpt>
      <trkpt lat="45.13785" lon="5.41676">
        <ele>1184.27</ele>
        <time>2014-10-30T10:48:57Z</time>
      </trkpt>
      <trkpt lat="45.13774" lon="5.41672">
        <ele>1185.27</ele>
        <time>2014-10-30T10:49:07Z</time>
      </trkpt>
      <trkpt lat="45.13764" lon="5.41664">
        <ele>1186.93</ele>
        <time>2014-10-30T10:49:17Z</time>
      </trkpt>
      <trkpt lat="45.13757" lon="5.41659">
        <ele>1187.34</ele>
        <time>2014-10-30T10:49:27Z</time>
      </trkpt>
      <trkpt lat="45.13756" lon="5.41658">
        <ele>1186.48</ele>
        <time>2014-10-30T10:49:53Z</time>
      </trkpt>
      <trkpt lat="45.13745" lon="5.41647">
        <ele>1187.26</ele>
        <time>2014-10-30T10:50:03Z</time>
      </trkpt>
      <trkpt lat="45.13735" lon="5.41637">
        <ele>1187.99</ele>
        <time>2014-10-30T10:50:13Z</time>
      </trkpt>
      <trkpt lat="45.13724" lon="5.41626">
        <ele>1188.67</ele>
        <time>2014-10-30T10:50:23Z</time>
      </trkpt>
      <trkpt lat="45.13712" lon="5.41613">
        <ele>1189.47</ele>
        <time>2014-10-30T10:50:33Z</time>
      </trkpt>
      <trkpt lat="45.13698" lon="5.41602">
        <ele>1190.05</ele>
        <time>2014-10-30T10:50:43Z</time>
      </trkpt>
      <trkpt lat="45.13687" lon="5.41593">
        <ele>1190.69</ele>
        <time>2014-10-30T10:50:53Z</time>
      </trkpt>
      <trkpt lat="45.13674" lon="5.41587">
        <ele>1191.07</ele>
        <time>2014-10-30T10:51:03Z</time>
      </trkpt>
      <trkpt lat="45.13665" lon="5.41577">
        <ele>1192.15</ele>
        <time>2014-10-30T10:51:13Z</time>
      </trkpt>
      <trkpt lat="45.13655" lon="5.41568">
        <ele>1193.17</ele>
        <time>2014-10-30T10:51:23Z</time>
      </trkpt>
      <trkpt lat="45.13643" lon="5.41559">
        <ele>1195.24</ele>
        <time>2014-10-30T10:51:33Z</time>
      </trkpt>
      <trkpt lat="45.13632" lon="5.41549">
        <ele>1197.06</ele>
        <time>2014-10-30T10:51:43Z</time>
      </trkpt>
      <trkpt lat="45.13629" lon="5.41543">
        <ele>1197.2</ele>
        <time>2014-10-30T10:51:53Z</time>
      </trkpt>
      <trkpt lat="45.13627" lon="5.41541">
        <ele>1196.3</ele>
        <time>2014-10-30T10:52:10Z</time>
      </trkpt>
      <trkpt lat="45.13627" lon="5.41527">
        <ele>1195.9</ele>
        <time>2014-10-30T10:52:20Z</time>
      </trkpt>
      <trkpt lat="45.13625" lon="5.41511">
        <ele>1196.47</ele>
        <time>2014-10-30T10:52:30Z</time>
      </trkpt>
      <trkpt lat="45.13619" lon="5.41495">
        <ele>1197.54</ele>
        <time>2014-10-30T10:52:40Z</time>
      </trkpt>
      <trkpt lat="45.1361" lon="5.41484">
        <ele>1199.83</ele>
        <time>2014-10-30T10:52:50Z</time>
      </trkpt>
      <trkpt lat="45.13605" lon="5.41473">
        <ele>1202.31</ele>
        <time>2014-10-30T10:53:00Z</time>
      </trkpt>
      <trkpt lat="45.136" lon="5.41464">
        <ele>1203.75</ele>
        <time>2014-10-30T10:53:10Z</time>
      </trkpt>
      <trkpt lat="45.13594" lon="5.41456">
        <ele>1205.46</ele>
        <time>2014-10-30T10:53:20Z</time>
      </trkpt>
      <trkpt lat="45.13589" lon="5.41449">
        <ele>1206.77</ele>
        <time>2014-10-30T10:53:30Z</time>
      </trkpt>
      <trkpt lat="45.13583" lon="5.41441">
        <ele>1208.04</ele>
        <time>2014-10-30T10:53:40Z</time>
      </trkpt>
      <trkpt lat="45.13576" lon="5.4143">
        <ele>1209.34</ele>
        <time>2014-10-30T10:53:50Z</time>
      </trkpt>
      <trkpt lat="45.13569" lon="5.41422">
        <ele>1211.18</ele>
        <time>2014-10-30T10:54:00Z</time>
      </trkpt>
      <trkpt lat="45.13564" lon="5.41413">
        <ele>1212.94</ele>
        <time>2014-10-30T10:54:10Z</time>
      </trkpt>
      <trkpt lat="45.13559" lon="5.41407">
        <ele>1214.54</ele>
        <time>2014-10-30T10:54:20Z</time>
      </trkpt>
      <trkpt lat="45.13552" lon="5.41402">
        <ele>1216.16</ele>
        <time>2014-10-30T10:54:30Z</time>
      </trkpt>
      <trkpt lat="45.13548" lon="5.41394">
        <ele>1217.56</ele>
        <time>2014-10-30T10:54:40Z</time>
      </trkpt>
      <trkpt lat="45.13546" lon="5.41388">
        <ele>1219.23</ele>
        <time>2014-10-30T10:54:50Z</time>
      </trkpt>
      <trkpt lat="45.13542" lon="5.41381">
        <ele>1221.13</ele>
        <time>2014-10-30T10:55:00Z</time>
      </trkpt>
      <trkpt lat="45.13532" lon="5.41375">
        <ele>1222.94</ele>
        <time>2014-10-30T10:55:10Z</time>
      </trkpt>
      <trkpt lat="45.13524" lon="5.41366">
        <ele>1224.75</ele>
        <time>2014-10-30T10:55:20Z</time>
      </trkpt>
      <trkpt lat="45.13517" lon="5.41362">
        <ele>1226.74</ele>
        <time>2014-10-30T10:55:30Z</time>
      </trkpt>
      <trkpt lat="45.13513" lon="5.41356">
        <ele>1228.36</ele>
        <time>2014-10-30T10:55:40Z</time>
      </trkpt>
      <trkpt lat="45.13508" lon="5.4135">
        <ele>1230.28</ele>
        <time>2014-10-30T10:55:50Z</time>
      </trkpt>
      <trkpt lat="45.13504" lon="5.41342">
        <ele>1231.07</ele>
        <time>2014-10-30T10:56:00Z</time>
      </trkpt>
      <trkpt lat="45.13495" lon="5.41334">
        <ele>1231.97</ele>
        <time>2014-10-30T10:56:10Z</time>
      </trkpt>
      <trkpt lat="45.13492" lon="5.41325">
        <ele>1233.26</ele>
        <time>2014-10-30T10:56:20Z</time>
      </trkpt>
      <trkpt lat="45.13487" lon="5.41319">
        <ele>1234.64</ele>
        <time>2014-10-30T10:56:30Z</time>
      </trkpt>
      <trkpt lat="45.13478" lon="5.41311">
        <ele>1235.76</ele>
        <time>2014-10-30T10:56:40Z</time>
      </trkpt>
      <trkpt lat="45.13472" lon="5.41306">
        <ele>1236.67</ele>
        <time>2014-10-30T10:56:50Z</time>
      </trkpt>
      <trkpt lat="45.13464" lon="5.41299">
        <ele>1238.04</ele>
        <time>2014-10-30T10:57:00Z</time>
      </trkpt>
      <trkpt lat="45.13455" lon="5.4129">
        <ele>1239.57</ele>
        <time>2014-10-30T10:57:10Z</time>
      </trkpt>
      <trkpt lat="45.13446" lon="5.41282">
        <ele>1240.94</ele>
        <time>2014-10-30T10:57:20Z</time>
      </trkpt>
      <trkpt lat="45.13441" lon="5.41275">
        <ele>1242.34</ele>
        <time>2014-10-30T10:57:30Z</time>
      </trkpt>
      <trkpt lat="45.13431" lon="5.41265">
        <ele>1243.56</ele>
        <time>2014-10-30T10:57:40Z</time>
      </trkpt>
      <trkpt lat="45.13423" lon="5.41257">
        <ele>1244.97</ele>
        <time>2014-10-30T10:57:50Z</time>
      </trkpt>
      <trkpt lat="45.13416" lon="5.4125">
        <ele>1246.34</ele>
        <time>2014-10-30T10:58:00Z</time>
      </trkpt>
      <trkpt lat="45.13405" lon="5.41244">
        <ele>1247.44</ele>
        <time>2014-10-30T10:58:10Z</time>
      </trkpt>
      <trkpt lat="45.13395" lon="5.41239">
        <ele>1248.37</ele>
        <time>2014-10-30T10:58:20Z</time>
      </trkpt>
      <trkpt lat="45.13387" lon="5.41233">
        <ele>1249.49</ele>
        <time>2014-10-30T10:58:30Z</time>
      </trkpt>
      <trkpt lat="45.13376" lon="5.41228">
        <ele>1250.76</ele>
        <time>2014-10-30T10:58:40Z</time>
      </trkpt>
      <trkpt lat="45.13366" lon="5.41225">
        <ele>1252.06</ele>
        <time>2014-10-30T10:58:50Z</time>
      </trkpt>
      <trkpt lat="45.13358" lon="5.41222">
        <ele>1253.37</ele>
        <time>2014-10-30T10:59:00Z</time>
      </trkpt>
      <trkpt lat="45.13351" lon="5.41218">
        <ele>1254.67</ele>
        <time>2014-10-30T10:59:10Z</time>
      </trkpt>
      <trkpt lat="45.13339" lon="5.41213">
        <ele>1255.96</ele>
        <time>2014-10-30T10:59:20Z</time>
      </trkpt>
      <trkpt lat="45.13328" lon="5.41213">
        <ele>1257.46</ele>
        <time>2014-10-30T10:59:30Z</time>
      </trkpt>
      <trkpt lat="45.13318" lon="5.41211">
        <ele>1258.74</ele>
        <time>2014-10-30T10:59:40Z</time>
      </trkpt>
      <trkpt lat="45.13309" lon="5.4121">
        <ele>1259.84</ele>
        <time>2014-10-30T10:59:50Z</time>
      </trkpt>
      <trkpt lat="45.13298" lon="5.41211">
        <ele>1261.16</ele>
        <time>2014-10-30T11:00:00Z</time>
      </trkpt>
      <trkpt lat="45.13289" lon="5.4121">
        <ele>1261.97</ele>
        <time>2014-10-30T11:00:10Z</time>
      </trkpt>
      <trkpt lat="45.1328" lon="5.41216">
        <ele>1263.24</ele>
        <time>2014-10-30T11:00:20Z</time>
      </trkpt>
      <trkpt lat="45.1327" lon="5.41223">
        <ele>1264.27</ele>
        <time>2014-10-30T11:00:30Z</time>
      </trkpt>
      <trkpt lat="45.13265" lon="5.4123">
        <ele>1265.15</ele>
        <time>2014-10-30T11:00:40Z</time>
      </trkpt>
      <trkpt lat="45.13258" lon="5.41239">
        <ele>1266.27</ele>
        <time>2014-10-30T11:00:50Z</time>
      </trkpt>
      <trkpt lat="45.1325" lon="5.41244">
        <ele>1267.54</ele>
        <time>2014-10-30T11:01:00Z</time>
      </trkpt>
      <trkpt lat="45.13245" lon="5.41251">
        <ele>1268.67</ele>
        <time>2014-10-30T11:01:10Z</time>
      </trkpt>
      <trkpt lat="45.13237" lon="5.41259">
        <ele>1269.1</ele>
        <time>2014-10-30T11:01:20Z</time>
      </trkpt>
      <trkpt lat="45.13231" lon="5.41263">
        <ele>1269.87</ele>
        <time>2014-10-30T11:01:30Z</time>
      </trkpt>
      <trkpt lat="45.13224" lon="5.41268">
        <ele>1270.87</ele>
        <time>2014-10-30T11:01:40Z</time>
      </trkpt>
      <trkpt lat="45.13217" lon="5.41274">
        <ele>1271.87</ele>
        <time>2014-10-30T11:01:50Z</time>
      </trkpt>
      <trkpt lat="45.13211" lon="5.41281">
        <ele>1273.16</ele>
        <time>2014-10-30T11:02:00Z</time>
      </trkpt>
      <trkpt lat="45.13206" lon="5.41287">
        <ele>1274.37</ele>
        <time>2014-10-30T11:02:10Z</time>
      </trkpt>
      <trkpt lat="45.13199" lon="5.41295">
        <ele>1275.47</ele>
        <time>2014-10-30T11:02:20Z</time>
      </trkpt>
      <trkpt lat="45.13193" lon="5.41304">
        <ele>1276.94</ele>
        <time>2014-10-30T11:02:30Z</time>
      </trkpt>
      <trkpt lat="45.13184" lon="5.41308">
        <ele>1278.56</ele>
        <time>2014-10-30T11:02:40Z</time>
      </trkpt>
      <trkpt lat="45.13176" lon="5.4131">
        <ele>1279.86</ele>
        <time>2014-10-30T11:02:50Z</time>
      </trkpt>
      <trkpt lat="45.13169" lon="5.41312">
        <ele>1281.16</ele>
        <time>2014-10-30T11:03:00Z</time>
      </trkpt>
      <trkpt lat="45.1316" lon="5.41313">
        <ele>1282.57</ele>
        <time>2014-10-30T11:03:10Z</time>
      </trkpt>
      <trkpt lat="45.13153" lon="5.41313">
        <ele>1283.86</ele>
        <time>2014-10-30T11:03:20Z</time>
      </trkpt>
      <trkpt lat="45.13149" lon="5.41314">
        <ele>1285.36</ele>
        <time>2014-10-30T11:03:30Z</time>
      </trkpt>
      <trkpt lat="45.1314" lon="5.41319">
        <ele>1286.74</ele>
        <time>2014-10-30T11:03:40Z</time>
      </trkpt>
      <trkpt lat="45.13132" lon="5.41326">
        <ele>1288.06</ele>
        <time>2014-10-30T11:03:50Z</time>
      </trkpt>
      <trkpt lat="45.13132" lon="5.41334">
        <ele>1289.18</ele>
        <time>2014-10-30T11:04:32Z</time>
      </trkpt>
      <trkpt lat="45.13129" lon="5.41341">
        <ele>1289.6</ele>
        <time>2014-10-30T11:04:42Z</time>
      </trkpt>
      <trkpt lat="45.13128" lon="5.41352">
        <ele>1289.7</ele>
        <time>2014-10-30T11:04:52Z</time>
      </trkpt>
      <trkpt lat="45.13124" lon="5.41362">
        <ele>1289.87</ele>
        <time>2014-10-30T11:05:02Z</time>
      </trkpt>
      <trkpt lat="45.13118" lon="5.41372">
        <ele>1290.09</ele>
        <time>2014-10-30T11:05:12Z</time>
      </trkpt>
      <trkpt lat="45.13113" lon="5.41389">
        <ele>1290.49</ele>
        <time>2014-10-30T11:05:22Z</time>
      </trkpt>
      <trkpt lat="45.13107" lon="5.41397">
        <ele>1291.19</ele>
        <time>2014-10-30T11:05:32Z</time>
      </trkpt>
      <trkpt lat="45.13104" lon="5.41412">
        <ele>1291.79</ele>
        <time>2014-10-30T11:05:42Z</time>
      </trkpt>
      <trkpt lat="45.13097" lon="5.41427">
        <ele>1292.39</ele>
        <time>2014-10-30T11:05:52Z</time>
      </trkpt>
      <trkpt lat="45.13093" lon="5.41442">
        <ele>1292.8</ele>
        <time>2014-10-30T11:06:02Z</time>
      </trkpt>
      <trkpt lat="45.13093" lon="5.41458">
        <ele>1293.1</ele>
        <time>2014-10-30T11:06:12Z</time>
      </trkpt>
      <trkpt lat="45.13097" lon="5.41475">
        <ele>1293.39</ele>
        <time>2014-10-30T11:06:22Z</time>
      </trkpt>
      <trkpt lat="45.13098" lon="5.4149">
        <ele>1293.77</ele>
        <time>2014-10-30T11:06:32Z</time>
      </trkpt>
      <trkpt lat="45.13096" lon="5.41516">
        <ele>1294.2</ele>
        <time>2014-10-30T11:06:42Z</time>
      </trkpt>
      <trkpt lat="45.13099" lon="5.41529">
        <ele>1294.87</ele>
        <time>2014-10-30T11:06:52Z</time>
      </trkpt>
      <trkpt lat="45.13102" lon="5.41539">
        <ele>1295.29</ele>
        <time>2014-10-30T11:07:02Z</time>
      </trkpt>
      <trkpt lat="45.13102" lon="5.41558">
        <ele>1295.37</ele>
        <time>2014-10-30T11:07:12Z</time>
      </trkpt>
      <trkpt lat="45.13103" lon="5.4157">
        <ele>1295.2</ele>
        <time>2014-10-30T11:07:22Z</time>
      </trkpt>
      <trkpt lat="45.13112" lon="5.41581">
        <ele>1294.63</ele>
        <time>2014-10-30T11:07:32Z</time>
      </trkpt>
      <trkpt lat="45.1312" lon="5.41598">
        <ele>1293.97</ele>
        <time>2014-10-30T11:07:42Z</time>
      </trkpt>
      <trkpt lat="45.1313" lon="5.41614">
        <ele>1292.85</ele>
        <time>2014-10-30T11:07:52Z</time>
      </trkpt>
      <trkpt lat="45.13142" lon="5.41621">
        <ele>1290.81</ele>
        <time>2014-10-30T11:08:02Z</time>
      </trkpt>
      <trkpt lat="45.13151" lon="5.41631">
        <ele>1289.83</ele>
        <time>2014-10-30T11:08:12Z</time>
      </trkpt>
      <trkpt lat="45.1316" lon="5.41639">
        <ele>1289.31</ele>
        <time>2014-10-30T11:08:22Z</time>
      </trkpt>
      <trkpt lat="45.13168" lon="5.41651">
        <ele>1289.6</ele>
        <time>2014-10-30T11:08:32Z</time>
      </trkpt>
      <trkpt lat="45.13174" lon="5.41663">
        <ele>1289.77</ele>
        <time>2014-10-30T11:08:42Z</time>
      </trkpt>
      <trkpt lat="45.13182" lon="5.41672">
        <ele>1290.17</ele>
        <time>2014-10-30T11:08:52Z</time>
      </trkpt>
      <trkpt lat="45.13189" lon="5.4168">
        <ele>1291.17</ele>
        <time>2014-10-30T11:09:02Z</time>
      </trkpt>
      <trkpt lat="45.13197" lon="5.41689">
        <ele>1291.89</ele>
        <time>2014-10-30T11:09:12Z</time>
      </trkpt>
      <trkpt lat="45.13203" lon="5.41701">
        <ele>1292.56</ele>
        <time>2014-10-30T11:09:22Z</time>
      </trkpt>
      <trkpt lat="45.13208" lon="5.41712">
        <ele>1293.47</ele>
        <time>2014-10-30T11:09:32Z</time>
      </trkpt>
      <trkpt lat="45.13217" lon="5.41717">
        <ele>1293.94</ele>
        <time>2014-10-30T11:09:42Z</time>
      </trkpt>
      <trkpt lat="45.13225" lon="5.41723">
        <ele>1294.79</ele>
        <time>2014-10-30T11:09:52Z</time>
      </trkpt>
      <trkpt lat="45.13233" lon="5.41734">
        <ele>1295.39</ele>
        <time>2014-10-30T11:10:02Z</time>
      </trkpt>
      <trkpt lat="45.13237" lon="5.41737">
        <ele>1296.49</ele>
        <time>2014-10-30T11:10:12Z</time>
      </trkpt>
      <trkpt lat="45.13236" lon="5.41741">
        <ele>1296.2</ele>
        <time>2014-10-30T11:10:26Z</time>
      </trkpt>
      <trkpt lat="45.13237" lon="5.41743">
        <ele>1296.4</ele>
        <time>2014-10-30T11:10:36Z</time>
      </trkpt>
      <trkpt lat="45.1324" lon="5.41746">
        <ele>1296.02</ele>
        <time>2014-10-30T11:11:06Z</time>
      </trkpt>
      <trkpt lat="45.13244" lon="5.41748">
        <ele>1295.97</ele>
        <time>2014-10-30T11:11:16Z</time>
      </trkpt>
      <trkpt lat="45.13244" lon="5.41749">
        <ele>1296.95</ele>
        <time>2014-10-30T11:11:51Z</time>
      </trkpt>
      <trkpt lat="45.13254" lon="5.41762">
        <ele>1297.01</ele>
        <time>2014-10-30T11:12:01Z</time>
      </trkpt>
      <trkpt lat="45.13266" lon="5.41773">
        <ele>1296.9</ele>
        <time>2014-10-30T11:12:11Z</time>
      </trkpt>
      <trkpt lat="45.13279" lon="5.41783">
        <ele>1296.3</ele>
        <time>2014-10-30T11:12:21Z</time>
      </trkpt>
      <trkpt lat="45.13291" lon="5.41791">
        <ele>1296.33</ele>
        <time>2014-10-30T11:12:31Z</time>
      </trkpt>
      <trkpt lat="45.13303" lon="5.41802">
        <ele>1296.11</ele>
        <time>2014-10-30T11:12:41Z</time>
      </trkpt>
      <trkpt lat="45.13313" lon="5.41815">
        <ele>1295.46</ele>
        <time>2014-10-30T11:12:51Z</time>
      </trkpt>
      <trkpt lat="45.13323" lon="5.4183">
        <ele>1294.33</ele>
        <time>2014-10-30T11:13:01Z</time>
      </trkpt>
      <trkpt lat="45.13332" lon="5.41842">
        <ele>1293.5</ele>
        <time>2014-10-30T11:13:11Z</time>
      </trkpt>
      <trkpt lat="45.13343" lon="5.41855">
        <ele>1292.93</ele>
        <time>2014-10-30T11:13:21Z</time>
      </trkpt>
      <trkpt lat="45.13351" lon="5.41864">
        <ele>1293.09</ele>
        <time>2014-10-30T11:13:31Z</time>
      </trkpt>
      <trkpt lat="45.13359" lon="5.41878">
        <ele>1294.07</ele>
        <time>2014-10-30T11:13:41Z</time>
      </trkpt>
      <trkpt lat="45.13367" lon="5.4189">
        <ele>1294.49</ele>
        <time>2014-10-30T11:13:51Z</time>
      </trkpt>
      <trkpt lat="45.13373" lon="5.41897">
        <ele>1294.9</ele>
        <time>2014-10-30T11:14:01Z</time>
      </trkpt>
      <trkpt lat="45.13375" lon="5.41897">
        <ele>1295.6</ele>
        <time>2014-10-30T11:14:11Z</time>
      </trkpt>
      <trkpt lat="45.13379" lon="5.41897">
        <ele>1295.6</ele>
        <time>2014-10-30T11:14:21Z</time>
      </trkpt>
      <trkpt lat="45.13384" lon="5.41899">
        <ele>1296.54</ele>
        <time>2014-10-30T11:14:31Z</time>
      </trkpt>
      <trkpt lat="45.13387" lon="5.41899">
        <ele>1297.57</ele>
        <time>2014-10-30T11:14:47Z</time>
      </trkpt>
      <trkpt lat="45.13391" lon="5.419">
        <ele>1297.97</ele>
        <time>2014-10-30T11:14:57Z</time>
      </trkpt>
      <trkpt lat="45.13392" lon="5.419">
        <ele>1298.2</ele>
        <time>2014-10-30T11:15:07Z</time>
      </trkpt>
      <trkpt lat="45.13393" lon="5.41896">
        <ele>1307.5</ele>
        <time>2014-10-30T12:00:24Z</time>
      </trkpt>
      <trkpt lat="45.13392" lon="5.41891">
        <ele>1309.08</ele>
        <time>2014-10-30T12:01:13Z</time>
      </trkpt>
      <trkpt lat="45.13386" lon="5.41889">
        <ele>1309.6</ele>
        <time>2014-10-30T12:01:23Z</time>
      </trkpt>
      <trkpt lat="45.13382" lon="5.41889">
        <ele>1309.99</ele>
        <time>2014-10-30T12:01:33Z</time>
      </trkpt>
      <trkpt lat="45.13378" lon="5.41891">
        <ele>1310.2</ele>
        <time>2014-10-30T12:01:43Z</time>
      </trkpt>
      <trkpt lat="45.13373" lon="5.41892">
        <ele>1310.2</ele>
        <time>2014-10-30T12:01:53Z</time>
      </trkpt>
      <trkpt lat="45.1337" lon="5.41889">
        <ele>1310.1</ele>
        <time>2014-10-30T12:02:03Z</time>
      </trkpt>
      <trkpt lat="45.13369" lon="5.41888">
        <ele>1310.1</ele>
        <time>2014-10-30T12:02:13Z</time>
      </trkpt>
      <trkpt lat="45.13366" lon="5.41881">
        <ele>1309.41</ele>
        <time>2014-10-30T12:02:23Z</time>
      </trkpt>
      <trkpt lat="45.13367" lon="5.41873">
        <ele>1308.73</ele>
        <time>2014-10-30T12:02:33Z</time>
      </trkpt>
      <trkpt lat="45.13369" lon="5.41865">
        <ele>1308.13</ele>
        <time>2014-10-30T12:02:43Z</time>
      </trkpt>
      <trkpt lat="45.13373" lon="5.41858">
        <ele>1307.83</ele>
        <time>2014-10-30T12:02:53Z</time>
      </trkpt>
      <trkpt lat="45.13376" lon="5.41853">
        <ele>1307.7</ele>
        <time>2014-10-30T12:03:03Z</time>
      </trkpt>
      <trkpt lat="45.13378" lon="5.41843">
        <ele>1307.43</ele>
        <time>2014-10-30T12:03:13Z</time>
      </trkpt>
      <trkpt lat="45.13379" lon="5.4184">
        <ele>1307.1</ele>
        <time>2014-10-30T12:03:23Z</time>
      </trkpt>
      <trkpt lat="45.13381" lon="5.41841">
        <ele>1305.52</ele>
        <time>2014-10-30T12:04:07Z</time>
      </trkpt>
      <trkpt lat="45.13389" lon="5.4184">
        <ele>1304.51</ele>
        <time>2014-10-30T12:04:17Z</time>
      </trkpt>
      <trkpt lat="45.13401" lon="5.41837">
        <ele>1303.61</ele>
        <time>2014-10-30T12:04:27Z</time>
      </trkpt>
      <trkpt lat="45.13409" lon="5.41838">
        <ele>1303.2</ele>
        <time>2014-10-30T12:04:37Z</time>
      </trkpt>
      <trkpt lat="45.13414" lon="5.41842">
        <ele>1303.43</ele>
        <time>2014-10-30T12:04:47Z</time>
      </trkpt>
      <trkpt lat="45.13421" lon="5.4185">
        <ele>1303.5</ele>
        <time>2014-10-30T12:04:57Z</time>
      </trkpt>
      <trkpt lat="45.13429" lon="5.41853">
        <ele>1303.4</ele>
        <time>2014-10-30T12:05:07Z</time>
      </trkpt>
      <trkpt lat="45.13442" lon="5.41861">
        <ele>1303.79</ele>
        <time>2014-10-30T12:05:17Z</time>
      </trkpt>
      <trkpt lat="45.13451" lon="5.41871">
        <ele>1303.33</ele>
        <time>2014-10-30T12:05:27Z</time>
      </trkpt>
      <trkpt lat="45.13458" lon="5.41884">
        <ele>1303.13</ele>
        <time>2014-10-30T12:05:37Z</time>
      </trkpt>
      <trkpt lat="45.13466" lon="5.41895">
        <ele>1303.29</ele>
        <time>2014-10-30T12:05:47Z</time>
      </trkpt>
      <trkpt lat="45.13474" lon="5.41908">
        <ele>1303.39</ele>
        <time>2014-10-30T12:05:57Z</time>
      </trkpt>
      <trkpt lat="45.1348" lon="5.4192">
        <ele>1303.77</ele>
        <time>2014-10-30T12:06:07Z</time>
      </trkpt>
      <trkpt lat="45.13484" lon="5.41922">
        <ele>1303.9</ele>
        <time>2014-10-30T12:06:17Z</time>
      </trkpt>
      <trkpt lat="45.1349" lon="5.41922">
        <ele>1303.9</ele>
        <time>2014-10-30T12:06:27Z</time>
      </trkpt>
      <trkpt lat="45.135" lon="5.41917">
        <ele>1303.6</ele>
        <time>2014-10-30T12:06:37Z</time>
      </trkpt>
      <trkpt lat="45.13511" lon="5.41912">
        <ele>1303.4</ele>
        <time>2014-10-30T12:06:47Z</time>
      </trkpt>
      <trkpt lat="45.13521" lon="5.41905">
        <ele>1302.95</ele>
        <time>2014-10-30T12:06:57Z</time>
      </trkpt>
      <trkpt lat="45.13533" lon="5.41901">
        <ele>1302.43</ele>
        <time>2014-10-30T12:07:07Z</time>
      </trkpt>
      <trkpt lat="45.13541" lon="5.419">
        <ele>1302.92</ele>
        <time>2014-10-30T12:07:17Z</time>
      </trkpt>
      <trkpt lat="45.1355" lon="5.41896">
        <ele>1303.19</ele>
        <time>2014-10-30T12:07:27Z</time>
      </trkpt>
      <trkpt lat="45.13556" lon="5.4189">
        <ele>1303.1</ele>
        <time>2014-10-30T12:07:37Z</time>
      </trkpt>
      <trkpt lat="45.13567" lon="5.41886">
        <ele>1303.1</ele>
        <time>2014-10-30T12:07:47Z</time>
      </trkpt>
      <trkpt lat="45.13573" lon="5.41886">
        <ele>1302.88</ele>
        <time>2014-10-30T12:07:57Z</time>
      </trkpt>
      <trkpt lat="45.13578" lon="5.41893">
        <ele>1303.15</ele>
        <time>2014-10-30T12:08:26Z</time>
      </trkpt>
      <trkpt lat="45.13584" lon="5.41901">
        <ele>1303.3</ele>
        <time>2014-10-30T12:08:36Z</time>
      </trkpt>
      <trkpt lat="45.13588" lon="5.41912">
        <ele>1303.87</ele>
        <time>2014-10-30T12:08:46Z</time>
      </trkpt>
      <trkpt lat="45.13592" lon="5.41923">
        <ele>1304.17</ele>
        <time>2014-10-30T12:08:56Z</time>
      </trkpt>
      <trkpt lat="45.13595" lon="5.41936">
        <ele>1304.3</ele>
        <time>2014-10-30T12:09:06Z</time>
      </trkpt>
      <trkpt lat="45.13597" lon="5.41943">
        <ele>1304.59</ele>
        <time>2014-10-30T12:09:16Z</time>
      </trkpt>
      <trkpt lat="45.13602" lon="5.41954">
        <ele>1305.36</ele>
        <time>2014-10-30T12:09:26Z</time>
      </trkpt>
      <trkpt lat="45.1361" lon="5.41963">
        <ele>1306.27</ele>
        <time>2014-10-30T12:09:36Z</time>
      </trkpt>
      <trkpt lat="45.13619" lon="5.41973">
        <ele>1307.07</ele>
        <time>2014-10-30T12:09:46Z</time>
      </trkpt>
      <trkpt lat="45.13629" lon="5.41983">
        <ele>1308.14</ele>
        <time>2014-10-30T12:09:56Z</time>
      </trkpt>
      <trkpt lat="45.13634" lon="5.41989">
        <ele>1308.57</ele>
        <time>2014-10-30T12:10:06Z</time>
      </trkpt>
      <trkpt lat="45.13638" lon="5.41995">
        <ele>1308.79</ele>
        <time>2014-10-30T12:10:16Z</time>
      </trkpt>
      <trkpt lat="45.13645" lon="5.42004">
        <ele>1309.49</ele>
        <time>2014-10-30T12:10:26Z</time>
      </trkpt>
      <trkpt lat="45.1365" lon="5.42012">
        <ele>1309.97</ele>
        <time>2014-10-30T12:10:36Z</time>
      </trkpt>
      <trkpt lat="45.13654" lon="5.42024">
        <ele>1310.2</ele>
        <time>2014-10-30T12:10:46Z</time>
      </trkpt>
      <trkpt lat="45.13657" lon="5.42036">
        <ele>1310.49</ele>
        <time>2014-10-30T12:10:56Z</time>
      </trkpt>
      <trkpt lat="45.13661" lon="5.42046">
        <ele>1311.17</ele>
        <time>2014-10-30T12:11:06Z</time>
      </trkpt>
      <trkpt lat="45.1366" lon="5.42048">
        <ele>1311.4</ele>
        <time>2014-10-30T12:11:16Z</time>
      </trkpt>
      <trkpt lat="45.13661" lon="5.42061">
        <ele>1312.15</ele>
        <time>2014-10-30T12:11:27Z</time>
      </trkpt>
      <trkpt lat="45.13665" lon="5.42072">
        <ele>1313.07</ele>
        <time>2014-10-30T12:11:37Z</time>
      </trkpt>
      <trkpt lat="45.13665" lon="5.42084">
        <ele>1313.87</ele>
        <time>2014-10-30T12:11:47Z</time>
      </trkpt>
      <trkpt lat="45.13661" lon="5.42095">
        <ele>1314.69</ele>
        <time>2014-10-30T12:11:57Z</time>
      </trkpt>
      <trkpt lat="45.1366" lon="5.42108">
        <ele>1315.49</ele>
        <time>2014-10-30T12:12:07Z</time>
      </trkpt>
      <trkpt lat="45.13661" lon="5.42128">
        <ele>1316.63</ele>
        <time>2014-10-30T12:12:17Z</time>
      </trkpt>
      <trkpt lat="45.13659" lon="5.42137">
        <ele>1317.85</ele>
        <time>2014-10-30T12:12:27Z</time>
      </trkpt>
      <trkpt lat="45.13659" lon="5.42145">
        <ele>1318.4</ele>
        <time>2014-10-30T12:12:37Z</time>
      </trkpt>
      <trkpt lat="45.13661" lon="5.42158">
        <ele>1316.9</ele>
        <time>2014-10-30T12:14:20Z</time>
      </trkpt>
      <trkpt lat="45.13661" lon="5.42168">
        <ele>1316.7</ele>
        <time>2014-10-30T12:14:30Z</time>
      </trkpt>
      <trkpt lat="45.13661" lon="5.42177">
        <ele>1317.17</ele>
        <time>2014-10-30T12:14:40Z</time>
      </trkpt>
      <trkpt lat="45.13659" lon="5.42183">
        <ele>1317.86</ele>
        <time>2014-10-30T12:14:50Z</time>
      </trkpt>
      <trkpt lat="45.13658" lon="5.42187">
        <ele>1318.3</ele>
        <time>2014-10-30T12:15:00Z</time>
      </trkpt>
      <trkpt lat="45.13658" lon="5.42199">
        <ele>1319.1</ele>
        <time>2014-10-30T12:15:10Z</time>
      </trkpt>
      <trkpt lat="45.13662" lon="5.42215">
        <ele>1319.67</ele>
        <time>2014-10-30T12:15:20Z</time>
      </trkpt>
      <trkpt lat="45.1367" lon="5.42229">
        <ele>1320.37</ele>
        <time>2014-10-30T12:15:30Z</time>
      </trkpt>
      <trkpt lat="45.13677" lon="5.42246">
        <ele>1320.99</ele>
        <time>2014-10-30T12:15:40Z</time>
      </trkpt>
      <trkpt lat="45.13684" lon="5.42253">
        <ele>1321.39</ele>
        <time>2014-10-30T12:15:50Z</time>
      </trkpt>
      <trkpt lat="45.13691" lon="5.42257">
        <ele>1321.6</ele>
        <time>2014-10-30T12:16:00Z</time>
      </trkpt>
      <trkpt lat="45.137" lon="5.42257">
        <ele>1322.15</ele>
        <time>2014-10-30T12:16:10Z</time>
      </trkpt>
      <trkpt lat="45.13708" lon="5.4226">
        <ele>1322.75</ele>
        <time>2014-10-30T12:16:20Z</time>
      </trkpt>
      <trkpt lat="45.13716" lon="5.42262">
        <ele>1323.1</ele>
        <time>2014-10-30T12:16:30Z</time>
      </trkpt>
      <trkpt lat="45.13725" lon="5.42266">
        <ele>1323.1</ele>
        <time>2014-10-30T12:16:40Z</time>
      </trkpt>
      <trkpt lat="45.13732" lon="5.42271">
        <ele>1323.19</ele>
        <time>2014-10-30T12:16:50Z</time>
      </trkpt>
      <trkpt lat="45.13739" lon="5.42279">
        <ele>1323.2</ele>
        <time>2014-10-30T12:17:00Z</time>
      </trkpt>
      <trkpt lat="45.13746" lon="5.42289">
        <ele>1323.47</ele>
        <time>2014-10-30T12:17:10Z</time>
      </trkpt>
      <trkpt lat="45.13752" lon="5.42297">
        <ele>1323.53</ele>
        <time>2014-10-30T12:17:20Z</time>
      </trkpt>
      <trkpt lat="45.13756" lon="5.42306">
        <ele>1322.6</ele>
        <time>2014-10-30T12:17:30Z</time>
      </trkpt>
      <trkpt lat="45.1376" lon="5.4232">
        <ele>1322.4</ele>
        <time>2014-10-30T12:17:40Z</time>
      </trkpt>
      <trkpt lat="45.13757" lon="5.4233">
        <ele>1322.04</ele>
        <time>2014-10-30T12:17:50Z</time>
      </trkpt>
      <trkpt lat="45.13755" lon="5.42342">
        <ele>1321.23</ele>
        <time>2014-10-30T12:18:00Z</time>
      </trkpt>
      <trkpt lat="45.1376" lon="5.42353">
        <ele>1320.65</ele>
        <time>2014-10-30T12:18:10Z</time>
      </trkpt>
      <trkpt lat="45.13763" lon="5.42367">
        <ele>1320.03</ele>
        <time>2014-10-30T12:18:20Z</time>
      </trkpt>
      <trkpt lat="45.13767" lon="5.42379">
        <ele>1319.01</ele>
        <time>2014-10-30T12:18:30Z</time>
      </trkpt>
      <trkpt lat="45.13771" lon="5.4239">
        <ele>1318.63</ele>
        <time>2014-10-30T12:18:40Z</time>
      </trkpt>
      <trkpt lat="45.13772" lon="5.42402">
        <ele>1317.85</ele>
        <time>2014-10-30T12:18:50Z</time>
      </trkpt>
      <trkpt lat="45.13773" lon="5.42413">
        <ele>1317.31</ele>
        <time>2014-10-30T12:19:00Z</time>
      </trkpt>
      <trkpt lat="45.13783" lon="5.42427">
        <ele>1316.9</ele>
        <time>2014-10-30T12:19:10Z</time>
      </trkpt>
      <trkpt lat="45.13791" lon="5.42441">
        <ele>1316.53</ele>
        <time>2014-10-30T12:19:20Z</time>
      </trkpt>
      <trkpt lat="45.13794" lon="5.42456">
        <ele>1315.51</ele>
        <time>2014-10-30T12:19:30Z</time>
      </trkpt>
      <trkpt lat="45.13799" lon="5.42471">
        <ele>1314.51</ele>
        <time>2014-10-30T12:19:40Z</time>
      </trkpt>
      <trkpt lat="45.13801" lon="5.4248">
        <ele>1313.51</ele>
        <time>2014-10-30T12:19:50Z</time>
      </trkpt>
      <trkpt lat="45.13799" lon="5.42488">
        <ele>1312.43</ele>
        <time>2014-10-30T12:20:00Z</time>
      </trkpt>
      <trkpt lat="45.13799" lon="5.42499">
        <ele>1311.93</ele>
        <time>2014-10-30T12:20:10Z</time>
      </trkpt>
      <trkpt lat="45.13801" lon="5.42506">
        <ele>1311.23</ele>
        <time>2014-10-30T12:20:20Z</time>
      </trkpt>
      <trkpt lat="45.13804" lon="5.42515">
        <ele>1310.26</ele>
        <time>2014-10-30T12:20:30Z</time>
      </trkpt>
      <trkpt lat="45.13807" lon="5.42525">
        <ele>1309.9</ele>
        <time>2014-10-30T12:20:40Z</time>
      </trkpt>
      <trkpt lat="45.1381" lon="5.42533">
        <ele>1309.6</ele>
        <time>2014-10-30T12:20:50Z</time>
      </trkpt>
      <trkpt lat="45.13815" lon="5.42548">
        <ele>1309.33</ele>
        <time>2014-10-30T12:21:00Z</time>
      </trkpt>
      <trkpt lat="45.13818" lon="5.4257">
        <ele>1308.63</ele>
        <time>2014-10-30T12:21:10Z</time>
      </trkpt>
      <trkpt lat="45.13816" lon="5.4258">
        <ele>1307.73</ele>
        <time>2014-10-30T12:21:20Z</time>
      </trkpt>
      <trkpt lat="45.13819" lon="5.42589">
        <ele>1307.13</ele>
        <time>2014-10-30T12:21:30Z</time>
      </trkpt>
      <trkpt lat="45.13826" lon="5.426">
        <ele>1307.02</ele>
        <time>2014-10-30T12:21:58Z</time>
      </trkpt>
      <trkpt lat="45.13827" lon="5.42607">
        <ele>1307</ele>
        <time>2014-10-30T12:22:08Z</time>
      </trkpt>
      <trkpt lat="45.13828" lon="5.4261">
        <ele>1306.8</ele>
        <time>2014-10-30T12:22:18Z</time>
      </trkpt>
      <trkpt lat="45.13831" lon="5.42616">
        <ele>1306.62</ele>
        <time>2014-10-30T12:22:28Z</time>
      </trkpt>
      <trkpt lat="45.13833" lon="5.42621">
        <ele>1306.5</ele>
        <time>2014-10-30T12:22:38Z</time>
      </trkpt>
      <trkpt lat="45.13838" lon="5.42632">
        <ele>1306.65</ele>
        <time>2014-10-30T12:22:49Z</time>
      </trkpt>
      <trkpt lat="45.13841" lon="5.42642">
        <ele>1306.89</ele>
        <time>2014-10-30T12:22:59Z</time>
      </trkpt>
      <trkpt lat="45.1384" lon="5.42651">
        <ele>1306.9</ele>
        <time>2014-10-30T12:23:09Z</time>
      </trkpt>
      <trkpt lat="45.13839" lon="5.42663">
        <ele>1306.7</ele>
        <time>2014-10-30T12:23:19Z</time>
      </trkpt>
      <trkpt lat="45.13836" lon="5.42672">
        <ele>1306.53</ele>
        <time>2014-10-30T12:23:29Z</time>
      </trkpt>
      <trkpt lat="45.13836" lon="5.42681">
        <ele>1306.3</ele>
        <time>2014-10-30T12:23:39Z</time>
      </trkpt>
      <trkpt lat="45.13842" lon="5.42692">
        <ele>1305.18</ele>
        <time>2014-10-30T12:24:25Z</time>
      </trkpt>
      <trkpt lat="45.13838" lon="5.42686">
        <ele>1304.48</ele>
        <time>2014-10-30T12:25:25Z</time>
      </trkpt>
      <trkpt lat="45.13835" lon="5.42686">
        <ele>1304.5</ele>
        <time>2014-10-30T12:25:35Z</time>
      </trkpt>
      <trkpt lat="45.13833" lon="5.42687">
        <ele>1304.5</ele>
        <time>2014-10-30T12:25:45Z</time>
      </trkpt>
      <trkpt lat="45.13826" lon="5.42697">
        <ele>1304.7</ele>
        <time>2014-10-30T12:25:55Z</time>
      </trkpt>
      <trkpt lat="45.13827" lon="5.42709">
        <ele>1303.88</ele>
        <time>2014-10-30T12:26:43Z</time>
      </trkpt>
      <trkpt lat="45.13831" lon="5.42712">
        <ele>1303.6</ele>
        <time>2014-10-30T12:26:53Z</time>
      </trkpt>
      <trkpt lat="45.13836" lon="5.42714">
        <ele>1303.51</ele>
        <time>2014-10-30T12:27:03Z</time>
      </trkpt>
      <trkpt lat="45.13836" lon="5.42715">
        <ele>1303.4</ele>
        <time>2014-10-30T12:27:13Z</time>
      </trkpt>
      <trkpt lat="45.13846" lon="5.4272">
        <ele>1303.3</ele>
        <time>2014-10-30T12:27:23Z</time>
      </trkpt>
      <trkpt lat="45.1385" lon="5.42716">
        <ele>1303.5</ele>
        <time>2014-10-30T12:27:33Z</time>
      </trkpt>
      <trkpt lat="45.1385" lon="5.42717">
        <ele>1303.5</ele>
        <time>2014-10-30T12:27:43Z</time>
      </trkpt>
      <trkpt lat="45.13855" lon="5.42718">
        <ele>1303.6</ele>
        <time>2014-10-30T12:27:53Z</time>
      </trkpt>
      <trkpt lat="45.13858" lon="5.42717">
        <ele>1303.5</ele>
        <time>2014-10-30T12:28:03Z</time>
      </trkpt>
      <trkpt lat="45.13861" lon="5.42719">
        <ele>1303.5</ele>
        <time>2014-10-30T12:28:17Z</time>
      </trkpt>
      <trkpt lat="45.13865" lon="5.42721">
        <ele>1303.72</ele>
        <time>2014-10-30T12:28:27Z</time>
      </trkpt>
      <trkpt lat="45.13872" lon="5.42731">
        <ele>1304</ele>
        <time>2014-10-30T12:28:37Z</time>
      </trkpt>
      <trkpt lat="45.13876" lon="5.42735">
        <ele>1304.15</ele>
        <time>2014-10-30T12:28:48Z</time>
      </trkpt>
      <trkpt lat="45.13878" lon="5.42736">
        <ele>1304.69</ele>
        <time>2014-10-30T12:28:58Z</time>
      </trkpt>
      <trkpt lat="45.13877" lon="5.42733">
        <ele>1305.1</ele>
        <time>2014-10-30T12:29:08Z</time>
      </trkpt>
      <trkpt lat="45.13875" lon="5.42727">
        <ele>1305.1</ele>
        <time>2014-10-30T12:29:18Z</time>
      </trkpt>
      <trkpt lat="45.1388" lon="5.42732">
        <ele>1304.9</ele>
        <time>2014-10-30T12:29:28Z</time>
      </trkpt>
      <trkpt lat="45.13879" lon="5.42729">
        <ele>1305.09</ele>
        <time>2014-10-30T12:29:38Z</time>
      </trkpt>
      <trkpt lat="45.13881" lon="5.4273">
        <ele>1305.3</ele>
        <time>2014-10-30T12:29:48Z</time>
      </trkpt>
      <trkpt lat="45.13879" lon="5.42727">
        <ele>1305.49</ele>
        <time>2014-10-30T12:30:00Z</time>
      </trkpt>
      <trkpt lat="45.13879" lon="5.42726">
        <ele>1305.4</ele>
        <time>2014-10-30T12:30:10Z</time>
      </trkpt>
      <trkpt lat="45.13877" lon="5.42722">
        <ele>1305.78</ele>
        <time>2014-10-30T12:30:24Z</time>
      </trkpt>
      <trkpt lat="45.13886" lon="5.42728">
        <ele>1303</ele>
        <time>2014-10-30T12:30:36Z</time>
      </trkpt>
      <trkpt lat="45.13891" lon="5.42728">
        <ele>1300.4</ele>
        <time>2014-10-30T12:30:46Z</time>
      </trkpt>
      <trkpt lat="45.13885" lon="5.42733">
        <ele>1298.84</ele>
        <time>2014-10-30T12:30:56Z</time>
      </trkpt>
      <trkpt lat="45.13885" lon="5.42737">
        <ele>1295.97</ele>
        <time>2014-10-30T12:31:06Z</time>
      </trkpt>
      <trkpt lat="45.13886" lon="5.42738">
        <ele>1293.1</ele>
        <time>2014-10-30T12:31:16Z</time>
      </trkpt>
      <trkpt lat="45.13881" lon="5.42738">
        <ele>1290.32</ele>
        <time>2014-10-30T12:31:36Z</time>
      </trkpt>
      <trkpt lat="45.13876" lon="5.4274">
        <ele>1286.55</ele>
        <time>2014-10-30T12:32:03Z</time>
      </trkpt>
      <trkpt lat="45.1387" lon="5.42734">
        <ele>1284.83</ele>
        <time>2014-10-30T12:32:20Z</time>
      </trkpt>
      <trkpt lat="45.13857" lon="5.42717">
        <ele>1284.82</ele>
        <time>2014-10-30T12:32:30Z</time>
      </trkpt>
      <trkpt lat="45.13852" lon="5.42715">
        <ele>1285.2</ele>
        <time>2014-10-30T12:32:40Z</time>
      </trkpt>
      <trkpt lat="45.13845" lon="5.42712">
        <ele>1285.5</ele>
        <time>2014-10-30T12:32:50Z</time>
      </trkpt>
      <trkpt lat="45.13841" lon="5.42711">
        <ele>1285.8</ele>
        <time>2014-10-30T12:33:00Z</time>
      </trkpt>
      <trkpt lat="45.13839" lon="5.42711">
        <ele>1286.18</ele>
        <time>2014-10-30T12:33:12Z</time>
      </trkpt>
      <trkpt lat="45.13835" lon="5.42709">
        <ele>1287.06</ele>
        <time>2014-10-30T12:33:22Z</time>
      </trkpt>
      <trkpt lat="45.13834" lon="5.42701">
        <ele>1287.7</ele>
        <time>2014-10-30T12:33:32Z</time>
      </trkpt>
      <trkpt lat="45.13828" lon="5.427">
        <ele>1288.5</ele>
        <time>2014-10-30T12:33:42Z</time>
      </trkpt>
      <trkpt lat="45.13826" lon="5.42701">
        <ele>1289</ele>
        <time>2014-10-30T12:33:52Z</time>
      </trkpt>
      <trkpt lat="45.1382" lon="5.42705">
        <ele>1290.17</ele>
        <time>2014-10-30T12:34:02Z</time>
      </trkpt>
      <trkpt lat="45.13813" lon="5.42715">
        <ele>1291.14</ele>
        <time>2014-10-30T12:34:12Z</time>
      </trkpt>
      <trkpt lat="45.13812" lon="5.42724">
        <ele>1290.99</ele>
        <time>2014-10-30T12:34:22Z</time>
      </trkpt>
      <trkpt lat="45.13816" lon="5.42736">
        <ele>1292.42</ele>
        <time>2014-10-30T12:34:53Z</time>
      </trkpt>
      <trkpt lat="45.13824" lon="5.42742">
        <ele>1293.55</ele>
        <time>2014-10-30T12:35:31Z</time>
      </trkpt>
      <trkpt lat="45.13828" lon="5.42751">
        <ele>1294.3</ele>
        <time>2014-10-30T12:35:41Z</time>
      </trkpt>
      <trkpt lat="45.13828" lon="5.4276">
        <ele>1294.4</ele>
        <time>2014-10-30T12:35:51Z</time>
      </trkpt>
      <trkpt lat="45.13827" lon="5.42772">
        <ele>1294.38</ele>
        <time>2014-10-30T12:36:01Z</time>
      </trkpt>
      <trkpt lat="45.13824" lon="5.42789">
        <ele>1293.91</ele>
        <time>2014-10-30T12:36:11Z</time>
      </trkpt>
      <trkpt lat="45.13823" lon="5.428">
        <ele>1293.8</ele>
        <time>2014-10-30T12:36:21Z</time>
      </trkpt>
      <trkpt lat="45.13823" lon="5.42803">
        <ele>1293.4</ele>
        <time>2014-10-30T12:36:31Z</time>
      </trkpt>
      <trkpt lat="45.13819" lon="5.42806">
        <ele>1293.67</ele>
        <time>2014-10-30T12:36:41Z</time>
      </trkpt>
      <trkpt lat="45.13816" lon="5.42812">
        <ele>1293.63</ele>
        <time>2014-10-30T12:36:51Z</time>
      </trkpt>
      <trkpt lat="45.13814" lon="5.4282">
        <ele>1293.2</ele>
        <time>2014-10-30T12:37:01Z</time>
      </trkpt>
      <trkpt lat="45.13812" lon="5.42823">
        <ele>1293.31</ele>
        <time>2014-10-30T12:37:11Z</time>
      </trkpt>
      <trkpt lat="45.13805" lon="5.42828">
        <ele>1293.13</ele>
        <time>2014-10-30T12:37:21Z</time>
      </trkpt>
      <trkpt lat="45.13804" lon="5.42838">
        <ele>1292.5</ele>
        <time>2014-10-30T12:37:31Z</time>
      </trkpt>
      <trkpt lat="45.13806" lon="5.42844">
        <ele>1292.21</ele>
        <time>2014-10-30T12:37:41Z</time>
      </trkpt>
      <trkpt lat="45.13804" lon="5.42851">
        <ele>1292.3</ele>
        <time>2014-10-30T12:37:51Z</time>
      </trkpt>
      <trkpt lat="45.13803" lon="5.42857">
        <ele>1292.3</ele>
        <time>2014-10-30T12:38:01Z</time>
      </trkpt>
      <trkpt lat="45.138" lon="5.42862">
        <ele>1291.9</ele>
        <time>2014-10-30T12:38:11Z</time>
      </trkpt>
      <trkpt lat="45.13801" lon="5.42874">
        <ele>1291.3</ele>
        <time>2014-10-30T12:38:24Z</time>
      </trkpt>
      <trkpt lat="45.138" lon="5.42876">
        <ele>1290.9</ele>
        <time>2014-10-30T12:38:34Z</time>
      </trkpt>
      <trkpt lat="45.13798" lon="5.42891">
        <ele>1289.81</ele>
        <time>2014-10-30T12:38:44Z</time>
      </trkpt>
      <trkpt lat="45.13793" lon="5.42895">
        <ele>1289.33</ele>
        <time>2014-10-30T12:38:54Z</time>
      </trkpt>
      <trkpt lat="45.13789" lon="5.429">
        <ele>1288.43</ele>
        <time>2014-10-30T12:39:04Z</time>
      </trkpt>
      <trkpt lat="45.1379" lon="5.42907">
        <ele>1287.61</ele>
        <time>2014-10-30T12:39:14Z</time>
      </trkpt>
      <trkpt lat="45.13786" lon="5.42912">
        <ele>1286.54</ele>
        <time>2014-10-30T12:39:24Z</time>
      </trkpt>
      <trkpt lat="45.13787" lon="5.42919">
        <ele>1285.6</ele>
        <time>2014-10-30T12:39:34Z</time>
      </trkpt>
      <trkpt lat="45.13786" lon="5.4292">
        <ele>1284.3</ele>
        <time>2014-10-30T12:39:44Z</time>
      </trkpt>
      <trkpt lat="45.13784" lon="5.4293">
        <ele>1283.18</ele>
        <time>2014-10-30T12:39:56Z</time>
      </trkpt>
      <trkpt lat="45.13785" lon="5.42938">
        <ele>1281.93</ele>
        <time>2014-10-30T12:40:06Z</time>
      </trkpt>
      <trkpt lat="45.13782" lon="5.42949">
        <ele>1281.13</ele>
        <time>2014-10-30T12:40:16Z</time>
      </trkpt>
      <trkpt lat="45.13781" lon="5.42965">
        <ele>1279.57</ele>
        <time>2014-10-30T12:40:26Z</time>
      </trkpt>
      <trkpt lat="45.13792" lon="5.4299">
        <ele>1278.44</ele>
        <time>2014-10-30T12:40:36Z</time>
      </trkpt>
      <trkpt lat="45.13799" lon="5.43005">
        <ele>1277.17</ele>
        <time>2014-10-30T12:40:46Z</time>
      </trkpt>
      <trkpt lat="45.13797" lon="5.4302">
        <ele>1274.79</ele>
        <time>2014-10-30T12:40:56Z</time>
      </trkpt>
      <trkpt lat="45.13799" lon="5.43031">
        <ele>1273.14</ele>
        <time>2014-10-30T12:41:06Z</time>
      </trkpt>
      <trkpt lat="45.138" lon="5.43032">
        <ele>1272.9</ele>
        <time>2014-10-30T12:41:16Z</time>
      </trkpt>
      <trkpt lat="45.138" lon="5.43036">
        <ele>1268.62</ele>
        <time>2014-10-30T12:41:54Z</time>
      </trkpt>
      <trkpt lat="45.13797" lon="5.43027">
        <ele>1256.5</ele>
        <time>2014-10-30T12:44:26Z</time>
      </trkpt>
      <trkpt lat="45.1379" lon="5.43024">
        <ele>1252.81</ele>
        <time>2014-10-30T12:44:36Z</time>
      </trkpt>
      <trkpt lat="45.13781" lon="5.43026">
        <ele>1251.95</ele>
        <time>2014-10-30T12:44:46Z</time>
      </trkpt>
      <trkpt lat="45.13775" lon="5.43036">
        <ele>1250.11</ele>
        <time>2014-10-30T12:44:56Z</time>
      </trkpt>
      <trkpt lat="45.13764" lon="5.4305">
        <ele>1248.53</ele>
        <time>2014-10-30T12:45:06Z</time>
      </trkpt>
      <trkpt lat="45.13754" lon="5.43055">
        <ele>1247.33</ele>
        <time>2014-10-30T12:45:16Z</time>
      </trkpt>
      <trkpt lat="45.13747" lon="5.4306">
        <ele>1246.6</ele>
        <time>2014-10-30T12:45:26Z</time>
      </trkpt>
      <trkpt lat="45.1374" lon="5.43067">
        <ele>1245.9</ele>
        <time>2014-10-30T12:45:36Z</time>
      </trkpt>
      <trkpt lat="45.13732" lon="5.4307">
        <ele>1245.9</ele>
        <time>2014-10-30T12:45:46Z</time>
      </trkpt>
      <trkpt lat="45.13723" lon="5.43074">
        <ele>1245.61</ele>
        <time>2014-10-30T12:45:56Z</time>
      </trkpt>
      <trkpt lat="45.13715" lon="5.43079">
        <ele>1244.83</ele>
        <time>2014-10-30T12:46:06Z</time>
      </trkpt>
      <trkpt lat="45.13705" lon="5.43086">
        <ele>1244.03</ele>
        <time>2014-10-30T12:46:16Z</time>
      </trkpt>
      <trkpt lat="45.13696" lon="5.4309">
        <ele>1243.03</ele>
        <time>2014-10-30T12:46:26Z</time>
      </trkpt>
      <trkpt lat="45.13686" lon="5.43094">
        <ele>1243.1</ele>
        <time>2014-10-30T12:46:36Z</time>
      </trkpt>
      <trkpt lat="45.13676" lon="5.43098">
        <ele>1243.47</ele>
        <time>2014-10-30T12:46:46Z</time>
      </trkpt>
      <trkpt lat="45.13676" lon="5.43104">
        <ele>1243.77</ele>
        <time>2014-10-30T12:46:56Z</time>
      </trkpt>
      <trkpt lat="45.13669" lon="5.43104">
        <ele>1244</ele>
        <time>2014-10-30T12:47:06Z</time>
      </trkpt>
      <trkpt lat="45.13657" lon="5.43102">
        <ele>1244.1</ele>
        <time>2014-10-30T12:47:16Z</time>
      </trkpt>
      <trkpt lat="45.13646" lon="5.43102">
        <ele>1244.4</ele>
        <time>2014-10-30T12:47:26Z</time>
      </trkpt>
      <trkpt lat="45.1364" lon="5.43102">
        <ele>1244.1</ele>
        <time>2014-10-30T12:47:36Z</time>
      </trkpt>
      <trkpt lat="45.13639" lon="5.43103">
        <ele>1243.9</ele>
        <time>2014-10-30T12:47:46Z</time>
      </trkpt>
      <trkpt lat="45.13635" lon="5.43106">
        <ele>1243.4</ele>
        <time>2014-10-30T12:47:56Z</time>
      </trkpt>
      <trkpt lat="45.13625" lon="5.43103">
        <ele>1243.62</ele>
        <time>2014-10-30T12:49:15Z</time>
      </trkpt>
      <trkpt lat="45.13623" lon="5.431">
        <ele>1243.9</ele>
        <time>2014-10-30T12:49:25Z</time>
      </trkpt>
      <trkpt lat="45.1362" lon="5.43099">
        <ele>1243.68</ele>
        <time>2014-10-30T12:49:35Z</time>
      </trkpt>
      <trkpt lat="45.13609" lon="5.43095">
        <ele>1243.8</ele>
        <time>2014-10-30T12:49:45Z</time>
      </trkpt>
      <trkpt lat="45.13601" lon="5.43093">
        <ele>1243.32</ele>
        <time>2014-10-30T12:49:55Z</time>
      </trkpt>
      <trkpt lat="45.13593" lon="5.431">
        <ele>1243.4</ele>
        <time>2014-10-30T12:50:05Z</time>
      </trkpt>
      <trkpt lat="45.1358" lon="5.43103">
        <ele>1243.12</ele>
        <time>2014-10-30T12:50:15Z</time>
      </trkpt>
      <trkpt lat="45.13566" lon="5.43104">
        <ele>1243.02</ele>
        <time>2014-10-30T12:50:25Z</time>
      </trkpt>
      <trkpt lat="45.13556" lon="5.43106">
        <ele>1242.31</ele>
        <time>2014-10-30T12:50:35Z</time>
      </trkpt>
      <trkpt lat="45.13544" lon="5.43106">
        <ele>1241.68</ele>
        <time>2014-10-30T12:50:45Z</time>
      </trkpt>
      <trkpt lat="45.13532" lon="5.43107">
        <ele>1241.32</ele>
        <time>2014-10-30T12:50:55Z</time>
      </trkpt>
      <trkpt lat="45.13518" lon="5.43115">
        <ele>1241.5</ele>
        <time>2014-10-30T12:51:05Z</time>
      </trkpt>
      <trkpt lat="45.13507" lon="5.4312">
        <ele>1241.03</ele>
        <time>2014-10-30T12:51:15Z</time>
      </trkpt>
      <trkpt lat="45.13494" lon="5.43123">
        <ele>1240.88</ele>
        <time>2014-10-30T12:51:25Z</time>
      </trkpt>
      <trkpt lat="45.13484" lon="5.43127">
        <ele>1240.87</ele>
        <time>2014-10-30T12:51:35Z</time>
      </trkpt>
      <trkpt lat="45.13471" lon="5.43133">
        <ele>1240.51</ele>
        <time>2014-10-30T12:51:45Z</time>
      </trkpt>
      <trkpt lat="45.13461" lon="5.43139">
        <ele>1239.73</ele>
        <time>2014-10-30T12:51:55Z</time>
      </trkpt>
      <trkpt lat="45.13453" lon="5.43143">
        <ele>1238.65</ele>
        <time>2014-10-30T12:52:05Z</time>
      </trkpt>
      <trkpt lat="45.13444" lon="5.43153">
        <ele>1237.26</ele>
        <time>2014-10-30T12:52:15Z</time>
      </trkpt>
      <trkpt lat="45.13438" lon="5.4316">
        <ele>1235.71</ele>
        <time>2014-10-30T12:52:25Z</time>
      </trkpt>
      <trkpt lat="45.13433" lon="5.43172">
        <ele>1235.13</ele>
        <time>2014-10-30T12:52:35Z</time>
      </trkpt>
      <trkpt lat="45.13432" lon="5.43183">
        <ele>1234.33</ele>
        <time>2014-10-30T12:52:45Z</time>
      </trkpt>
      <trkpt lat="45.13432" lon="5.43185">
        <ele>1233.8</ele>
        <time>2014-10-30T12:52:55Z</time>
      </trkpt>
      <trkpt lat="45.13427" lon="5.43175">
        <ele>1234.32</ele>
        <time>2014-10-30T12:54:39Z</time>
      </trkpt>
      <trkpt lat="45.1342" lon="5.43174">
        <ele>1234.88</ele>
        <time>2014-10-30T12:55:21Z</time>
      </trkpt>
      <trkpt lat="45.13416" lon="5.4318">
        <ele>1234.51</ele>
        <time>2014-10-30T12:55:31Z</time>
      </trkpt>
      <trkpt lat="45.13418" lon="5.43185">
        <ele>1233.42</ele>
        <time>2014-10-30T12:55:59Z</time>
      </trkpt>
      <trkpt lat="45.13416" lon="5.43188">
        <ele>1233.1</ele>
        <time>2014-10-30T12:56:11Z</time>
      </trkpt>
      <trkpt lat="45.1341" lon="5.43196">
        <ele>1232.7</ele>
        <time>2014-10-30T12:56:21Z</time>
      </trkpt>
      <trkpt lat="45.13402" lon="5.43208">
        <ele>1232.5</ele>
        <time>2014-10-30T12:56:31Z</time>
      </trkpt>
      <trkpt lat="45.13394" lon="5.43215">
        <ele>1232.11</ele>
        <time>2014-10-30T12:56:41Z</time>
      </trkpt>
      <trkpt lat="45.13386" lon="5.43227">
        <ele>1231.61</ele>
        <time>2014-10-30T12:56:51Z</time>
      </trkpt>
      <trkpt lat="45.13377" lon="5.43239">
        <ele>1231.3</ele>
        <time>2014-10-30T12:57:01Z</time>
      </trkpt>
      <trkpt lat="45.1337" lon="5.4325">
        <ele>1230.7</ele>
        <time>2014-10-30T12:57:11Z</time>
      </trkpt>
      <trkpt lat="45.13363" lon="5.43264">
        <ele>1230.31</ele>
        <time>2014-10-30T12:57:21Z</time>
      </trkpt>
      <trkpt lat="45.13357" lon="5.43278">
        <ele>1229.53</ele>
        <time>2014-10-30T12:57:31Z</time>
      </trkpt>
      <trkpt lat="45.13352" lon="5.43296">
        <ele>1228.16</ele>
        <time>2014-10-30T12:57:41Z</time>
      </trkpt>
      <trkpt lat="45.13348" lon="5.43313">
        <ele>1227.73</ele>
        <time>2014-10-30T12:57:51Z</time>
      </trkpt>
      <trkpt lat="45.13345" lon="5.43333">
        <ele>1226.54</ele>
        <time>2014-10-30T12:58:01Z</time>
      </trkpt>
      <trkpt lat="45.13342" lon="5.43352">
        <ele>1225.28</ele>
        <time>2014-10-30T12:58:11Z</time>
      </trkpt>
      <trkpt lat="45.13338" lon="5.43369">
        <ele>1224.13</ele>
        <time>2014-10-30T12:58:21Z</time>
      </trkpt>
      <trkpt lat="45.13328" lon="5.43388">
        <ele>1222.27</ele>
        <time>2014-10-30T12:58:31Z</time>
      </trkpt>
      <trkpt lat="45.13322" lon="5.43401">
        <ele>1221.16</ele>
        <time>2014-10-30T12:58:41Z</time>
      </trkpt>
      <trkpt lat="45.13318" lon="5.43412">
        <ele>1220.01</ele>
        <time>2014-10-30T12:58:51Z</time>
      </trkpt>
      <trkpt lat="45.13312" lon="5.43426">
        <ele>1218.74</ele>
        <time>2014-10-30T12:59:01Z</time>
      </trkpt>
      <trkpt lat="45.13307" lon="5.43445">
        <ele>1217.28</ele>
        <time>2014-10-30T12:59:11Z</time>
      </trkpt>
      <trkpt lat="45.13303" lon="5.43469">
        <ele>1215.93</ele>
        <time>2014-10-30T12:59:21Z</time>
      </trkpt>
      <trkpt lat="45.13303" lon="5.43487">
        <ele>1214.98</ele>
        <time>2014-10-30T12:59:31Z</time>
      </trkpt>
      <trkpt lat="45.133" lon="5.43505">
        <ele>1213.59</ele>
        <time>2014-10-30T12:59:41Z</time>
      </trkpt>
      <trkpt lat="45.13298" lon="5.43522">
        <ele>1212.7</ele>
        <time>2014-10-30T12:59:51Z</time>
      </trkpt>
      <trkpt lat="45.13297" lon="5.43537">
        <ele>1212.03</ele>
        <time>2014-10-30T13:00:01Z</time>
      </trkpt>
      <trkpt lat="45.13298" lon="5.43554">
        <ele>1211.44</ele>
        <time>2014-10-30T13:00:11Z</time>
      </trkpt>
      <trkpt lat="45.13299" lon="5.43573">
        <ele>1210.9</ele>
        <time>2014-10-30T13:00:21Z</time>
      </trkpt>
      <trkpt lat="45.13301" lon="5.43596">
        <ele>1210.43</ele>
        <time>2014-10-30T13:00:31Z</time>
      </trkpt>
      <trkpt lat="45.13299" lon="5.43614">
        <ele>1210.4</ele>
        <time>2014-10-30T13:00:41Z</time>
      </trkpt>
      <trkpt lat="45.13301" lon="5.43638">
        <ele>1210.31</ele>
        <time>2014-10-30T13:00:51Z</time>
      </trkpt>
      <trkpt lat="45.13302" lon="5.43657">
        <ele>1210.27</ele>
        <time>2014-10-30T13:01:01Z</time>
      </trkpt>
      <trkpt lat="45.13309" lon="5.43674">
        <ele>1209.9</ele>
        <time>2014-10-30T13:01:11Z</time>
      </trkpt>
      <trkpt lat="45.13316" lon="5.43693">
        <ele>1210.12</ele>
        <time>2014-10-30T13:01:21Z</time>
      </trkpt>
      <trkpt lat="45.13319" lon="5.43706">
        <ele>1208.4</ele>
        <time>2014-10-30T13:01:31Z</time>
      </trkpt>
      <trkpt lat="45.13317" lon="5.43723">
        <ele>1205.84</ele>
        <time>2014-10-30T13:01:41Z</time>
      </trkpt>
      <trkpt lat="45.13317" lon="5.43739">
        <ele>1205.37</ele>
        <time>2014-10-30T13:01:51Z</time>
      </trkpt>
      <trkpt lat="45.13319" lon="5.43758">
        <ele>1205.41</ele>
        <time>2014-10-30T13:02:01Z</time>
      </trkpt>
      <trkpt lat="45.13323" lon="5.4378">
        <ele>1205.49</ele>
        <time>2014-10-30T13:02:11Z</time>
      </trkpt>
      <trkpt lat="45.13325" lon="5.43796">
        <ele>1206.57</ele>
        <time>2014-10-30T13:02:21Z</time>
      </trkpt>
      <trkpt lat="45.13332" lon="5.43818">
        <ele>1206.83</ele>
        <time>2014-10-30T13:02:31Z</time>
      </trkpt>
      <trkpt lat="45.13339" lon="5.43831">
        <ele>1206.22</ele>
        <time>2014-10-30T13:02:41Z</time>
      </trkpt>
      <trkpt lat="45.13346" lon="5.43843">
        <ele>1206.5</ele>
        <time>2014-10-30T13:02:51Z</time>
      </trkpt>
      <trkpt lat="45.13353" lon="5.43859">
        <ele>1206.35</ele>
        <time>2014-10-30T13:03:01Z</time>
      </trkpt>
      <trkpt lat="45.13351" lon="5.43872">
        <ele>1203.95</ele>
        <time>2014-10-30T13:03:11Z</time>
      </trkpt>
      <trkpt lat="45.1336" lon="5.43888">
        <ele>1201.87</ele>
        <time>2014-10-30T13:03:21Z</time>
      </trkpt>
      <trkpt lat="45.13369" lon="5.439">
        <ele>1200.11</ele>
        <time>2014-10-30T13:03:31Z</time>
      </trkpt>
      <trkpt lat="45.13374" lon="5.4391">
        <ele>1197.7</ele>
        <time>2014-10-30T13:03:41Z</time>
      </trkpt>
      <trkpt lat="45.13382" lon="5.43923">
        <ele>1195.79</ele>
        <time>2014-10-30T13:03:51Z</time>
      </trkpt>
      <trkpt lat="45.13393" lon="5.43942">
        <ele>1193.19</ele>
        <time>2014-10-30T13:04:01Z</time>
      </trkpt>
      <trkpt lat="45.13398" lon="5.43961">
        <ele>1191.63</ele>
        <time>2014-10-30T13:04:11Z</time>
      </trkpt>
      <trkpt lat="45.13403" lon="5.43978">
        <ele>1188.82</ele>
        <time>2014-10-30T13:04:21Z</time>
      </trkpt>
      <trkpt lat="45.13408" lon="5.43994">
        <ele>1187.24</ele>
        <time>2014-10-30T13:04:31Z</time>
      </trkpt>
      <trkpt lat="45.13413" lon="5.44013">
        <ele>1186.81</ele>
        <time>2014-10-30T13:04:41Z</time>
      </trkpt>
      <trkpt lat="45.13416" lon="5.44027">
        <ele>1185.97</ele>
        <time>2014-10-30T13:04:51Z</time>
      </trkpt>
      <trkpt lat="45.13411" lon="5.44042">
        <ele>1184.24</ele>
        <time>2014-10-30T13:05:01Z</time>
      </trkpt>
      <trkpt lat="45.13413" lon="5.44064">
        <ele>1183.06</ele>
        <time>2014-10-30T13:05:11Z</time>
      </trkpt>
      <trkpt lat="45.13413" lon="5.44081">
        <ele>1181.73</ele>
        <time>2014-10-30T13:05:21Z</time>
      </trkpt>
      <trkpt lat="45.13412" lon="5.44092">
        <ele>1180.03</ele>
        <time>2014-10-30T13:05:31Z</time>
      </trkpt>
      <trkpt lat="45.13411" lon="5.44114">
        <ele>1178.2</ele>
        <time>2014-10-30T13:05:41Z</time>
      </trkpt>
      <trkpt lat="45.13411" lon="5.44127">
        <ele>1176.09</ele>
        <time>2014-10-30T13:05:51Z</time>
      </trkpt>
      <trkpt lat="45.13405" lon="5.4414">
        <ele>1174.44</ele>
        <time>2014-10-30T13:06:01Z</time>
      </trkpt>
      <trkpt lat="45.13399" lon="5.44156">
        <ele>1173.63</ele>
        <time>2014-10-30T13:06:11Z</time>
      </trkpt>
      <trkpt lat="45.13387" lon="5.4417">
        <ele>1172.63</ele>
        <time>2014-10-30T13:06:21Z</time>
      </trkpt>
      <trkpt lat="45.13382" lon="5.44183">
        <ele>1172.43</ele>
        <time>2014-10-30T13:06:31Z</time>
      </trkpt>
      <trkpt lat="45.13379" lon="5.44197">
        <ele>1171.56</ele>
        <time>2014-10-30T13:06:41Z</time>
      </trkpt>
      <trkpt lat="45.13371" lon="5.44218">
        <ele>1170.03</ele>
        <time>2014-10-30T13:06:51Z</time>
      </trkpt>
      <trkpt lat="45.13363" lon="5.44233">
        <ele>1168.73</ele>
        <time>2014-10-30T13:07:01Z</time>
      </trkpt>
      <trkpt lat="45.13361" lon="5.44249">
        <ele>1167.81</ele>
        <time>2014-10-30T13:07:11Z</time>
      </trkpt>
      <trkpt lat="45.13357" lon="5.44267">
        <ele>1166.54</ele>
        <time>2014-10-30T13:07:21Z</time>
      </trkpt>
      <trkpt lat="45.13352" lon="5.44282">
        <ele>1165.53</ele>
        <time>2014-10-30T13:07:31Z</time>
      </trkpt>
      <trkpt lat="45.13351" lon="5.4431">
        <ele>1164.92</ele>
        <time>2014-10-30T13:07:41Z</time>
      </trkpt>
      <trkpt lat="45.13348" lon="5.44329">
        <ele>1163.94</ele>
        <time>2014-10-30T13:07:51Z</time>
      </trkpt>
      <trkpt lat="45.13357" lon="5.44354">
        <ele>1160.65</ele>
        <time>2014-10-30T13:08:01Z</time>
      </trkpt>
      <trkpt lat="45.13363" lon="5.44364">
        <ele>1158.09</ele>
        <time>2014-10-30T13:08:11Z</time>
      </trkpt>
      <trkpt lat="45.13366" lon="5.44375">
        <ele>1155.64</ele>
        <time>2014-10-30T13:08:21Z</time>
      </trkpt>
      <trkpt lat="45.13366" lon="5.4438">
        <ele>1155.1</ele>
        <time>2014-10-30T13:08:31Z</time>
      </trkpt>
      <trkpt lat="45.13368" lon="5.44398">
        <ele>1154.27</ele>
        <time>2014-10-30T13:08:41Z</time>
      </trkpt>
      <trkpt lat="45.1337" lon="5.44402">
        <ele>1153.06</ele>
        <time>2014-10-30T13:08:51Z</time>
      </trkpt>
      <trkpt lat="45.13371" lon="5.44404">
        <ele>1152.3</ele>
        <time>2014-10-30T13:09:01Z</time>
      </trkpt>
      <trkpt lat="45.13375" lon="5.44406">
        <ele>1151.78</ele>
        <time>2014-10-30T13:09:18Z</time>
      </trkpt>
      <trkpt lat="45.1338" lon="5.4441">
        <ele>1151.5</ele>
        <time>2014-10-30T13:09:28Z</time>
      </trkpt>
      <trkpt lat="45.13386" lon="5.44414">
        <ele>1151.58</ele>
        <time>2014-10-30T13:09:43Z</time>
      </trkpt>
      <trkpt lat="45.13392" lon="5.44411">
        <ele>1152.37</ele>
        <time>2014-10-30T13:09:53Z</time>
      </trkpt>
      <trkpt lat="45.13397" lon="5.44412">
        <ele>1151.63</ele>
        <time>2014-10-30T13:10:03Z</time>
      </trkpt>
      <trkpt lat="45.13403" lon="5.44407">
        <ele>1150.51</ele>
        <time>2014-10-30T13:10:13Z</time>
      </trkpt>
      <trkpt lat="45.13405" lon="5.44404">
        <ele>1149.8</ele>
        <time>2014-10-30T13:10:23Z</time>
      </trkpt>
      <trkpt lat="45.13411" lon="5.444">
        <ele>1148.76</ele>
        <time>2014-10-30T13:10:33Z</time>
      </trkpt>
      <trkpt lat="45.13413" lon="5.4439">
        <ele>1148.18</ele>
        <time>2014-10-30T13:10:47Z</time>
      </trkpt>
      <trkpt lat="45.13411" lon="5.44379">
        <ele>1147.34</ele>
        <time>2014-10-30T13:10:57Z</time>
      </trkpt>
      <trkpt lat="45.13408" lon="5.44372">
        <ele>1146.7</ele>
        <time>2014-10-30T13:11:07Z</time>
      </trkpt>
      <trkpt lat="45.13409" lon="5.44371">
        <ele>1146.4</ele>
        <time>2014-10-30T13:11:17Z</time>
      </trkpt>
      <trkpt lat="45.13413" lon="5.44363">
        <ele>1145.51</ele>
        <time>2014-10-30T13:11:27Z</time>
      </trkpt>
      <trkpt lat="45.13414" lon="5.44362">
        <ele>1144.4</ele>
        <time>2014-10-30T13:11:37Z</time>
      </trkpt>
      <trkpt lat="45.13412" lon="5.44349">
        <ele>1142.6</ele>
        <time>2014-10-30T13:12:01Z</time>
      </trkpt>
      <trkpt lat="45.13419" lon="5.44348">
        <ele>1139.25</ele>
        <time>2014-10-30T13:12:48Z</time>
      </trkpt>
      <trkpt lat="45.13422" lon="5.44342">
        <ele>1137.93</ele>
        <time>2014-10-30T13:12:58Z</time>
      </trkpt>
      <trkpt lat="45.13435" lon="5.4435">
        <ele>1137.33</ele>
        <time>2014-10-30T13:13:08Z</time>
      </trkpt>
      <trkpt lat="45.13449" lon="5.44362">
        <ele>1137</ele>
        <time>2014-10-30T13:13:18Z</time>
      </trkpt>
      <trkpt lat="45.13457" lon="5.44373">
        <ele>1136.89</ele>
        <time>2014-10-30T13:13:28Z</time>
      </trkpt>
      <trkpt lat="45.13463" lon="5.44378">
        <ele>1137.29</ele>
        <time>2014-10-30T13:13:38Z</time>
      </trkpt>
      <trkpt lat="45.13466" lon="5.44374">
        <ele>1137.52</ele>
        <time>2014-10-30T13:13:48Z</time>
      </trkpt>
      <trkpt lat="45.13464" lon="5.44363">
        <ele>1137.41</ele>
        <time>2014-10-30T13:13:58Z</time>
      </trkpt>
      <trkpt lat="45.13468" lon="5.44339">
        <ele>1135.24</ele>
        <time>2014-10-30T13:14:08Z</time>
      </trkpt>
      <trkpt lat="45.1347" lon="5.44324">
        <ele>1132.28</ele>
        <time>2014-10-30T13:14:18Z</time>
      </trkpt>
      <trkpt lat="45.13469" lon="5.44315">
        <ele>1128.32</ele>
        <time>2014-10-30T13:14:28Z</time>
      </trkpt>
      <trkpt lat="45.13471" lon="5.44311">
        <ele>1123.06</ele>
        <time>2014-10-30T13:14:38Z</time>
      </trkpt>
      <trkpt lat="45.13463" lon="5.44304">
        <ele>1117.9</ele>
        <time>2014-10-30T13:15:02Z</time>
      </trkpt>
      <trkpt lat="45.13462" lon="5.44304">
        <ele>1114.9</ele>
        <time>2014-10-30T13:15:12Z</time>
      </trkpt>
      <trkpt lat="45.13468" lon="5.44304">
        <ele>1114.4</ele>
        <time>2014-10-30T13:15:22Z</time>
      </trkpt>
      <trkpt lat="45.1347" lon="5.44303">
        <ele>1114.3</ele>
        <time>2014-10-30T13:15:32Z</time>
      </trkpt>
      <trkpt lat="45.13472" lon="5.44302">
        <ele>1113.91</ele>
        <time>2014-10-30T13:15:42Z</time>
      </trkpt>
      <trkpt lat="45.13479" lon="5.44302">
        <ele>1112.92</ele>
        <time>2014-10-30T13:16:01Z</time>
      </trkpt>
      <trkpt lat="45.13485" lon="5.44297">
        <ele>1112.23</ele>
        <time>2014-10-30T13:16:11Z</time>
      </trkpt>
      <trkpt lat="45.13488" lon="5.44295">
        <ele>1111.53</ele>
        <time>2014-10-30T13:16:21Z</time>
      </trkpt>
      <trkpt lat="45.13493" lon="5.44292">
        <ele>1109.43</ele>
        <time>2014-10-30T13:16:31Z</time>
      </trkpt>
      <trkpt lat="45.13501" lon="5.44288">
        <ele>1107.84</ele>
        <time>2014-10-30T13:16:41Z</time>
      </trkpt>
      <trkpt lat="45.13508" lon="5.44286">
        <ele>1105.32</ele>
        <time>2014-10-30T13:16:51Z</time>
      </trkpt>
      <trkpt lat="45.13514" lon="5.44282">
        <ele>1102.75</ele>
        <time>2014-10-30T13:17:01Z</time>
      </trkpt>
      <trkpt lat="45.13521" lon="5.44283">
        <ele>1100.67</ele>
        <time>2014-10-30T13:17:11Z</time>
      </trkpt>
      <trkpt lat="45.13528" lon="5.44281">
        <ele>1098.49</ele>
        <time>2014-10-30T13:17:21Z</time>
      </trkpt>
      <trkpt lat="45.13535" lon="5.44275">
        <ele>1096.29</ele>
        <time>2014-10-30T13:17:31Z</time>
      </trkpt>
      <trkpt lat="45.13542" lon="5.44272">
        <ele>1094.1</ele>
        <time>2014-10-30T13:17:41Z</time>
      </trkpt>
      <trkpt lat="45.13546" lon="5.44269">
        <ele>1091.77</ele>
        <time>2014-10-30T13:17:51Z</time>
      </trkpt>
      <trkpt lat="45.13554" lon="5.44265">
        <ele>1089.47</ele>
        <time>2014-10-30T13:18:01Z</time>
      </trkpt>
      <trkpt lat="45.13561" lon="5.44262">
        <ele>1086.95</ele>
        <time>2014-10-30T13:18:11Z</time>
      </trkpt>
      <trkpt lat="45.13567" lon="5.44261">
        <ele>1084.57</ele>
        <time>2014-10-30T13:18:21Z</time>
      </trkpt>
      <trkpt lat="45.13573" lon="5.44257">
        <ele>1081.83</ele>
        <time>2014-10-30T13:18:31Z</time>
      </trkpt>
      <trkpt lat="45.13579" lon="5.44253">
        <ele>1079.07</ele>
        <time>2014-10-30T13:18:41Z</time>
      </trkpt>
      <trkpt lat="45.13585" lon="5.44248">
        <ele>1076.09</ele>
        <time>2014-10-30T13:18:51Z</time>
      </trkpt>
      <trkpt lat="45.13592" lon="5.44245">
        <ele>1074.07</ele>
        <time>2014-10-30T13:19:01Z</time>
      </trkpt>
      <trkpt lat="45.13598" lon="5.44238">
        <ele>1072.47</ele>
        <time>2014-10-30T13:19:11Z</time>
      </trkpt>
      <trkpt lat="45.13605" lon="5.44237">
        <ele>1070.37</ele>
        <time>2014-10-30T13:19:21Z</time>
      </trkpt>
      <trkpt lat="45.13611" lon="5.44231">
        <ele>1067.97</ele>
        <time>2014-10-30T13:19:31Z</time>
      </trkpt>
      <trkpt lat="45.13621" lon="5.44227">
        <ele>1065.86</ele>
        <time>2014-10-30T13:19:41Z</time>
      </trkpt>
      <trkpt lat="45.13623" lon="5.44227">
        <ele>1064.8</ele>
        <time>2014-10-30T13:19:51Z</time>
      </trkpt>
      <trkpt lat="45.1363" lon="5.44227">
        <ele>1063.92</ele>
        <time>2014-10-30T13:20:01Z</time>
      </trkpt>
      <trkpt lat="45.13635" lon="5.44231">
        <ele>1063.4</ele>
        <time>2014-10-30T13:20:11Z</time>
      </trkpt>
      <trkpt lat="45.13641" lon="5.44229">
        <ele>1062.63</ele>
        <time>2014-10-30T13:20:21Z</time>
      </trkpt>
      <trkpt lat="45.1365" lon="5.44228">
        <ele>1061.76</ele>
        <time>2014-10-30T13:20:31Z</time>
      </trkpt>
      <trkpt lat="45.13656" lon="5.44229">
        <ele>1060.68</ele>
        <time>2014-10-30T13:20:41Z</time>
      </trkpt>
      <trkpt lat="45.13662" lon="5.44227">
        <ele>1058.69</ele>
        <time>2014-10-30T13:20:51Z</time>
      </trkpt>
      <trkpt lat="45.13665" lon="5.44229">
        <ele>1056.8</ele>
        <time>2014-10-30T13:21:01Z</time>
      </trkpt>
      <trkpt lat="45.1367" lon="5.4423">
        <ele>1054.32</ele>
        <time>2014-10-30T13:21:18Z</time>
      </trkpt>
      <trkpt lat="45.13673" lon="5.44232">
        <ele>1051.96</ele>
        <time>2014-10-30T13:21:28Z</time>
      </trkpt>
      <trkpt lat="45.13673" lon="5.4423">
        <ele>1050.7</ele>
        <time>2014-10-30T13:21:38Z</time>
      </trkpt>
      <trkpt lat="45.13677" lon="5.4423">
        <ele>1048.52</ele>
        <time>2014-10-30T13:21:55Z</time>
      </trkpt>
      <trkpt lat="45.13684" lon="5.44229">
        <ele>1046.83</ele>
        <time>2014-10-30T13:22:05Z</time>
      </trkpt>
      <trkpt lat="45.13691" lon="5.44226">
        <ele>1045.73</ele>
        <time>2014-10-30T13:22:15Z</time>
      </trkpt>
      <trkpt lat="45.13698" lon="5.44227">
        <ele>1045.41</ele>
        <time>2014-10-30T13:22:25Z</time>
      </trkpt>
      <trkpt lat="45.13707" lon="5.44229">
        <ele>1044.93</ele>
        <time>2014-10-30T13:22:35Z</time>
      </trkpt>
      <trkpt lat="45.13716" lon="5.44233">
        <ele>1044.43</ele>
        <time>2014-10-30T13:22:45Z</time>
      </trkpt>
      <trkpt lat="45.13726" lon="5.44232">
        <ele>1043.73</ele>
        <time>2014-10-30T13:22:55Z</time>
      </trkpt>
      <trkpt lat="45.13734" lon="5.44235">
        <ele>1042.92</ele>
        <time>2014-10-30T13:23:05Z</time>
      </trkpt>
      <trkpt lat="45.13741" lon="5.44237">
        <ele>1041.89</ele>
        <time>2014-10-30T13:23:15Z</time>
      </trkpt>
      <trkpt lat="45.13747" lon="5.44235">
        <ele>1040.46</ele>
        <time>2014-10-30T13:23:25Z</time>
      </trkpt>
      <trkpt lat="45.13755" lon="5.44231">
        <ele>1038.42</ele>
        <time>2014-10-30T13:23:35Z</time>
      </trkpt>
      <trkpt lat="45.13766" lon="5.44227">
        <ele>1036.74</ele>
        <time>2014-10-30T13:23:45Z</time>
      </trkpt>
      <trkpt lat="45.13767" lon="5.44221">
        <ele>1034.28</ele>
        <time>2014-10-30T13:23:55Z</time>
      </trkpt>
      <trkpt lat="45.13778" lon="5.44216">
        <ele>1031.32</ele>
        <time>2014-10-30T13:24:05Z</time>
      </trkpt>
      <trkpt lat="45.13789" lon="5.44217">
        <ele>1029.08</ele>
        <time>2014-10-30T13:24:15Z</time>
      </trkpt>
      <trkpt lat="45.13796" lon="5.44217">
        <ele>1027.63</ele>
        <time>2014-10-30T13:24:25Z</time>
      </trkpt>
      <trkpt lat="45.13809" lon="5.44208">
        <ele>1025.83</ele>
        <time>2014-10-30T13:24:35Z</time>
      </trkpt>
      <trkpt lat="45.13817" lon="5.44202">
        <ele>1022.84</ele>
        <time>2014-10-30T13:24:45Z</time>
      </trkpt>
      <trkpt lat="45.13829" lon="5.442">
        <ele>1021.5</ele>
        <time>2014-10-30T13:24:55Z</time>
      </trkpt>
      <trkpt lat="45.13837" lon="5.44195">
        <ele>1020.43</ele>
        <time>2014-10-30T13:25:05Z</time>
      </trkpt>
      <trkpt lat="45.13844" lon="5.44192">
        <ele>1019.75</ele>
        <time>2014-10-30T13:25:15Z</time>
      </trkpt>
      <trkpt lat="45.13853" lon="5.44187">
        <ele>1018.9</ele>
        <time>2014-10-30T13:25:25Z</time>
      </trkpt>
      <trkpt lat="45.13861" lon="5.4418">
        <ele>1018.3</ele>
        <time>2014-10-30T13:25:35Z</time>
      </trkpt>
      <trkpt lat="45.13871" lon="5.44179">
        <ele>1017.63</ele>
        <time>2014-10-30T13:25:45Z</time>
      </trkpt>
      <trkpt lat="45.13882" lon="5.44178">
        <ele>1015.65</ele>
        <time>2014-10-30T13:25:55Z</time>
      </trkpt>
      <trkpt lat="45.13895" lon="5.44174">
        <ele>1014.45</ele>
        <time>2014-10-30T13:26:05Z</time>
      </trkpt>
      <trkpt lat="45.13902" lon="5.44175">
        <ele>1011.74</ele>
        <time>2014-10-30T13:26:15Z</time>
      </trkpt>
      <trkpt lat="45.1391" lon="5.44171">
        <ele>1008.43</ele>
        <time>2014-10-30T13:26:25Z</time>
      </trkpt>
      <trkpt lat="45.13919" lon="5.44164">
        <ele>1003.81</ele>
        <time>2014-10-30T13:26:35Z</time>
      </trkpt>
      <trkpt lat="45.13925" lon="5.44153">
        <ele>1002.11</ele>
        <time>2014-10-30T13:26:45Z</time>
      </trkpt>
      <trkpt lat="45.1393" lon="5.44143">
        <ele>999.36</ele>
        <time>2014-10-30T13:26:55Z</time>
      </trkpt>
      <trkpt lat="45.13935" lon="5.44136">
        <ele>997.84</ele>
        <time>2014-10-30T13:27:05Z</time>
      </trkpt>
      <trkpt lat="45.13938" lon="5.44128">
        <ele>995.69</ele>
        <time>2014-10-30T13:27:15Z</time>
      </trkpt>
      <trkpt lat="45.13942" lon="5.44118">
        <ele>994.07</ele>
        <time>2014-10-30T13:27:25Z</time>
      </trkpt>
      <trkpt lat="45.13945" lon="5.44106">
        <ele>992.54</ele>
        <time>2014-10-30T13:27:35Z</time>
      </trkpt>
      <trkpt lat="45.13951" lon="5.44102">
        <ele>991.22</ele>
        <time>2014-10-30T13:27:45Z</time>
      </trkpt>
      <trkpt lat="45.13958" lon="5.44099">
        <ele>989.93</ele>
        <time>2014-10-30T13:27:55Z</time>
      </trkpt>
      <trkpt lat="45.13965" lon="5.44094">
        <ele>988.22</ele>
        <time>2014-10-30T13:28:59Z</time>
      </trkpt>
      <trkpt lat="45.13975" lon="5.44094">
        <ele>987.89</ele>
        <time>2014-10-30T13:29:09Z</time>
      </trkpt>
      <trkpt lat="45.13984" lon="5.44101">
        <ele>987.9</ele>
        <time>2014-10-30T13:29:19Z</time>
      </trkpt>
      <trkpt lat="45.13996" lon="5.44111">
        <ele>987.13</ele>
        <time>2014-10-30T13:29:29Z</time>
      </trkpt>
      <trkpt lat="45.14004" lon="5.44121">
        <ele>986.31</ele>
        <time>2014-10-30T13:29:39Z</time>
      </trkpt>
      <trkpt lat="45.14016" lon="5.44121">
        <ele>986.11</ele>
        <time>2014-10-30T13:29:49Z</time>
      </trkpt>
      <trkpt lat="45.14029" lon="5.44111">
        <ele>986.2</ele>
        <time>2014-10-30T13:29:59Z</time>
      </trkpt>
      <trkpt lat="45.14034" lon="5.44093">
        <ele>986.03</ele>
        <time>2014-10-30T13:30:09Z</time>
      </trkpt>
      <trkpt lat="45.14035" lon="5.4408">
        <ele>985.97</ele>
        <time>2014-10-30T13:30:19Z</time>
      </trkpt>
      <trkpt lat="45.14041" lon="5.44067">
        <ele>986.4</ele>
        <time>2014-10-30T13:30:29Z</time>
      </trkpt>
      <trkpt lat="45.14048" lon="5.44052">
        <ele>986.4</ele>
        <time>2014-10-30T13:30:39Z</time>
      </trkpt>
      <trkpt lat="45.14053" lon="5.44038">
        <ele>986.1</ele>
        <time>2014-10-30T13:30:49Z</time>
      </trkpt>
      <trkpt lat="45.14061" lon="5.44029">
        <ele>985.2</ele>
        <time>2014-10-30T13:30:59Z</time>
      </trkpt>
      <trkpt lat="45.14066" lon="5.44025">
        <ele>985.2</ele>
        <time>2014-10-30T13:31:12Z</time>
      </trkpt>
      <trkpt lat="45.14069" lon="5.44013">
        <ele>985.03</ele>
        <time>2014-10-30T13:31:22Z</time>
      </trkpt>
      <trkpt lat="45.1407" lon="5.43997">
        <ele>984.8</ele>
        <time>2014-10-30T13:31:32Z</time>
      </trkpt>
      <trkpt lat="45.14077" lon="5.43983">
        <ele>984.8</ele>
        <time>2014-10-30T13:31:42Z</time>
      </trkpt>
      <trkpt lat="45.14079" lon="5.43969">
        <ele>984.61</ele>
        <time>2014-10-30T13:31:52Z</time>
      </trkpt>
      <trkpt lat="45.14079" lon="5.43965">
        <ele>984.6</ele>
        <time>2014-10-30T13:32:02Z</time>
      </trkpt>
      <trkpt lat="45.14082" lon="5.43959">
        <ele>984.8</ele>
        <time>2014-10-30T13:32:12Z</time>
      </trkpt>
      <trkpt lat="45.14087" lon="5.43944">
        <ele>984.9</ele>
        <time>2014-10-30T13:32:22Z</time>
      </trkpt>
      <trkpt lat="45.14098" lon="5.43929">
        <ele>984.9</ele>
        <time>2014-10-30T13:32:32Z</time>
      </trkpt>
      <trkpt lat="45.1411" lon="5.43915">
        <ele>985.3</ele>
        <time>2014-10-30T13:32:42Z</time>
      </trkpt>
      <trkpt lat="45.14118" lon="5.43899">
        <ele>985.82</ele>
        <time>2014-10-30T13:32:52Z</time>
      </trkpt>
      <trkpt lat="45.14121" lon="5.43878">
        <ele>987.69</ele>
        <time>2014-10-30T13:33:02Z</time>
      </trkpt>
      <trkpt lat="45.14123" lon="5.43859">
        <ele>989.46</ele>
        <time>2014-10-30T13:33:12Z</time>
      </trkpt>
      <trkpt lat="45.14131" lon="5.43845">
        <ele>990.3</ele>
        <time>2014-10-30T13:33:22Z</time>
      </trkpt>
      <trkpt lat="45.14135" lon="5.4383">
        <ele>990.34</ele>
        <time>2014-10-30T13:33:32Z</time>
      </trkpt>
      <trkpt lat="45.14145" lon="5.43822">
        <ele>990.11</ele>
        <time>2014-10-30T13:33:42Z</time>
      </trkpt>
      <trkpt lat="45.1416" lon="5.43811">
        <ele>989.33</ele>
        <time>2014-10-30T13:33:52Z</time>
      </trkpt>
      <trkpt lat="45.14168" lon="5.43805">
        <ele>988.73</ele>
        <time>2014-10-30T13:34:02Z</time>
      </trkpt>
      <trkpt lat="45.14174" lon="5.43798">
        <ele>987.93</ele>
        <time>2014-10-30T13:34:12Z</time>
      </trkpt>
      <trkpt lat="45.14186" lon="5.43792">
        <ele>987.98</ele>
        <time>2014-10-30T13:34:22Z</time>
      </trkpt>
      <trkpt lat="45.14198" lon="5.43793">
        <ele>987.97</ele>
        <time>2014-10-30T13:34:32Z</time>
      </trkpt>
      <trkpt lat="45.14212" lon="5.43797">
        <ele>987.8</ele>
        <time>2014-10-30T13:34:42Z</time>
      </trkpt>
      <trkpt lat="45.14225" lon="5.43805">
        <ele>985.24</ele>
        <time>2014-10-30T13:34:52Z</time>
      </trkpt>
      <trkpt lat="45.14239" lon="5.43806">
        <ele>982.07</ele>
        <time>2014-10-30T13:35:02Z</time>
      </trkpt>
      <trkpt lat="45.14248" lon="5.43795">
        <ele>979.66</ele>
        <time>2014-10-30T13:35:12Z</time>
      </trkpt>
      <trkpt lat="45.14252" lon="5.43787">
        <ele>977.8</ele>
        <time>2014-10-30T13:35:22Z</time>
      </trkpt>
      <trkpt lat="45.14264" lon="5.43779">
        <ele>977.7</ele>
        <time>2014-10-30T13:35:32Z</time>
      </trkpt>
      <trkpt lat="45.14277" lon="5.43775">
        <ele>976.96</ele>
        <time>2014-10-30T13:35:42Z</time>
      </trkpt>
      <trkpt lat="45.14289" lon="5.4377">
        <ele>975.15</ele>
        <time>2014-10-30T13:35:52Z</time>
      </trkpt>
      <trkpt lat="45.14302" lon="5.43767">
        <ele>972.99</ele>
        <time>2014-10-30T13:36:02Z</time>
      </trkpt>
      <trkpt lat="45.14314" lon="5.43771">
        <ele>969.4</ele>
        <time>2014-10-30T13:36:12Z</time>
      </trkpt>
      <trkpt lat="45.14324" lon="5.43768">
        <ele>965.48</ele>
        <time>2014-10-30T13:36:22Z</time>
      </trkpt>
      <trkpt lat="45.14334" lon="5.43768">
        <ele>961.33</ele>
        <time>2014-10-30T13:36:32Z</time>
      </trkpt>
      <trkpt lat="45.14333" lon="5.43766">
        <ele>961.9</ele>
        <time>2014-10-30T13:36:42Z</time>
      </trkpt>
      <trkpt lat="45.14341" lon="5.43767">
        <ele>964.17</ele>
        <time>2014-10-30T13:36:52Z</time>
      </trkpt>
      <trkpt lat="45.14356" lon="5.43765">
        <ele>964.18</ele>
        <time>2014-10-30T13:37:02Z</time>
      </trkpt>
      <trkpt lat="45.14372" lon="5.43762">
        <ele>963.97</ele>
        <time>2014-10-30T13:37:12Z</time>
      </trkpt>
      <trkpt lat="45.14387" lon="5.43761">
        <ele>963.85</ele>
        <time>2014-10-30T13:37:22Z</time>
      </trkpt>
      <trkpt lat="45.14398" lon="5.43757">
        <ele>960.48</ele>
        <time>2014-10-30T13:37:32Z</time>
      </trkpt>
      <trkpt lat="45.14401" lon="5.43752">
        <ele>959</ele>
        <time>2014-10-30T13:37:42Z</time>
      </trkpt>
      <trkpt lat="45.14407" lon="5.43751">
        <ele>955.92</ele>
        <time>2014-10-30T13:38:19Z</time>
      </trkpt>
      <trkpt lat="45.14418" lon="5.43754">
        <ele>954.84</ele>
        <time>2014-10-30T13:38:29Z</time>
      </trkpt>
      <trkpt lat="45.14418" lon="5.43753">
        <ele>955.2</ele>
        <time>2014-10-30T13:38:39Z</time>
      </trkpt>
      <trkpt lat="45.14426" lon="5.43753">
        <ele>955.39</ele>
        <time>2014-10-30T13:38:49Z</time>
      </trkpt>
      <trkpt lat="45.14441" lon="5.43757">
        <ele>955.42</ele>
        <time>2014-10-30T13:38:59Z</time>
      </trkpt>
      <trkpt lat="45.14453" lon="5.43759">
        <ele>955.4</ele>
        <time>2014-10-30T13:39:09Z</time>
      </trkpt>
      <trkpt lat="45.14462" lon="5.43761">
        <ele>955.03</ele>
        <time>2014-10-30T13:39:19Z</time>
      </trkpt>
      <trkpt lat="45.1447" lon="5.43763">
        <ele>954.8</ele>
        <time>2014-10-30T13:39:29Z</time>
      </trkpt>
      <trkpt lat="45.14482" lon="5.4377">
        <ele>954.33</ele>
        <time>2014-10-30T13:39:39Z</time>
      </trkpt>
      <trkpt lat="45.14495" lon="5.43779">
        <ele>953.71</ele>
        <time>2014-10-30T13:39:49Z</time>
      </trkpt>
      <trkpt lat="45.14505" lon="5.43783">
        <ele>952.14</ele>
        <time>2014-10-30T13:39:59Z</time>
      </trkpt>
      <trkpt lat="45.14518" lon="5.43785">
        <ele>951.03</ele>
        <time>2014-10-30T13:40:09Z</time>
      </trkpt>
      <trkpt lat="45.14534" lon="5.43786">
        <ele>950.01</ele>
        <time>2014-10-30T13:40:19Z</time>
      </trkpt>
      <trkpt lat="45.14549" lon="5.43787">
        <ele>950.79</ele>
        <time>2014-10-30T13:40:29Z</time>
      </trkpt>
      <trkpt lat="45.1456" lon="5.43788">
        <ele>950.4</ele>
        <time>2014-10-30T13:40:39Z</time>
      </trkpt>
      <trkpt lat="45.14577" lon="5.43782">
        <ele>946.28</ele>
        <time>2014-10-30T13:40:49Z</time>
      </trkpt>
      <trkpt lat="45.14589" lon="5.43786">
        <ele>942.87</ele>
        <time>2014-10-30T13:40:59Z</time>
      </trkpt>
      <trkpt lat="45.14598" lon="5.43783">
        <ele>940.03</ele>
        <time>2014-10-30T13:41:09Z</time>
      </trkpt>
      <trkpt lat="45.14608" lon="5.43781">
        <ele>935.73</ele>
        <time>2014-10-30T13:41:19Z</time>
      </trkpt>
      <trkpt lat="45.14621" lon="5.43778">
        <ele>932.67</ele>
        <time>2014-10-30T13:41:29Z</time>
      </trkpt>
      <trkpt lat="45.14634" lon="5.43769">
        <ele>931.04</ele>
        <time>2014-10-30T13:41:39Z</time>
      </trkpt>
      <trkpt lat="45.14648" lon="5.43767">
        <ele>928.87</ele>
        <time>2014-10-30T13:41:49Z</time>
      </trkpt>
      <trkpt lat="45.1466" lon="5.43757">
        <ele>925.83</ele>
        <time>2014-10-30T13:41:59Z</time>
      </trkpt>
      <trkpt lat="45.14667" lon="5.43739">
        <ele>923</ele>
        <time>2014-10-30T13:42:09Z</time>
      </trkpt>
      <trkpt lat="45.14663" lon="5.43727">
        <ele>920.47</ele>
        <time>2014-10-30T13:42:19Z</time>
      </trkpt>
      <trkpt lat="45.14661" lon="5.43721">
        <ele>919.75</ele>
        <time>2014-10-30T13:42:29Z</time>
      </trkpt>
      <trkpt lat="45.1466" lon="5.43723">
        <ele>920.15</ele>
        <time>2014-10-30T13:42:45Z</time>
      </trkpt>
      <trkpt lat="45.1466" lon="5.43724">
        <ele>920.29</ele>
        <time>2014-10-30T13:44:58Z</time>
      </trkpt>
      <trkpt lat="45.14661" lon="5.43727">
        <ele>920.6</ele>
        <time>2014-10-30T13:45:08Z</time>
      </trkpt>
      <trkpt lat="45.14666" lon="5.43722">
        <ele>919.4</ele>
        <time>2014-10-30T13:45:57Z</time>
      </trkpt>
      <trkpt lat="45.14675" lon="5.43712">
        <ele>918.83</ele>
        <time>2014-10-30T13:46:07Z</time>
      </trkpt>
      <trkpt lat="45.14685" lon="5.43703">
        <ele>918.6</ele>
        <time>2014-10-30T13:46:17Z</time>
      </trkpt>
      <trkpt lat="45.14691" lon="5.43693">
        <ele>918.8</ele>
        <time>2014-10-30T13:46:27Z</time>
      </trkpt>
      <trkpt lat="45.14698" lon="5.43689">
        <ele>918.8</ele>
        <time>2014-10-30T13:46:37Z</time>
      </trkpt>
      <trkpt lat="45.14706" lon="5.43681">
        <ele>919.17</ele>
        <time>2014-10-30T13:46:47Z</time>
      </trkpt>
      <trkpt lat="45.14714" lon="5.43674">
        <ele>918.93</ele>
        <time>2014-10-30T13:46:57Z</time>
      </trkpt>
      <trkpt lat="45.14724" lon="5.4367">
        <ele>918.31</ele>
        <time>2014-10-30T13:47:07Z</time>
      </trkpt>
      <trkpt lat="45.14735" lon="5.43664">
        <ele>917.83</ele>
        <time>2014-10-30T13:47:17Z</time>
      </trkpt>
      <trkpt lat="45.14745" lon="5.43654">
        <ele>916.47</ele>
        <time>2014-10-30T13:47:27Z</time>
      </trkpt>
      <trkpt lat="45.14755" lon="5.4365">
        <ele>915.43</ele>
        <time>2014-10-30T13:47:37Z</time>
      </trkpt>
      <trkpt lat="45.14762" lon="5.43654">
        <ele>914.61</ele>
        <time>2014-10-30T13:47:47Z</time>
      </trkpt>
      <trkpt lat="45.14767" lon="5.4365">
        <ele>913.74</ele>
        <time>2014-10-30T13:47:57Z</time>
      </trkpt>
      <trkpt lat="45.14773" lon="5.4364">
        <ele>912.37</ele>
        <time>2014-10-30T13:48:07Z</time>
      </trkpt>
      <trkpt lat="45.14778" lon="5.4363">
        <ele>911.06</ele>
        <time>2014-10-30T13:48:17Z</time>
      </trkpt>
      <trkpt lat="45.14783" lon="5.43618">
        <ele>910.23</ele>
        <time>2014-10-30T13:48:27Z</time>
      </trkpt>
      <trkpt lat="45.14785" lon="5.43606">
        <ele>909.73</ele>
        <time>2014-10-30T13:48:37Z</time>
      </trkpt>
      <trkpt lat="45.14783" lon="5.43595">
        <ele>909.11</ele>
        <time>2014-10-30T13:48:47Z</time>
      </trkpt>
      <trkpt lat="45.14789" lon="5.43583">
        <ele>908.13</ele>
        <time>2014-10-30T13:48:57Z</time>
      </trkpt>
      <trkpt lat="45.1479" lon="5.4358">
        <ele>907.6</ele>
        <time>2014-10-30T13:49:07Z</time>
      </trkpt>
      <trkpt lat="45.14789" lon="5.43577">
        <ele>906.32</ele>
        <time>2014-10-30T13:49:30Z</time>
      </trkpt>
      <trkpt lat="45.148" lon="5.43573">
        <ele>905.11</ele>
        <time>2014-10-30T13:49:40Z</time>
      </trkpt>
      <trkpt lat="45.1481" lon="5.43579">
        <ele>904.43</ele>
        <time>2014-10-30T13:49:50Z</time>
      </trkpt>
      <trkpt lat="45.1482" lon="5.43577">
        <ele>903.21</ele>
        <time>2014-10-30T13:50:00Z</time>
      </trkpt>
      <trkpt lat="45.1483" lon="5.43581">
        <ele>901.87</ele>
        <time>2014-10-30T13:50:10Z</time>
      </trkpt>
      <trkpt lat="45.14838" lon="5.43583">
        <ele>899.24</ele>
        <time>2014-10-30T13:50:20Z</time>
      </trkpt>
      <trkpt lat="45.14844" lon="5.43582">
        <ele>897.22</ele>
        <time>2014-10-30T13:50:30Z</time>
      </trkpt>
      <trkpt lat="45.14853" lon="5.43582">
        <ele>895.57</ele>
        <time>2014-10-30T13:50:40Z</time>
      </trkpt>
      <trkpt lat="45.1486" lon="5.43585">
        <ele>893.4</ele>
        <time>2014-10-30T13:50:50Z</time>
      </trkpt>
      <trkpt lat="45.14868" lon="5.4359">
        <ele>891.59</ele>
        <time>2014-10-30T13:51:00Z</time>
      </trkpt>
      <trkpt lat="45.14878" lon="5.43594">
        <ele>889.25</ele>
        <time>2014-10-30T13:51:10Z</time>
      </trkpt>
      <trkpt lat="45.14888" lon="5.43602">
        <ele>886.78</ele>
        <time>2014-10-30T13:51:20Z</time>
      </trkpt>
      <trkpt lat="45.14893" lon="5.43607">
        <ele>885.63</ele>
        <time>2014-10-30T13:51:30Z</time>
      </trkpt>
      <trkpt lat="45.14901" lon="5.4361">
        <ele>884.43</ele>
        <time>2014-10-30T13:51:40Z</time>
      </trkpt>
      <trkpt lat="45.14906" lon="5.43609">
        <ele>883.23</ele>
        <time>2014-10-30T13:51:50Z</time>
      </trkpt>
      <trkpt lat="45.14909" lon="5.43607">
        <ele>882.9</ele>
        <time>2014-10-30T13:52:00Z</time>
      </trkpt>
      <trkpt lat="45.1492" lon="5.43602">
        <ele>881.48</ele>
        <time>2014-10-30T13:52:10Z</time>
      </trkpt>
      <trkpt lat="45.14915" lon="5.4359">
        <ele>881.58</ele>
        <time>2014-10-30T13:52:43Z</time>
      </trkpt>
      <trkpt lat="45.14917" lon="5.43584">
        <ele>881.33</ele>
        <time>2014-10-30T13:52:53Z</time>
      </trkpt>
      <trkpt lat="45.14918" lon="5.43585">
        <ele>880.85</ele>
        <time>2014-10-30T13:53:04Z</time>
      </trkpt>
      <trkpt lat="45.14921" lon="5.43584">
        <ele>880.77</ele>
        <time>2014-10-30T13:53:14Z</time>
      </trkpt>
      <trkpt lat="45.14912" lon="5.43585">
        <ele>881.75</ele>
        <time>2014-10-30T13:53:24Z</time>
      </trkpt>
      <trkpt lat="45.14914" lon="5.43585">
        <ele>882.77</ele>
        <time>2014-10-30T13:53:34Z</time>
      </trkpt>
      <trkpt lat="45.14926" lon="5.43589">
        <ele>882.71</ele>
        <time>2014-10-30T13:53:44Z</time>
      </trkpt>
      <trkpt lat="45.14941" lon="5.4359">
        <ele>881.66</ele>
        <time>2014-10-30T13:53:54Z</time>
      </trkpt>
      <trkpt lat="45.14951" lon="5.4359">
        <ele>880.06</ele>
        <time>2014-10-30T13:54:04Z</time>
      </trkpt>
      <trkpt lat="45.14954" lon="5.43596">
        <ele>877.92</ele>
        <time>2014-10-30T13:54:14Z</time>
      </trkpt>
      <trkpt lat="45.14962" lon="5.43604">
        <ele>873.88</ele>
        <time>2014-10-30T13:54:24Z</time>
      </trkpt>
      <trkpt lat="45.14966" lon="5.4361">
        <ele>869.78</ele>
        <time>2014-10-30T13:54:34Z</time>
      </trkpt>
      <trkpt lat="45.14973" lon="5.43612">
        <ele>868.06</ele>
        <time>2014-10-30T13:54:44Z</time>
      </trkpt>
      <trkpt lat="45.14977" lon="5.43612">
        <ele>865.01</ele>
        <time>2014-10-30T13:54:54Z</time>
      </trkpt>
      <trkpt lat="45.14982" lon="5.43615">
        <ele>861.6</ele>
        <time>2014-10-30T13:55:04Z</time>
      </trkpt>
      <trkpt lat="45.14988" lon="5.43615">
        <ele>858.5</ele>
        <time>2014-10-30T13:55:14Z</time>
      </trkpt>
      <trkpt lat="45.14994" lon="5.43615">
        <ele>854.51</ele>
        <time>2014-10-30T13:55:24Z</time>
      </trkpt>
      <trkpt lat="45.15001" lon="5.43604">
        <ele>851.41</ele>
        <time>2014-10-30T13:55:34Z</time>
      </trkpt>
      <trkpt lat="45.15004" lon="5.43592">
        <ele>849.49</ele>
        <time>2014-10-30T13:55:44Z</time>
      </trkpt>
      <trkpt lat="45.15004" lon="5.43583">
        <ele>847.7</ele>
        <time>2014-10-30T13:55:54Z</time>
      </trkpt>
      <trkpt lat="45.15004" lon="5.43569">
        <ele>845.91</ele>
        <time>2014-10-30T13:56:04Z</time>
      </trkpt>
      <trkpt lat="45.15008" lon="5.43564">
        <ele>844.53</ele>
        <time>2014-10-30T13:56:14Z</time>
      </trkpt>
      <trkpt lat="45.15013" lon="5.4356">
        <ele>843.24</ele>
        <time>2014-10-30T13:56:24Z</time>
      </trkpt>
      <trkpt lat="45.15023" lon="5.43565">
        <ele>841.79</ele>
        <time>2014-10-30T13:56:34Z</time>
      </trkpt>
      <trkpt lat="45.15031" lon="5.43567">
        <ele>837.73</ele>
        <time>2014-10-30T13:56:44Z</time>
      </trkpt>
      <trkpt lat="45.15039" lon="5.43568">
        <ele>833.46</ele>
        <time>2014-10-30T13:56:54Z</time>
      </trkpt>
      <trkpt lat="45.15044" lon="5.43567">
        <ele>829.63</ele>
        <time>2014-10-30T13:57:04Z</time>
      </trkpt>
      <trkpt lat="45.15053" lon="5.43572">
        <ele>825.18</ele>
        <time>2014-10-30T13:57:14Z</time>
      </trkpt>
      <trkpt lat="45.15057" lon="5.4356">
        <ele>819.97</ele>
        <time>2014-10-30T13:57:24Z</time>
      </trkpt>
      <trkpt lat="45.15054" lon="5.43545">
        <ele>816.84</ele>
        <time>2014-10-30T13:57:34Z</time>
      </trkpt>
      <trkpt lat="45.15049" lon="5.43532">
        <ele>814.89</ele>
        <time>2014-10-30T13:57:44Z</time>
      </trkpt>
      <trkpt lat="45.15044" lon="5.43516">
        <ele>813.44</ele>
        <time>2014-10-30T13:57:54Z</time>
      </trkpt>
      <trkpt lat="45.15048" lon="5.43504">
        <ele>812.73</ele>
        <time>2014-10-30T13:58:04Z</time>
      </trkpt>
      <trkpt lat="45.15059" lon="5.43512">
        <ele>811.14</ele>
        <time>2014-10-30T13:58:14Z</time>
      </trkpt>
      <trkpt lat="45.15068" lon="5.43519">
        <ele>810.03</ele>
        <time>2014-10-30T13:58:24Z</time>
      </trkpt>
      <trkpt lat="45.15076" lon="5.43532">
        <ele>808.93</ele>
        <time>2014-10-30T13:58:34Z</time>
      </trkpt>
      <trkpt lat="45.15084" lon="5.43543">
        <ele>808.03</ele>
        <time>2014-10-30T13:58:44Z</time>
      </trkpt>
      <trkpt lat="45.15092" lon="5.43556">
        <ele>807.5</ele>
        <time>2014-10-30T13:58:54Z</time>
      </trkpt>
      <trkpt lat="45.15096" lon="5.43563">
        <ele>805.76</ele>
        <time>2014-10-30T13:59:04Z</time>
      </trkpt>
      <trkpt lat="45.15099" lon="5.43566">
        <ele>805.1</ele>
        <time>2014-10-30T13:59:14Z</time>
      </trkpt>
      <trkpt lat="45.15101" lon="5.43569">
        <ele>805.79</ele>
        <time>2014-10-30T13:59:24Z</time>
      </trkpt>
      <trkpt lat="45.15108" lon="5.43573">
        <ele>805.05</ele>
        <time>2014-10-30T13:59:43Z</time>
      </trkpt>
      <trkpt lat="45.15113" lon="5.43573">
        <ele>803.56</ele>
        <time>2014-10-30T13:59:53Z</time>
      </trkpt>
      <trkpt lat="45.15119" lon="5.43572">
        <ele>802.67</ele>
        <time>2014-10-30T14:00:03Z</time>
      </trkpt>
      <trkpt lat="45.15126" lon="5.43568">
        <ele>802.23</ele>
        <time>2014-10-30T14:00:13Z</time>
      </trkpt>
      <trkpt lat="45.15132" lon="5.43564">
        <ele>801.4</ele>
        <time>2014-10-30T14:00:23Z</time>
      </trkpt>
      <trkpt lat="45.15144" lon="5.43556">
        <ele>800.36</ele>
        <time>2014-10-30T14:00:33Z</time>
      </trkpt>
      <trkpt lat="45.15149" lon="5.43553">
        <ele>798.96</ele>
        <time>2014-10-30T14:00:43Z</time>
      </trkpt>
      <trkpt lat="45.15155" lon="5.43546">
        <ele>797.33</ele>
        <time>2014-10-30T14:00:53Z</time>
      </trkpt>
      <trkpt lat="45.15163" lon="5.43539">
        <ele>795.77</ele>
        <time>2014-10-30T14:01:03Z</time>
      </trkpt>
      <trkpt lat="45.15167" lon="5.43529">
        <ele>793.07</ele>
        <time>2014-10-30T14:01:13Z</time>
      </trkpt>
      <trkpt lat="45.1517" lon="5.43516">
        <ele>791.47</ele>
        <time>2014-10-30T14:01:23Z</time>
      </trkpt>
      <trkpt lat="45.15169" lon="5.43506">
        <ele>790.21</ele>
        <time>2014-10-30T14:01:33Z</time>
      </trkpt>
      <trkpt lat="45.15167" lon="5.43495">
        <ele>789.41</ele>
        <time>2014-10-30T14:01:43Z</time>
      </trkpt>
      <trkpt lat="45.15163" lon="5.43488">
        <ele>788.6</ele>
        <time>2014-10-30T14:01:53Z</time>
      </trkpt>
      <trkpt lat="45.15161" lon="5.43481">
        <ele>787.86</ele>
        <time>2014-10-30T14:02:03Z</time>
      </trkpt>
      <trkpt lat="45.1516" lon="5.4348">
        <ele>787.6</ele>
        <time>2014-10-30T14:02:13Z</time>
      </trkpt>
      <trkpt lat="45.15157" lon="5.43484">
        <ele>786.18</ele>
        <time>2014-10-30T14:02:35Z</time>
      </trkpt>
      <trkpt lat="45.15161" lon="5.43486">
        <ele>785.5</ele>
        <time>2014-10-30T14:02:45Z</time>
      </trkpt>
      <trkpt lat="45.1517" lon="5.43486">
        <ele>785.01</ele>
        <time>2014-10-30T14:02:55Z</time>
      </trkpt>
      <trkpt lat="45.15184" lon="5.43491">
        <ele>783.66</ele>
        <time>2014-10-30T14:03:05Z</time>
      </trkpt>
      <trkpt lat="45.15196" lon="5.43493">
        <ele>781.22</ele>
        <time>2014-10-30T14:03:15Z</time>
      </trkpt>
      <trkpt lat="45.152" lon="5.43494">
        <ele>778.2</ele>
        <time>2014-10-30T14:03:25Z</time>
      </trkpt>
      <trkpt lat="45.15206" lon="5.43496">
        <ele>774.33</ele>
        <time>2014-10-30T14:03:35Z</time>
      </trkpt>
      <trkpt lat="45.15211" lon="5.43498">
        <ele>770.31</ele>
        <time>2014-10-30T14:03:45Z</time>
      </trkpt>
      <trkpt lat="45.15222" lon="5.43501">
        <ele>767.62</ele>
        <time>2014-10-30T14:03:55Z</time>
      </trkpt>
      <trkpt lat="45.15231" lon="5.43504">
        <ele>763.13</ele>
        <time>2014-10-30T14:04:05Z</time>
      </trkpt>
      <trkpt lat="45.15238" lon="5.43507">
        <ele>757.86</ele>
        <time>2014-10-30T14:04:15Z</time>
      </trkpt>
      <trkpt lat="45.15243" lon="5.4351">
        <ele>755.1</ele>
        <time>2014-10-30T14:04:25Z</time>
      </trkpt>
      <trkpt lat="45.15257" lon="5.4351">
        <ele>754.57</ele>
        <time>2014-10-30T14:04:35Z</time>
      </trkpt>
      <trkpt lat="45.15264" lon="5.4351">
        <ele>753.56</ele>
        <time>2014-10-30T14:04:45Z</time>
      </trkpt>
      <trkpt lat="45.15277" lon="5.43508">
        <ele>752.88</ele>
        <time>2014-10-30T14:04:55Z</time>
      </trkpt>
      <trkpt lat="45.15292" lon="5.43496">
        <ele>750.89</ele>
        <time>2014-10-30T14:05:05Z</time>
      </trkpt>
      <trkpt lat="45.15303" lon="5.43484">
        <ele>749.28</ele>
        <time>2014-10-30T14:05:15Z</time>
      </trkpt>
      <trkpt lat="45.15314" lon="5.43478">
        <ele>748.43</ele>
        <time>2014-10-30T14:05:25Z</time>
      </trkpt>
      <trkpt lat="45.15322" lon="5.4348">
        <ele>746.98</ele>
        <time>2014-10-30T14:05:35Z</time>
      </trkpt>
      <trkpt lat="45.15325" lon="5.43489">
        <ele>745.91</ele>
        <time>2014-10-30T14:05:45Z</time>
      </trkpt>
      <trkpt lat="45.15318" lon="5.435">
        <ele>745.45</ele>
        <time>2014-10-30T14:05:55Z</time>
      </trkpt>
      <trkpt lat="45.15308" lon="5.43507">
        <ele>744.33</ele>
        <time>2014-10-30T14:06:05Z</time>
      </trkpt>
      <trkpt lat="45.15302" lon="5.43513">
        <ele>743.6</ele>
        <time>2014-10-30T14:06:15Z</time>
      </trkpt>
      <trkpt lat="45.15298" lon="5.43517">
        <ele>743.61</ele>
        <time>2014-10-30T14:06:25Z</time>
      </trkpt>
      <trkpt lat="45.15296" lon="5.43518">
        <ele>743.69</ele>
        <time>2014-10-30T14:06:35Z</time>
      </trkpt>
      <trkpt lat="45.15288" lon="5.4353">
        <ele>743.7</ele>
        <time>2014-10-30T14:06:45Z</time>
      </trkpt>
      <trkpt lat="45.15282" lon="5.43545">
        <ele>744.09</ele>
        <time>2014-10-30T14:06:55Z</time>
      </trkpt>
      <trkpt lat="45.15287" lon="5.43564">
        <ele>744.1</ele>
        <time>2014-10-30T14:07:05Z</time>
      </trkpt>
      <trkpt lat="45.15292" lon="5.43577">
        <ele>743.93</ele>
        <time>2014-10-30T14:07:15Z</time>
      </trkpt>
      <trkpt lat="45.15298" lon="5.43588">
        <ele>743.88</ele>
        <time>2014-10-30T14:07:25Z</time>
      </trkpt>
      <trkpt lat="45.15305" lon="5.43605">
        <ele>744.02</ele>
        <time>2014-10-30T14:07:35Z</time>
      </trkpt>
      <trkpt lat="45.15313" lon="5.43617">
        <ele>743.16</ele>
        <time>2014-10-30T14:07:45Z</time>
      </trkpt>
      <trkpt lat="45.15317" lon="5.43633">
        <ele>741.7</ele>
        <time>2014-10-30T14:07:55Z</time>
      </trkpt>
      <trkpt lat="45.15325" lon="5.43644">
        <ele>739.99</ele>
        <time>2014-10-30T14:08:05Z</time>
      </trkpt>
      <trkpt lat="45.15326" lon="5.43651">
        <ele>738.8</ele>
        <time>2014-10-30T14:08:15Z</time>
      </trkpt>
      <trkpt lat="45.15331" lon="5.43651">
        <ele>737.86</ele>
        <time>2014-10-30T14:08:25Z</time>
      </trkpt>
      <trkpt lat="45.15338" lon="5.43658">
        <ele>735.89</ele>
        <time>2014-10-30T14:08:35Z</time>
      </trkpt>
      <trkpt lat="45.15346" lon="5.43662">
        <ele>735.13</ele>
        <time>2014-10-30T14:08:45Z</time>
      </trkpt>
      <trkpt lat="45.15354" lon="5.43666">
        <ele>733.31</ele>
        <time>2014-10-30T14:08:55Z</time>
      </trkpt>
      <trkpt lat="45.15366" lon="5.43671">
        <ele>730.96</ele>
        <time>2014-10-30T14:09:05Z</time>
      </trkpt>
      <trkpt lat="45.15373" lon="5.43673">
        <ele>728.96</ele>
        <time>2014-10-30T14:09:15Z</time>
      </trkpt>
      <trkpt lat="45.15384" lon="5.43677">
        <ele>727.07</ele>
        <time>2014-10-30T14:09:25Z</time>
      </trkpt>
      <trkpt lat="45.15391" lon="5.43684">
        <ele>724.87</ele>
        <time>2014-10-30T14:09:35Z</time>
      </trkpt>
      <trkpt lat="45.15401" lon="5.43688">
        <ele>721.17</ele>
        <time>2014-10-30T14:09:45Z</time>
      </trkpt>
      <trkpt lat="45.15411" lon="5.43688">
        <ele>718.29</ele>
        <time>2014-10-30T14:09:55Z</time>
      </trkpt>
      <trkpt lat="45.1542" lon="5.43692">
        <ele>715.4</ele>
        <time>2014-10-30T14:10:05Z</time>
      </trkpt>
      <trkpt lat="45.15428" lon="5.43695">
        <ele>711.87</ele>
        <time>2014-10-30T14:10:15Z</time>
      </trkpt>
      <trkpt lat="45.15439" lon="5.43703">
        <ele>708.88</ele>
        <time>2014-10-30T14:10:25Z</time>
      </trkpt>
      <trkpt lat="45.1545" lon="5.43712">
        <ele>705.4</ele>
        <time>2014-10-30T14:10:35Z</time>
      </trkpt>
      <trkpt lat="45.1545" lon="5.43715">
        <ele>704.45</ele>
        <time>2014-10-30T14:10:45Z</time>
      </trkpt>
      <trkpt lat="45.15457" lon="5.43726">
        <ele>703.63</ele>
        <time>2014-10-30T14:10:55Z</time>
      </trkpt>
      <trkpt lat="45.15462" lon="5.43743">
        <ele>702.73</ele>
        <time>2014-10-30T14:11:05Z</time>
      </trkpt>
      <trkpt lat="45.15464" lon="5.43761">
        <ele>702.03</ele>
        <time>2014-10-30T14:11:15Z</time>
      </trkpt>
      <trkpt lat="45.15466" lon="5.43773">
        <ele>700.61</ele>
        <time>2014-10-30T14:11:25Z</time>
      </trkpt>
      <trkpt lat="45.15469" lon="5.4379">
        <ele>698.57</ele>
        <time>2014-10-30T14:11:35Z</time>
      </trkpt>
      <trkpt lat="45.15476" lon="5.43804">
        <ele>697.43</ele>
        <time>2014-10-30T14:11:45Z</time>
      </trkpt>
      <trkpt lat="45.1548" lon="5.43816">
        <ele>695.38</ele>
        <time>2014-10-30T14:11:55Z</time>
      </trkpt>
      <trkpt lat="45.15483" lon="5.43831">
        <ele>691.83</ele>
        <time>2014-10-30T14:12:05Z</time>
      </trkpt>
      <trkpt lat="45.15488" lon="5.43844">
        <ele>689.47</ele>
        <time>2014-10-30T14:12:15Z</time>
      </trkpt>
      <trkpt lat="45.15493" lon="5.43852">
        <ele>687.76</ele>
        <time>2014-10-30T14:12:25Z</time>
      </trkpt>
      <trkpt lat="45.15498" lon="5.4386">
        <ele>685.97</ele>
        <time>2014-10-30T14:12:35Z</time>
      </trkpt>
      <trkpt lat="45.15505" lon="5.43871">
        <ele>683.97</ele>
        <time>2014-10-30T14:12:45Z</time>
      </trkpt>
      <trkpt lat="45.15512" lon="5.43877">
        <ele>682.27</ele>
        <time>2014-10-30T14:12:55Z</time>
      </trkpt>
      <trkpt lat="45.15518" lon="5.43886">
        <ele>680.54</ele>
        <time>2014-10-30T14:13:05Z</time>
      </trkpt>
      <trkpt lat="45.15524" lon="5.43897">
        <ele>678.96</ele>
        <time>2014-10-30T14:13:15Z</time>
      </trkpt>
      <trkpt lat="45.15534" lon="5.43905">
        <ele>677.46</ele>
        <time>2014-10-30T14:13:25Z</time>
      </trkpt>
      <trkpt lat="45.15541" lon="5.43911">
        <ele>675.84</ele>
        <time>2014-10-30T14:13:35Z</time>
      </trkpt>
      <trkpt lat="45.1555" lon="5.43916">
        <ele>674.83</ele>
        <time>2014-10-30T14:13:45Z</time>
      </trkpt>
      <trkpt lat="45.15557" lon="5.4392">
        <ele>673.96</ele>
        <time>2014-10-30T14:13:55Z</time>
      </trkpt>
      <trkpt lat="45.1556" lon="5.43923">
        <ele>672.44</ele>
        <time>2014-10-30T14:14:05Z</time>
      </trkpt>
      <trkpt lat="45.15565" lon="5.43935">
        <ele>670.86</ele>
        <time>2014-10-30T14:14:15Z</time>
      </trkpt>
      <trkpt lat="45.15566" lon="5.43946">
        <ele>670.08</ele>
        <time>2014-10-30T14:14:25Z</time>
      </trkpt>
      <trkpt lat="45.15567" lon="5.43958">
        <ele>669.63</ele>
        <time>2014-10-30T14:14:35Z</time>
      </trkpt>
      <trkpt lat="45.15566" lon="5.43972">
        <ele>668.73</ele>
        <time>2014-10-30T14:14:45Z</time>
      </trkpt>
      <trkpt lat="45.15569" lon="5.43979">
        <ele>667.66</ele>
        <time>2014-10-30T14:14:55Z</time>
      </trkpt>
      <trkpt lat="45.15573" lon="5.43984">
        <ele>666.53</ele>
        <time>2014-10-30T14:15:05Z</time>
      </trkpt>
      <trkpt lat="45.15589" lon="5.43986">
        <ele>665.66</ele>
        <time>2014-10-30T14:15:15Z</time>
      </trkpt>
      <trkpt lat="45.15604" lon="5.43977">
        <ele>664.24</ele>
        <time>2014-10-30T14:15:25Z</time>
      </trkpt>
      <trkpt lat="45.15614" lon="5.43966">
        <ele>662.93</ele>
        <time>2014-10-30T14:15:35Z</time>
      </trkpt>
      <trkpt lat="45.15615" lon="5.43958">
        <ele>662.13</ele>
        <time>2014-10-30T14:15:45Z</time>
      </trkpt>
      <trkpt lat="45.15626" lon="5.43948">
        <ele>661.61</ele>
        <time>2014-10-30T14:15:55Z</time>
      </trkpt>
      <trkpt lat="45.15631" lon="5.43939">
        <ele>661.31</ele>
        <time>2014-10-30T14:16:05Z</time>
      </trkpt>
      <trkpt lat="45.15632" lon="5.4393">
        <ele>661.3</ele>
        <time>2014-10-30T14:16:15Z</time>
      </trkpt>
      <trkpt lat="45.15634" lon="5.43929">
        <ele>661.2</ele>
        <time>2014-10-30T14:16:25Z</time>
      </trkpt>
      <trkpt lat="45.15632" lon="5.43925">
        <ele>661.65</ele>
        <time>2014-10-30T14:16:35Z</time>
      </trkpt>
      <trkpt lat="45.15633" lon="5.43923">
        <ele>662</ele>
        <time>2014-10-30T14:16:45Z</time>
      </trkpt>
      <trkpt lat="45.1563" lon="5.43916">
        <ele>661.77</ele>
        <time>2014-10-30T14:16:58Z</time>
      </trkpt>
      <trkpt lat="45.1563" lon="5.43911">
        <ele>661.82</ele>
        <time>2014-10-30T14:17:08Z</time>
      </trkpt>
      <trkpt lat="45.15633" lon="5.43892">
        <ele>661.72</ele>
        <time>2014-10-30T14:17:18Z</time>
      </trkpt>
      <trkpt lat="45.15631" lon="5.43878">
        <ele>661.68</ele>
        <time>2014-10-30T14:17:28Z</time>
      </trkpt>
      <trkpt lat="45.15623" lon="5.43871">
        <ele>661.7</ele>
        <time>2014-10-30T14:17:38Z</time>
      </trkpt>
      <trkpt lat="45.15623" lon="5.43849">
        <ele>661.7</ele>
        <time>2014-10-30T14:17:48Z</time>
      </trkpt>
      <trkpt lat="45.15627" lon="5.43839">
        <ele>661.6</ele>
        <time>2014-10-30T14:17:58Z</time>
      </trkpt>
      <trkpt lat="45.15625" lon="5.43831">
        <ele>661.6</ele>
        <time>2014-10-30T14:18:08Z</time>
      </trkpt>
      <trkpt lat="45.15619" lon="5.43822">
        <ele>661.52</ele>
        <time>2014-10-30T14:18:18Z</time>
      </trkpt>
      <trkpt lat="45.15609" lon="5.43799">
        <ele>661.5</ele>
        <time>2014-10-30T14:18:28Z</time>
      </trkpt>
      <trkpt lat="45.15616" lon="5.4379">
        <ele>661.23</ele>
        <time>2014-10-30T14:18:38Z</time>
      </trkpt>
      <trkpt lat="45.15589" lon="5.43769">
        <ele>661.01</ele>
        <time>2014-10-30T14:18:48Z</time>
      </trkpt>
      <trkpt lat="45.15546" lon="5.43728">
        <ele>660.63</ele>
        <time>2014-10-30T14:18:58Z</time>
      </trkpt>
      <trkpt lat="45.15548" lon="5.43726">
        <ele>660.33</ele>
        <time>2014-10-30T14:19:08Z</time>
      </trkpt>
      <trkpt lat="45.15586" lon="5.43723">
        <ele>660.03</ele>
        <time>2014-10-30T14:19:18Z</time>
      </trkpt>
      <trkpt lat="45.15585" lon="5.4371">
        <ele>659.7</ele>
        <time>2014-10-30T14:19:28Z</time>
      </trkpt>
      <trkpt lat="45.15589" lon="5.43695">
        <ele>659.13</ele>
        <time>2014-10-30T14:19:38Z</time>
      </trkpt>
      <trkpt lat="45.15633" lon="5.43687">
        <ele>657.73</ele>
        <time>2014-10-30T14:19:48Z</time>
      </trkpt>
      <trkpt lat="45.15654" lon="5.43677">
        <ele>657.03</ele>
        <time>2014-10-30T14:19:58Z</time>
      </trkpt>
      <trkpt lat="45.15654" lon="5.43617">
        <ele>655.8</ele>
        <time>2014-10-30T14:20:08Z</time>
      </trkpt>
      <trkpt lat="45.15662" lon="5.43583">
        <ele>654.44</ele>
        <time>2014-10-30T14:20:18Z</time>
      </trkpt>
      <trkpt lat="45.15675" lon="5.43594">
        <ele>653.34</ele>
        <time>2014-10-30T14:20:28Z</time>
      </trkpt>
      <trkpt lat="45.15693" lon="5.4364">
        <ele>652.33</ele>
        <time>2014-10-30T14:20:38Z</time>
      </trkpt>
      <trkpt lat="45.15701" lon="5.43671">
        <ele>650.86</ele>
        <time>2014-10-30T14:20:48Z</time>
      </trkpt>
      <trkpt lat="45.15708" lon="5.43678">
        <ele>649.14</ele>
        <time>2014-10-30T14:20:58Z</time>
      </trkpt>
      <trkpt lat="45.15721" lon="5.43682">
        <ele>648.08</ele>
        <time>2014-10-30T14:21:10Z</time>
      </trkpt>
      <trkpt lat="45.15733" lon="5.43688">
        <ele>648.39</ele>
        <time>2014-10-30T14:21:20Z</time>
      </trkpt>
      <trkpt lat="45.15744" lon="5.43693">
        <ele>648.96</ele>
        <time>2014-10-30T14:21:30Z</time>
      </trkpt>
      <trkpt lat="45.15756" lon="5.43682">
        <ele>649</ele>
        <time>2014-10-30T14:21:40Z</time>
      </trkpt>
      <trkpt lat="45.15773" lon="5.43688">
        <ele>648.7</ele>
        <time>2014-10-30T14:21:50Z</time>
      </trkpt>
      <trkpt lat="45.15792" lon="5.43719">
        <ele>648.21</ele>
        <time>2014-10-30T14:22:00Z</time>
      </trkpt>
      <trkpt lat="45.15803" lon="5.43718">
        <ele>647.9</ele>
        <time>2014-10-30T14:22:10Z</time>
      </trkpt>
      <trkpt lat="45.15814" lon="5.43721">
        <ele>646.84</ele>
        <time>2014-10-30T14:22:20Z</time>
      </trkpt>
      <trkpt lat="45.15824" lon="5.43717">
        <ele>645.72</ele>
        <time>2014-10-30T14:22:30Z</time>
      </trkpt>
      <trkpt lat="45.15832" lon="5.43715">
        <ele>642.55</ele>
        <time>2014-10-30T14:22:40Z</time>
      </trkpt>
      <trkpt lat="45.15842" lon="5.43712">
        <ele>640.41</ele>
        <time>2014-10-30T14:22:50Z</time>
      </trkpt>
      <trkpt lat="45.15852" lon="5.43702">
        <ele>637.44</ele>
        <time>2014-10-30T14:23:00Z</time>
      </trkpt>
      <trkpt lat="45.15861" lon="5.4369">
        <ele>635.58</ele>
        <time>2014-10-30T14:23:10Z</time>
      </trkpt>
      <trkpt lat="45.15872" lon="5.43679">
        <ele>633.68</ele>
        <time>2014-10-30T14:23:20Z</time>
      </trkpt>
      <trkpt lat="45.15879" lon="5.43668">
        <ele>630.29</ele>
        <time>2014-10-30T14:23:30Z</time>
      </trkpt>
      <trkpt lat="45.15891" lon="5.43659">
        <ele>628.24</ele>
        <time>2014-10-30T14:23:40Z</time>
      </trkpt>
      <trkpt lat="45.15898" lon="5.43654">
        <ele>626.43</ele>
        <time>2014-10-30T14:23:50Z</time>
      </trkpt>
      <trkpt lat="45.15898" lon="5.43652">
        <ele>626.07</ele>
        <time>2014-10-30T14:24:00Z</time>
      </trkpt>
      <trkpt lat="45.15896" lon="5.43651">
        <ele>626.03</ele>
        <time>2014-10-30T14:24:10Z</time>
      </trkpt>
      <trkpt lat="45.15889" lon="5.43647">
        <ele>625.23</ele>
        <time>2014-10-30T14:24:20Z</time>
      </trkpt>
      <trkpt lat="45.15889" lon="5.43641">
        <ele>624.72</ele>
        <time>2014-10-30T14:24:30Z</time>
      </trkpt>
      <trkpt lat="45.15892" lon="5.43638">
        <ele>624.35</ele>
        <time>2014-10-30T14:24:40Z</time>
      </trkpt>
      <trkpt lat="45.15898" lon="5.43632">
        <ele>623.7</ele>
        <time>2014-10-30T14:24:50Z</time>
      </trkpt>
      <trkpt lat="45.15903" lon="5.43621">
        <ele>622.53</ele>
        <time>2014-10-30T14:25:00Z</time>
      </trkpt>
      <trkpt lat="45.15915" lon="5.43615">
        <ele>622.1</ele>
        <time>2014-10-30T14:25:10Z</time>
      </trkpt>
      <trkpt lat="45.15924" lon="5.43611">
        <ele>618.97</ele>
        <time>2014-10-30T14:25:20Z</time>
      </trkpt>
      <trkpt lat="45.15934" lon="5.43601">
        <ele>617.86</ele>
        <time>2014-10-30T14:25:30Z</time>
      </trkpt>
      <trkpt lat="45.1594" lon="5.4359">
        <ele>616.63</ele>
        <time>2014-10-30T14:25:40Z</time>
      </trkpt>
      <trkpt lat="45.1595" lon="5.43581">
        <ele>616.01</ele>
        <time>2014-10-30T14:25:50Z</time>
      </trkpt>
      <trkpt lat="45.15954" lon="5.43572">
        <ele>615.8</ele>
        <time>2014-10-30T14:26:00Z</time>
      </trkpt>
      <trkpt lat="45.15967" lon="5.43567">
        <ele>615.41</ele>
        <time>2014-10-30T14:26:10Z</time>
      </trkpt>
      <trkpt lat="45.15974" lon="5.43562">
        <ele>614.26</ele>
        <time>2014-10-30T14:26:20Z</time>
      </trkpt>
      <trkpt lat="45.15991" lon="5.43563">
        <ele>612.01</ele>
        <time>2014-10-30T14:26:30Z</time>
      </trkpt>
      <trkpt lat="45.15996" lon="5.43548">
        <ele>610.8</ele>
        <time>2014-10-30T14:26:40Z</time>
      </trkpt>
      <trkpt lat="45.16004" lon="5.43538">
        <ele>608.65</ele>
        <time>2014-10-30T14:26:50Z</time>
      </trkpt>
      <trkpt lat="45.16011" lon="5.43526">
        <ele>605.44</ele>
        <time>2014-10-30T14:27:00Z</time>
      </trkpt>
      <trkpt lat="45.16022" lon="5.43511">
        <ele>605.82</ele>
        <time>2014-10-30T14:27:10Z</time>
      </trkpt>
      <trkpt lat="45.1603" lon="5.43499">
        <ele>606.67</ele>
        <time>2014-10-30T14:27:20Z</time>
      </trkpt>
      <trkpt lat="45.16035" lon="5.43487">
        <ele>605.37</ele>
        <time>2014-10-30T14:27:30Z</time>
      </trkpt>
      <trkpt lat="45.16038" lon="5.4347">
        <ele>605.76</ele>
        <time>2014-10-30T14:27:40Z</time>
      </trkpt>
      <trkpt lat="45.16042" lon="5.43453">
        <ele>605.27</ele>
        <time>2014-10-30T14:27:50Z</time>
      </trkpt>
      <trkpt lat="45.16047" lon="5.43441">
        <ele>604.93</ele>
        <time>2014-10-30T14:28:00Z</time>
      </trkpt>
      <trkpt lat="45.16056" lon="5.43425">
        <ele>604.06</ele>
        <time>2014-10-30T14:28:10Z</time>
      </trkpt>
      <trkpt lat="45.16057" lon="5.43409">
        <ele>603.23</ele>
        <time>2014-10-30T14:28:20Z</time>
      </trkpt>
      <trkpt lat="45.16064" lon="5.43392">
        <ele>601.57</ele>
        <time>2014-10-30T14:28:30Z</time>
      </trkpt>
      <trkpt lat="45.16072" lon="5.43383">
        <ele>600.23</ele>
        <time>2014-10-30T14:28:40Z</time>
      </trkpt>
      <trkpt lat="45.16078" lon="5.43371">
        <ele>597.89</ele>
        <time>2014-10-30T14:28:50Z</time>
      </trkpt>
      <trkpt lat="45.16081" lon="5.43362">
        <ele>596.85</ele>
        <time>2014-10-30T14:29:00Z</time>
      </trkpt>
      <trkpt lat="45.16083" lon="5.43343">
        <ele>593.76</ele>
        <time>2014-10-30T14:29:10Z</time>
      </trkpt>
      <trkpt lat="45.16089" lon="5.43335">
        <ele>591.66</ele>
        <time>2014-10-30T14:29:20Z</time>
      </trkpt>
      <trkpt lat="45.16095" lon="5.43327">
        <ele>590.46</ele>
        <time>2014-10-30T14:29:30Z</time>
      </trkpt>
      <trkpt lat="45.16104" lon="5.43318">
        <ele>588.85</ele>
        <time>2014-10-30T14:29:40Z</time>
      </trkpt>
      <trkpt lat="45.16111" lon="5.43309">
        <ele>587.95</ele>
        <time>2014-10-30T14:29:50Z</time>
      </trkpt>
      <trkpt lat="45.16117" lon="5.43295">
        <ele>587.8</ele>
        <time>2014-10-30T14:30:00Z</time>
      </trkpt>
      <trkpt lat="45.16126" lon="5.43285">
        <ele>587.52</ele>
        <time>2014-10-30T14:30:10Z</time>
      </trkpt>
      <trkpt lat="45.16129" lon="5.43274">
        <ele>587.6</ele>
        <time>2014-10-30T14:30:20Z</time>
      </trkpt>
      <trkpt lat="45.16133" lon="5.43259">
        <ele>587.3</ele>
        <time>2014-10-30T14:30:30Z</time>
      </trkpt>
      <trkpt lat="45.16133" lon="5.43241">
        <ele>586.98</ele>
        <time>2014-10-30T14:30:40Z</time>
      </trkpt>
      <trkpt lat="45.16135" lon="5.43222">
        <ele>586.03</ele>
        <time>2014-10-30T14:30:50Z</time>
      </trkpt>
      <trkpt lat="45.16145" lon="5.43208">
        <ele>584.4</ele>
        <time>2014-10-30T14:31:00Z</time>
      </trkpt>
      <trkpt lat="45.16151" lon="5.43198">
        <ele>582.64</ele>
        <time>2014-10-30T14:31:10Z</time>
      </trkpt>
      <trkpt lat="45.16153" lon="5.43192">
        <ele>581.21</ele>
        <time>2014-10-30T14:31:20Z</time>
      </trkpt>
      <trkpt lat="45.16157" lon="5.43189">
        <ele>580.33</ele>
        <time>2014-10-30T14:31:30Z</time>
      </trkpt>
      <trkpt lat="45.16158" lon="5.43175">
        <ele>578.73</ele>
        <time>2014-10-30T14:31:40Z</time>
      </trkpt>
      <trkpt lat="45.16161" lon="5.43163">
        <ele>577.07</ele>
        <time>2014-10-30T14:31:50Z</time>
      </trkpt>
      <trkpt lat="45.16165" lon="5.4315">
        <ele>575.14</ele>
        <time>2014-10-30T14:32:00Z</time>
      </trkpt>
      <trkpt lat="45.16174" lon="5.43139">
        <ele>573.13</ele>
        <time>2014-10-30T14:32:10Z</time>
      </trkpt>
      <trkpt lat="45.16182" lon="5.43128">
        <ele>570.94</ele>
        <time>2014-10-30T14:32:20Z</time>
      </trkpt>
      <trkpt lat="45.16188" lon="5.43114">
        <ele>568.05</ele>
        <time>2014-10-30T14:32:30Z</time>
      </trkpt>
      <trkpt lat="45.16188" lon="5.43096">
        <ele>565.52</ele>
        <time>2014-10-30T14:32:40Z</time>
      </trkpt>
      <trkpt lat="45.16198" lon="5.43083">
        <ele>560.04</ele>
        <time>2014-10-30T14:32:50Z</time>
      </trkpt>
      <trkpt lat="45.16207" lon="5.43075">
        <ele>555.96</ele>
        <time>2014-10-30T14:33:00Z</time>
      </trkpt>
      <trkpt lat="45.16216" lon="5.43066">
        <ele>552.28</ele>
        <time>2014-10-30T14:33:10Z</time>
      </trkpt>
      <trkpt lat="45.16218" lon="5.43053">
        <ele>548.2</ele>
        <time>2014-10-30T14:33:20Z</time>
      </trkpt>
      <trkpt lat="45.16223" lon="5.43041">
        <ele>544.56</ele>
        <time>2014-10-30T14:33:30Z</time>
      </trkpt>
      <trkpt lat="45.16232" lon="5.43026">
        <ele>540.12</ele>
        <time>2014-10-30T14:33:40Z</time>
      </trkpt>
      <trkpt lat="45.16239" lon="5.43014">
        <ele>535.95</ele>
        <time>2014-10-30T14:33:50Z</time>
      </trkpt>
      <trkpt lat="45.16242" lon="5.43">
        <ele>531.64</ele>
        <time>2014-10-30T14:34:00Z</time>
      </trkpt>
      <trkpt lat="45.16243" lon="5.42986">
        <ele>527.73</ele>
        <time>2014-10-30T14:34:10Z</time>
      </trkpt>
      <trkpt lat="45.16248" lon="5.42974">
        <ele>524.52</ele>
        <time>2014-10-30T14:34:20Z</time>
      </trkpt>
      <trkpt lat="45.16259" lon="5.42964">
        <ele>521.43</ele>
        <time>2014-10-30T14:34:30Z</time>
      </trkpt>
      <trkpt lat="45.16267" lon="5.42952">
        <ele>518.79</ele>
        <time>2014-10-30T14:34:40Z</time>
      </trkpt>
      <trkpt lat="45.16275" lon="5.42934">
        <ele>516.2</ele>
        <time>2014-10-30T14:34:50Z</time>
      </trkpt>
      <trkpt lat="45.16281" lon="5.42918">
        <ele>514.04</ele>
        <time>2014-10-30T14:35:00Z</time>
      </trkpt>
      <trkpt lat="45.1629" lon="5.42908">
        <ele>512.57</ele>
        <time>2014-10-30T14:35:10Z</time>
      </trkpt>
      <trkpt lat="45.16296" lon="5.42897">
        <ele>510.87</ele>
        <time>2014-10-30T14:35:20Z</time>
      </trkpt>
      <trkpt lat="45.16306" lon="5.42889">
        <ele>509.96</ele>
        <time>2014-10-30T14:35:30Z</time>
      </trkpt>
      <trkpt lat="45.16312" lon="5.42868">
        <ele>510.83</ele>
        <time>2014-10-30T14:35:40Z</time>
      </trkpt>
      <trkpt lat="45.16311" lon="5.42848">
        <ele>510.14</ele>
        <time>2014-10-30T14:35:50Z</time>
      </trkpt>
      <trkpt lat="45.16315" lon="5.42837">
        <ele>508.83</ele>
        <time>2014-10-30T14:36:00Z</time>
      </trkpt>
      <trkpt lat="45.1632" lon="5.42827">
        <ele>507.63</ele>
        <time>2014-10-30T14:36:10Z</time>
      </trkpt>
      <trkpt lat="45.16327" lon="5.42817">
        <ele>507.59</ele>
        <time>2014-10-30T14:36:20Z</time>
      </trkpt>
      <trkpt lat="45.16335" lon="5.42805">
        <ele>507.33</ele>
        <time>2014-10-30T14:36:30Z</time>
      </trkpt>
      <trkpt lat="45.16342" lon="5.42795">
        <ele>506.58</ele>
        <time>2014-10-30T14:36:40Z</time>
      </trkpt>
      <trkpt lat="45.1635" lon="5.42786">
        <ele>506.18</ele>
        <time>2014-10-30T14:36:50Z</time>
      </trkpt>
      <trkpt lat="45.16354" lon="5.42779">
        <ele>506.3</ele>
        <time>2014-10-30T14:37:00Z</time>
      </trkpt>
      <trkpt lat="45.16356" lon="5.4276">
        <ele>506.03</ele>
        <time>2014-10-30T14:37:10Z</time>
      </trkpt>
      <trkpt lat="45.16359" lon="5.42739">
        <ele>504.03</ele>
        <time>2014-10-30T14:37:20Z</time>
      </trkpt>
      <trkpt lat="45.16365" lon="5.42724">
        <ele>502.66</ele>
        <time>2014-10-30T14:37:30Z</time>
      </trkpt>
      <trkpt lat="45.16371" lon="5.42711">
        <ele>502.2</ele>
        <time>2014-10-30T14:37:40Z</time>
      </trkpt>
      <trkpt lat="45.16374" lon="5.42693">
        <ele>502.2</ele>
        <time>2014-10-30T14:37:50Z</time>
      </trkpt>
      <trkpt lat="45.16376" lon="5.42678">
        <ele>501.93</ele>
        <time>2014-10-30T14:38:00Z</time>
      </trkpt>
      <trkpt lat="45.16379" lon="5.42664">
        <ele>501.03</ele>
        <time>2014-10-30T14:38:10Z</time>
      </trkpt>
      <trkpt lat="45.16382" lon="5.42643">
        <ele>499.35</ele>
        <time>2014-10-30T14:38:20Z</time>
      </trkpt>
      <trkpt lat="45.16387" lon="5.42633">
        <ele>498.8</ele>
        <time>2014-10-30T14:38:30Z</time>
      </trkpt>
      <trkpt lat="45.16393" lon="5.42626">
        <ele>497.56</ele>
        <time>2014-10-30T14:38:40Z</time>
      </trkpt>
      <trkpt lat="45.164" lon="5.4261">
        <ele>496.31</ele>
        <time>2014-10-30T14:38:50Z</time>
      </trkpt>
      <trkpt lat="45.16402" lon="5.42594">
        <ele>494.43</ele>
        <time>2014-10-30T14:39:00Z</time>
      </trkpt>
      <trkpt lat="45.16405" lon="5.42581">
        <ele>493.15</ele>
        <time>2014-10-30T14:39:10Z</time>
      </trkpt>
      <trkpt lat="45.16412" lon="5.42572">
        <ele>492.23</ele>
        <time>2014-10-30T14:39:20Z</time>
      </trkpt>
      <trkpt lat="45.16417" lon="5.42572">
        <ele>491.93</ele>
        <time>2014-10-30T14:39:30Z</time>
      </trkpt>
      <trkpt lat="45.1642" lon="5.42565">
        <ele>490.66</ele>
        <time>2014-10-30T14:39:40Z</time>
      </trkpt>
      <trkpt lat="45.16425" lon="5.42552">
        <ele>489.63</ele>
        <time>2014-10-30T14:39:50Z</time>
      </trkpt>
      <trkpt lat="45.16428" lon="5.4254">
        <ele>489.4</ele>
        <time>2014-10-30T14:40:00Z</time>
      </trkpt>
      <trkpt lat="45.16438" lon="5.42534">
        <ele>489.47</ele>
        <time>2014-10-30T14:40:10Z</time>
      </trkpt>
      <trkpt lat="45.16447" lon="5.42526">
        <ele>489.26</ele>
        <time>2014-10-30T14:40:20Z</time>
      </trkpt>
      <trkpt lat="45.16451" lon="5.42516">
        <ele>488.26</ele>
        <time>2014-10-30T14:40:30Z</time>
      </trkpt>
      <trkpt lat="45.16456" lon="5.42511">
        <ele>487.03</ele>
        <time>2014-10-30T14:40:40Z</time>
      </trkpt>
      <trkpt lat="45.16463" lon="5.42498">
        <ele>486.03</ele>
        <time>2014-10-30T14:40:50Z</time>
      </trkpt>
      <trkpt lat="45.16469" lon="5.42489">
        <ele>483.76</ele>
        <time>2014-10-30T14:41:00Z</time>
      </trkpt>
      <trkpt lat="45.16473" lon="5.4248">
        <ele>481.84</ele>
        <time>2014-10-30T14:41:10Z</time>
      </trkpt>
      <trkpt lat="45.16475" lon="5.42467">
        <ele>480.66</ele>
        <time>2014-10-30T14:41:20Z</time>
      </trkpt>
      <trkpt lat="45.16479" lon="5.42455">
        <ele>479.16</ele>
        <time>2014-10-30T14:41:30Z</time>
      </trkpt>
      <trkpt lat="45.16487" lon="5.42448">
        <ele>476.53</ele>
        <time>2014-10-30T14:41:40Z</time>
      </trkpt>
      <trkpt lat="45.1649" lon="5.4244">
        <ele>473.8</ele>
        <time>2014-10-30T14:41:50Z</time>
      </trkpt>
      <trkpt lat="45.165" lon="5.42438">
        <ele>471.64</ele>
        <time>2014-10-30T14:42:00Z</time>
      </trkpt>
      <trkpt lat="45.16509" lon="5.42434">
        <ele>469.97</ele>
        <time>2014-10-30T14:42:10Z</time>
      </trkpt>
      <trkpt lat="45.16516" lon="5.42427">
        <ele>467.19</ele>
        <time>2014-10-30T14:42:20Z</time>
      </trkpt>
      <trkpt lat="45.1652" lon="5.42418">
        <ele>465.76</ele>
        <time>2014-10-30T14:42:30Z</time>
      </trkpt>
      <trkpt lat="45.16527" lon="5.42415">
        <ele>464.23</ele>
        <time>2014-10-30T14:42:40Z</time>
      </trkpt>
      <trkpt lat="45.16531" lon="5.42411">
        <ele>461.99</ele>
        <time>2014-10-30T14:42:50Z</time>
      </trkpt>
      <trkpt lat="45.1653" lon="5.42404">
        <ele>460.4</ele>
        <time>2014-10-30T14:43:00Z</time>
      </trkpt>
      <trkpt lat="45.16534" lon="5.42395">
        <ele>457.86</ele>
        <time>2014-10-30T14:43:10Z</time>
      </trkpt>
      <trkpt lat="45.16534" lon="5.42381">
        <ele>456.34</ele>
        <time>2014-10-30T14:43:20Z</time>
      </trkpt>
      <trkpt lat="45.1654" lon="5.42373">
        <ele>453.81</ele>
        <time>2014-10-30T14:43:30Z</time>
      </trkpt>
      <trkpt lat="45.16541" lon="5.42362">
        <ele>451.94</ele>
        <time>2014-10-30T14:43:40Z</time>
      </trkpt>
      <trkpt lat="45.16542" lon="5.42356">
        <ele>450.29</ele>
        <time>2014-10-30T14:43:50Z</time>
      </trkpt>
      <trkpt lat="45.16544" lon="5.42357">
        <ele>450.4</ele>
        <time>2014-10-30T14:44:00Z</time>
      </trkpt>
      <trkpt lat="45.16548" lon="5.42359">
        <ele>450.4</ele>
        <time>2014-10-30T14:44:13Z</time>
      </trkpt>
      <trkpt lat="45.1654" lon="5.42354">
        <ele>449.36</ele>
        <time>2014-10-30T14:44:23Z</time>
      </trkpt>
      <trkpt lat="45.16525" lon="5.42356">
        <ele>447.47</ele>
        <time>2014-10-30T14:44:33Z</time>
      </trkpt>
      <trkpt lat="45.1651" lon="5.42362">
        <ele>446.33</ele>
        <time>2014-10-30T14:44:43Z</time>
      </trkpt>
      <trkpt lat="45.165" lon="5.42367">
        <ele>444.07</ele>
        <time>2014-10-30T14:44:53Z</time>
      </trkpt>
      <trkpt lat="45.16495" lon="5.42374">
        <ele>442.2</ele>
        <time>2014-10-30T14:45:03Z</time>
      </trkpt>
      <trkpt lat="45.16497" lon="5.42394">
        <ele>440.17</ele>
        <time>2014-10-30T14:45:13Z</time>
      </trkpt>
      <trkpt lat="45.16494" lon="5.42397">
        <ele>438.42</ele>
        <time>2014-10-30T14:45:23Z</time>
      </trkpt>
      <trkpt lat="45.16498" lon="5.42391">
        <ele>435.77</ele>
        <time>2014-10-30T14:45:33Z</time>
      </trkpt>
      <trkpt lat="45.16502" lon="5.42383">
        <ele>433.29</ele>
        <time>2014-10-30T14:45:43Z</time>
      </trkpt>
      <trkpt lat="45.16508" lon="5.42375">
        <ele>430.6</ele>
        <time>2014-10-30T14:45:53Z</time>
      </trkpt>
      <trkpt lat="45.16511" lon="5.42371">
        <ele>428.45</ele>
        <time>2014-10-30T14:46:03Z</time>
      </trkpt>
      <trkpt lat="45.16509" lon="5.42355">
        <ele>426.84</ele>
        <time>2014-10-30T14:46:13Z</time>
      </trkpt>
      <trkpt lat="45.16514" lon="5.42351">
        <ele>424.78</ele>
        <time>2014-10-30T14:46:23Z</time>
      </trkpt>
      <trkpt lat="45.16519" lon="5.42342">
        <ele>423.37</ele>
        <time>2014-10-30T14:46:33Z</time>
      </trkpt>
      <trkpt lat="45.1652" lon="5.42339">
        <ele>422.9</ele>
        <time>2014-10-30T14:46:43Z</time>
      </trkpt>
      <trkpt lat="45.16526" lon="5.42332">
        <ele>422.13</ele>
        <time>2014-10-30T14:46:53Z</time>
      </trkpt>
      <trkpt lat="45.16532" lon="5.42326">
        <ele>421.75</ele>
        <time>2014-10-30T14:47:03Z</time>
      </trkpt>
      <trkpt lat="45.16533" lon="5.42314">
        <ele>420.56</ele>
        <time>2014-10-30T14:47:13Z</time>
      </trkpt>
      <trkpt lat="45.16543" lon="5.42308">
        <ele>420.12</ele>
        <time>2014-10-30T14:47:23Z</time>
      </trkpt>
      <trkpt lat="45.16546" lon="5.42301">
        <ele>420.6</ele>
        <time>2014-10-30T14:47:33Z</time>
      </trkpt>
      <trkpt lat="45.1655" lon="5.42298">
        <ele>419.81</ele>
        <time>2014-10-30T14:47:43Z</time>
      </trkpt>
      <trkpt lat="45.16556" lon="5.42296">
        <ele>419.43</ele>
        <time>2014-10-30T14:47:53Z</time>
      </trkpt>
      <trkpt lat="45.16563" lon="5.42293">
        <ele>418.01</ele>
        <time>2014-10-30T14:48:03Z</time>
      </trkpt>
      <trkpt lat="45.16572" lon="5.42295">
        <ele>416.97</ele>
        <time>2014-10-30T14:48:13Z</time>
      </trkpt>
      <trkpt lat="45.16579" lon="5.42286">
        <ele>416.05</ele>
        <time>2014-10-30T14:48:23Z</time>
      </trkpt>
      <trkpt lat="45.16585" lon="5.42286">
        <ele>414.86</ele>
        <time>2014-10-30T14:48:33Z</time>
      </trkpt>
      <trkpt lat="45.16588" lon="5.42286">
        <ele>413.88</ele>
        <time>2014-10-30T14:48:43Z</time>
      </trkpt>
      <trkpt lat="45.16589" lon="5.42284">
        <ele>413.13</ele>
        <time>2014-10-30T14:48:53Z</time>
      </trkpt>
      <trkpt lat="45.16586" lon="5.42284">
        <ele>412.3</ele>
        <time>2014-10-30T14:49:03Z</time>
      </trkpt>
      <trkpt lat="45.16585" lon="5.42283">
        <ele>410.09</ele>
        <time>2014-10-30T14:49:13Z</time>
      </trkpt>
      <trkpt lat="45.16581" lon="5.4228">
        <ele>409.4</ele>
        <time>2014-10-30T14:49:23Z</time>
      </trkpt>
      <trkpt lat="45.1658" lon="5.42279">
        <ele>407.49</ele>
        <time>2014-10-30T14:49:33Z</time>
      </trkpt>
      <trkpt lat="45.16586" lon="5.42288">
        <ele>407.6</ele>
        <time>2014-10-30T14:49:43Z</time>
      </trkpt>
      <trkpt lat="45.16587" lon="5.4229">
        <ele>407.6</ele>
        <time>2014-10-30T14:49:53Z</time>
      </trkpt>
      <trkpt lat="45.16561" lon="5.42264">
        <ele>408.53</ele>
        <time>2014-10-30T14:50:03Z</time>
      </trkpt>
      <trkpt lat="45.16566" lon="5.42271">
        <ele>407.16</ele>
        <time>2014-10-30T14:50:13Z</time>
      </trkpt>
      <trkpt lat="45.16563" lon="5.42266">
        <ele>405.95</ele>
        <time>2014-10-30T14:50:23Z</time>
      </trkpt>
      <trkpt lat="45.16562" lon="5.42262">
        <ele>405.23</ele>
        <time>2014-10-30T14:50:33Z</time>
      </trkpt>
      <trkpt lat="45.1657" lon="5.42265">
        <ele>403.67</ele>
        <time>2014-10-30T14:50:43Z</time>
      </trkpt>
      <trkpt lat="45.16574" lon="5.42258">
        <ele>403</ele>
        <time>2014-10-30T14:50:53Z</time>
      </trkpt>
      <trkpt lat="45.16579" lon="5.42252">
        <ele>402.33</ele>
        <time>2014-10-30T14:51:03Z</time>
      </trkpt>
      <trkpt lat="45.16582" lon="5.42248">
        <ele>399.71</ele>
        <time>2014-10-30T14:51:13Z</time>
      </trkpt>
      <trkpt lat="45.16592" lon="5.42254">
        <ele>396.8</ele>
        <time>2014-10-30T14:51:23Z</time>
      </trkpt>
      <trkpt lat="45.16593" lon="5.42247">
        <ele>395.3</ele>
        <time>2014-10-30T14:51:33Z</time>
      </trkpt>
      <trkpt lat="45.16595" lon="5.4224">
        <ele>394.63</ele>
        <time>2014-10-30T14:51:45Z</time>
      </trkpt>
      <trkpt lat="45.16601" lon="5.42233">
        <ele>394.49</ele>
        <time>2014-10-30T14:51:55Z</time>
      </trkpt>
      <trkpt lat="45.16604" lon="5.42226">
        <ele>394.9</ele>
        <time>2014-10-30T14:52:05Z</time>
      </trkpt>
      <trkpt lat="45.16607" lon="5.4223">
        <ele>395.54</ele>
        <time>2014-10-30T14:52:15Z</time>
      </trkpt>
      <trkpt lat="45.1661" lon="5.42229">
        <ele>396.09</ele>
        <time>2014-10-30T14:52:25Z</time>
      </trkpt>
      <trkpt lat="45.16604" lon="5.42221">
        <ele>395.7</ele>
        <time>2014-10-30T14:52:35Z</time>
      </trkpt>
      <trkpt lat="45.16592" lon="5.4222">
        <ele>395.7</ele>
        <time>2014-10-30T14:52:45Z</time>
      </trkpt>
      <trkpt lat="45.16592" lon="5.42206">
        <ele>395.5</ele>
        <time>2014-10-30T14:52:55Z</time>
      </trkpt>
      <trkpt lat="45.16584" lon="5.4219">
        <ele>395.15</ele>
        <time>2014-10-30T14:53:05Z</time>
      </trkpt>
      <trkpt lat="45.16589" lon="5.42193">
        <ele>393.4</ele>
        <time>2014-10-30T14:53:15Z</time>
      </trkpt>
      <trkpt lat="45.16589" lon="5.42177">
        <ele>392.8</ele>
        <time>2014-10-30T14:53:25Z</time>
      </trkpt>
      <trkpt lat="45.16591" lon="5.42155">
        <ele>390.01</ele>
        <time>2014-10-30T14:53:35Z</time>
      </trkpt>
      <trkpt lat="45.16596" lon="5.42141">
        <ele>385.48</ele>
        <time>2014-10-30T14:53:45Z</time>
      </trkpt>
      <trkpt lat="45.16592" lon="5.42127">
        <ele>381.88</ele>
        <time>2014-10-30T14:53:55Z</time>
      </trkpt>
      <trkpt lat="45.16598" lon="5.42119">
        <ele>379.91</ele>
        <time>2014-10-30T14:54:05Z</time>
      </trkpt>
      <trkpt lat="45.16606" lon="5.4212">
        <ele>379.6</ele>
        <time>2014-10-30T14:54:15Z</time>
      </trkpt>
      <trkpt lat="45.16607" lon="5.42105">
        <ele>378.93</ele>
        <time>2014-10-30T14:54:25Z</time>
      </trkpt>
      <trkpt lat="45.16608" lon="5.42104">
        <ele>379.4</ele>
        <time>2014-10-30T14:54:35Z</time>
      </trkpt>
      <trkpt lat="45.16614" lon="5.421">
        <ele>375.05</ele>
        <time>2014-10-30T14:55:02Z</time>
      </trkpt>
      <trkpt lat="45.16606" lon="5.4209">
        <ele>367.64</ele>
        <time>2014-10-30T14:55:12Z</time>
      </trkpt>
      <trkpt lat="45.16613" lon="5.42091">
        <ele>366.44</ele>
        <time>2014-10-30T14:55:22Z</time>
      </trkpt>
      <trkpt lat="45.16616" lon="5.42092">
        <ele>364.61</ele>
        <time>2014-10-30T14:55:32Z</time>
      </trkpt>
      <trkpt lat="45.16619" lon="5.42091">
        <ele>363.1</ele>
        <time>2014-10-30T14:55:42Z</time>
      </trkpt>
      <trkpt lat="45.16623" lon="5.42093">
        <ele>362.09</ele>
        <time>2014-10-30T14:55:52Z</time>
      </trkpt>
      <trkpt lat="45.16624" lon="5.42086">
        <ele>361.41</ele>
        <time>2014-10-30T14:56:02Z</time>
      </trkpt>
      <trkpt lat="45.16629" lon="5.42086">
        <ele>360.1</ele>
        <time>2014-10-30T14:56:12Z</time>
      </trkpt>
      <trkpt lat="45.16634" lon="5.4208">
        <ele>358.95</ele>
        <time>2014-10-30T14:56:22Z</time>
      </trkpt>
      <trkpt lat="45.16638" lon="5.42077">
        <ele>357.91</ele>
        <time>2014-10-30T14:56:32Z</time>
      </trkpt>
      <trkpt lat="45.16645" lon="5.42074">
        <ele>357.33</ele>
        <time>2014-10-30T14:56:42Z</time>
      </trkpt>
      <trkpt lat="45.16646" lon="5.42062">
        <ele>356.8</ele>
        <time>2014-10-30T14:56:52Z</time>
      </trkpt>
      <trkpt lat="45.16648" lon="5.42051">
        <ele>356.23</ele>
        <time>2014-10-30T14:57:02Z</time>
      </trkpt>
      <trkpt lat="45.16649" lon="5.42045">
        <ele>355.13</ele>
        <time>2014-10-30T14:57:12Z</time>
      </trkpt>
      <trkpt lat="45.16656" lon="5.42045">
        <ele>353.39</ele>
        <time>2014-10-30T14:57:22Z</time>
      </trkpt>
      <trkpt lat="45.16665" lon="5.42046">
        <ele>351.64</ele>
        <time>2014-10-30T14:57:32Z</time>
      </trkpt>
      <trkpt lat="45.16672" lon="5.42039">
        <ele>349.45</ele>
        <time>2014-10-30T14:57:42Z</time>
      </trkpt>
      <trkpt lat="45.1668" lon="5.4204">
        <ele>346.94</ele>
        <time>2014-10-30T14:57:52Z</time>
      </trkpt>
      <trkpt lat="45.16679" lon="5.42019">
        <ele>344.52</ele>
        <time>2014-10-30T14:58:02Z</time>
      </trkpt>
      <trkpt lat="45.16671" lon="5.41999">
        <ele>342.93</ele>
        <time>2014-10-30T14:58:12Z</time>
      </trkpt>
      <trkpt lat="45.16668" lon="5.41981">
        <ele>342.61</ele>
        <time>2014-10-30T14:58:22Z</time>
      </trkpt>
      <trkpt lat="45.16672" lon="5.41971">
        <ele>342.1</ele>
        <time>2014-10-30T14:58:32Z</time>
      </trkpt>
      <trkpt lat="45.16673" lon="5.41954">
        <ele>342.01</ele>
        <time>2014-10-30T14:58:42Z</time>
      </trkpt>
      <trkpt lat="45.16664" lon="5.41936">
        <ele>342.1</ele>
        <time>2014-10-30T14:58:52Z</time>
      </trkpt>
      <trkpt lat="45.16662" lon="5.41931">
        <ele>344</ele>
        <time>2014-10-30T14:59:02Z</time>
      </trkpt>
      <trkpt lat="45.16661" lon="5.4192">
        <ele>346.07</ele>
        <time>2014-10-30T14:59:12Z</time>
      </trkpt>
      <trkpt lat="45.16663" lon="5.41909">
        <ele>346.58</ele>
        <time>2014-10-30T14:59:22Z</time>
      </trkpt>
      <trkpt lat="45.16668" lon="5.41902">
        <ele>346.31</ele>
        <time>2014-10-30T14:59:32Z</time>
      </trkpt>
      <trkpt lat="45.16662" lon="5.41879">
        <ele>346.77</ele>
        <time>2014-10-30T14:59:42Z</time>
      </trkpt>
      <trkpt lat="45.16672" lon="5.41867">
        <ele>347.29</ele>
        <time>2014-10-30T14:59:52Z</time>
      </trkpt>
      <trkpt lat="45.16698" lon="5.41878">
        <ele>348.46</ele>
        <time>2014-10-30T15:00:02Z</time>
      </trkpt>
      <trkpt lat="45.167" lon="5.4188">
        <ele>349.1</ele>
        <time>2014-10-30T15:00:12Z</time>
      </trkpt>
      <trkpt lat="45.16683" lon="5.41849">
        <ele>350.07</ele>
        <time>2014-10-30T15:00:22Z</time>
      </trkpt>
      <trkpt lat="45.16701" lon="5.41856">
        <ele>351.08</ele>
        <time>2014-10-30T15:00:32Z</time>
      </trkpt>
      <trkpt lat="45.16763" lon="5.4192">
        <ele>351.4</ele>
        <time>2014-10-30T15:00:42Z</time>
      </trkpt>
      <trkpt lat="45.16778" lon="5.41922">
        <ele>352.33</ele>
        <time>2014-10-30T15:00:52Z</time>
      </trkpt>
      <trkpt lat="45.16792" lon="5.41918">
        <ele>354.47</ele>
        <time>2014-10-30T15:01:02Z</time>
      </trkpt>
      <trkpt lat="45.16786" lon="5.41906">
        <ele>355.13</ele>
        <time>2014-10-30T15:01:12Z</time>
      </trkpt>
      <trkpt lat="45.16784" lon="5.41875">
        <ele>356.7</ele>
        <time>2014-10-30T15:01:22Z</time>
      </trkpt>
      <trkpt lat="45.16774" lon="5.41856">
        <ele>356.58</ele>
        <time>2014-10-30T15:01:32Z</time>
      </trkpt>
      <trkpt lat="45.16766" lon="5.41832">
        <ele>356.6</ele>
        <time>2014-10-30T15:01:42Z</time>
      </trkpt>
      <trkpt lat="45.16768" lon="5.41822">
        <ele>356.43</ele>
        <time>2014-10-30T15:01:52Z</time>
      </trkpt>
      <trkpt lat="45.16768" lon="5.41813">
        <ele>356.2</ele>
        <time>2014-10-30T15:02:02Z</time>
      </trkpt>
      <trkpt lat="45.16772" lon="5.41812">
        <ele>354.85</ele>
        <time>2014-10-30T15:02:12Z</time>
      </trkpt>
      <trkpt lat="45.16777" lon="5.41818">
        <ele>353.42</ele>
        <time>2014-10-30T15:02:22Z</time>
      </trkpt>
      <trkpt lat="45.16776" lon="5.41804">
        <ele>352.51</ele>
        <time>2014-10-30T15:02:32Z</time>
      </trkpt>
      <trkpt lat="45.1677" lon="5.41797">
        <ele>352.24</ele>
        <time>2014-10-30T15:02:42Z</time>
      </trkpt>
      <trkpt lat="45.16764" lon="5.41787">
        <ele>352.53</ele>
        <time>2014-10-30T15:02:52Z</time>
      </trkpt>
      <trkpt lat="45.16763" lon="5.41779">
        <ele>351.53</ele>
        <time>2014-10-30T15:03:02Z</time>
      </trkpt>
      <trkpt lat="45.16751" lon="5.41754">
        <ele>349.61</ele>
        <time>2014-10-30T15:03:12Z</time>
      </trkpt>
      <trkpt lat="45.16745" lon="5.41731">
        <ele>342.06</ele>
        <time>2014-10-30T15:03:22Z</time>
      </trkpt>
      <trkpt lat="45.16743" lon="5.4173">
        <ele>341.4</ele>
        <time>2014-10-30T15:03:32Z</time>
      </trkpt>
      <trkpt lat="45.16738" lon="5.41709">
        <ele>335.43</ele>
        <time>2014-10-30T15:03:42Z</time>
      </trkpt>
      <trkpt lat="45.16734" lon="5.41679">
        <ele>330.04</ele>
        <time>2014-10-30T15:03:52Z</time>
      </trkpt>
      <trkpt lat="45.16725" lon="5.41653">
        <ele>326.3</ele>
        <time>2014-10-30T15:04:02Z</time>
      </trkpt>
      <trkpt lat="45.16715" lon="5.41625">
        <ele>323.44</ele>
        <time>2014-10-30T15:04:12Z</time>
      </trkpt>
      <trkpt lat="45.16718" lon="5.41608">
        <ele>321.4</ele>
        <time>2014-10-30T15:04:22Z</time>
      </trkpt>
      <trkpt lat="45.16734" lon="5.41598">
        <ele>319.12</ele>
        <time>2014-10-30T15:04:32Z</time>
      </trkpt>
      <trkpt lat="45.16779" lon="5.41613">
        <ele>313.87</ele>
        <time>2014-10-30T15:04:42Z</time>
      </trkpt>
      <trkpt lat="45.16789" lon="5.41604">
        <ele>309.13</ele>
        <time>2014-10-30T15:04:52Z</time>
      </trkpt>
      <trkpt lat="45.16791" lon="5.4159">
        <ele>306.01</ele>
        <time>2014-10-30T15:05:02Z</time>
      </trkpt>
      <trkpt lat="45.16799" lon="5.41579">
        <ele>303.08</ele>
        <time>2014-10-30T15:05:12Z</time>
      </trkpt>
      <trkpt lat="45.16801" lon="5.41564">
        <ele>300.17</ele>
        <time>2014-10-30T15:05:22Z</time>
      </trkpt>
      <trkpt lat="45.16802" lon="5.41549">
        <ele>296.76</ele>
        <time>2014-10-30T15:05:32Z</time>
      </trkpt>
      <trkpt lat="45.168" lon="5.41549">
        <ele>295.43</ele>
        <time>2014-10-30T15:05:42Z</time>
      </trkpt>
      <trkpt lat="45.1679" lon="5.41543">
        <ele>295.32</ele>
        <time>2014-10-30T15:05:52Z</time>
      </trkpt>
      <trkpt lat="45.16797" lon="5.41525">
        <ele>293.96</ele>
        <time>2014-10-30T15:06:02Z</time>
      </trkpt>
      <trkpt lat="45.16794" lon="5.41508">
        <ele>292.13</ele>
        <time>2014-10-30T15:06:12Z</time>
      </trkpt>
      <trkpt lat="45.16795" lon="5.4149">
        <ele>290.96</ele>
        <time>2014-10-30T15:06:22Z</time>
      </trkpt>
      <trkpt lat="45.16803" lon="5.41479">
        <ele>289.31</ele>
        <time>2014-10-30T15:06:32Z</time>
      </trkpt>
      <trkpt lat="45.16824" lon="5.41473">
        <ele>288.01</ele>
        <time>2014-10-30T15:06:42Z</time>
      </trkpt>
      <trkpt lat="45.16841" lon="5.41466">
        <ele>286.37</ele>
        <time>2014-10-30T15:06:52Z</time>
      </trkpt>
      <trkpt lat="45.1685" lon="5.4145">
        <ele>283.42</ele>
        <time>2014-10-30T15:07:02Z</time>
      </trkpt>
      <trkpt lat="45.16857" lon="5.41436">
        <ele>279.6</ele>
        <time>2014-10-30T15:07:12Z</time>
      </trkpt>
      <trkpt lat="45.16865" lon="5.41419">
        <ele>277.37</ele>
        <time>2014-10-30T15:07:22Z</time>
      </trkpt>
      <trkpt lat="45.16871" lon="5.41408">
        <ele>275.83</ele>
        <time>2014-10-30T15:07:32Z</time>
      </trkpt>
      <trkpt lat="45.16876" lon="5.41407">
        <ele>275.13</ele>
        <time>2014-10-30T15:07:42Z</time>
      </trkpt>
      <trkpt lat="45.1689" lon="5.41421">
        <ele>274.05</ele>
        <time>2014-10-30T15:07:52Z</time>
      </trkpt>
      <trkpt lat="45.16903" lon="5.4143">
        <ele>272.23</ele>
        <time>2014-10-30T15:08:02Z</time>
      </trkpt>
      <trkpt lat="45.16916" lon="5.41427">
        <ele>272</ele>
        <time>2014-10-30T15:08:12Z</time>
      </trkpt>
      <trkpt lat="45.16925" lon="5.41403">
        <ele>271.77</ele>
        <time>2014-10-30T15:08:22Z</time>
      </trkpt>
      <trkpt lat="45.16932" lon="5.41386">
        <ele>271.58</ele>
        <time>2014-10-30T15:08:32Z</time>
      </trkpt>
      <trkpt lat="45.16939" lon="5.41366">
        <ele>271.51</ele>
        <time>2014-10-30T15:08:42Z</time>
      </trkpt>
      <trkpt lat="45.16939" lon="5.41343">
        <ele>271.11</ele>
        <time>2014-10-30T15:08:52Z</time>
      </trkpt>
      <trkpt lat="45.16936" lon="5.41325">
        <ele>270.53</ele>
        <time>2014-10-30T15:09:02Z</time>
      </trkpt>
      <trkpt lat="45.16946" lon="5.41313">
        <ele>269.73</ele>
        <time>2014-10-30T15:09:12Z</time>
      </trkpt>
      <trkpt lat="45.16952" lon="5.41297">
        <ele>268.63</ele>
        <time>2014-10-30T15:09:22Z</time>
      </trkpt>
      <trkpt lat="45.16956" lon="5.4128">
        <ele>267.53</ele>
        <time>2014-10-30T15:09:32Z</time>
      </trkpt>
      <trkpt lat="45.16964" lon="5.41266">
        <ele>266.81</ele>
        <time>2014-10-30T15:09:42Z</time>
      </trkpt>
      <trkpt lat="45.16971" lon="5.41251">
        <ele>265.73</ele>
        <time>2014-10-30T15:09:52Z</time>
      </trkpt>
      <trkpt lat="45.16981" lon="5.41243">
        <ele>265.03</ele>
        <time>2014-10-30T15:10:02Z</time>
      </trkpt>
      <trkpt lat="45.16987" lon="5.4123">
        <ele>263.95</ele>
        <time>2014-10-30T15:10:12Z</time>
      </trkpt>
      <trkpt lat="45.16998" lon="5.41221">
        <ele>262.43</ele>
        <time>2014-10-30T15:10:22Z</time>
      </trkpt>
      <trkpt lat="45.17007" lon="5.41213">
        <ele>260.65</ele>
        <time>2014-10-30T15:10:32Z</time>
      </trkpt>
      <trkpt lat="45.17014" lon="5.41202">
        <ele>259.44</ele>
        <time>2014-10-30T15:10:42Z</time>
      </trkpt>
      <trkpt lat="45.17025" lon="5.41199">
        <ele>257.33</ele>
        <time>2014-10-30T15:10:52Z</time>
      </trkpt>
      <trkpt lat="45.17038" lon="5.41208">
        <ele>255.99</ele>
        <time>2014-10-30T15:11:02Z</time>
      </trkpt>
      <trkpt lat="45.17047" lon="5.41212">
        <ele>254.79</ele>
        <time>2014-10-30T15:11:12Z</time>
      </trkpt>
      <trkpt lat="45.17057" lon="5.41219">
        <ele>253.24</ele>
        <time>2014-10-30T15:11:22Z</time>
      </trkpt>
      <trkpt lat="45.17064" lon="5.41228">
        <ele>252.4</ele>
        <time>2014-10-30T15:11:32Z</time>
      </trkpt>
      <trkpt lat="45.17064" lon="5.41231">
        <ele>252.1</ele>
        <time>2014-10-30T15:11:42Z</time>
      </trkpt>
      <trkpt lat="45.17066" lon="5.41232">
        <ele>253</ele>
        <time>2014-10-30T15:11:52Z</time>
      </trkpt>
      <trkpt lat="45.17068" lon="5.41233">
        <ele>254.17</ele>
        <time>2014-10-30T15:12:02Z</time>
      </trkpt>
      <trkpt lat="45.17071" lon="5.41231">
        <ele>254.55</ele>
        <time>2014-10-30T15:12:12Z</time>
      </trkpt>
      <trkpt lat="45.1707" lon="5.41232">
        <ele>254.9</ele>
        <time>2014-10-30T15:12:33Z</time>
      </trkpt>
    </trkseg>
  </trk>
</gpx>